<?xml version="1.0" encoding="UTF-8" standalone="no" ?>
<gpx xmlns="http://www.topografix.com/GPX/1/1" xmlns:xsi="http://www.w3.org/2001/XMLSchema-instance" xsi:schemaLocation="http://www.topografix.com/GPX/1/1 http://www.topografix.com/GPX/1/1/gpx.xsd" version="1.1" creator="VisuGPX - https://www.visugpx.com">
  <metadata>
    <name>83 - M - Flayosquet </name>
    <desc><![CDATA[83 - M - Flayosquet : château Sigue  
2022-10-19]]></desc>
  </metadata>
  <trk>
    <name><![CDATA[Flayosquet château Sigue  2022-10-19-01]]></name>
    <trkseg>
      <trkpt lat="43.55799" lon="6.40264">
        <ele>406.9</ele>
        <time>2022-10-19T11:58:58Z</time>
      </trkpt>
      <trkpt lat="43.55799" lon="6.40264">
        <ele>406</ele>
        <time>2022-10-19T11:58:58Z</time>
      </trkpt>
      <trkpt lat="43.55806" lon="6.40261">
        <ele>406</ele>
        <time>2022-10-19T11:59:10Z</time>
      </trkpt>
      <trkpt lat="43.55805" lon="6.40267">
        <ele>406.2</ele>
        <time>2022-10-19T11:59:50Z</time>
      </trkpt>
      <trkpt lat="43.558" lon="6.40267">
        <ele>406.4</ele>
        <time>2022-10-19T12:00:02Z</time>
      </trkpt>
      <trkpt lat="43.55795" lon="6.40267">
        <ele>406.7</ele>
        <time>2022-10-19T12:00:32Z</time>
      </trkpt>
      <trkpt lat="43.5579" lon="6.4027">
        <ele>406.7</ele>
        <time>2022-10-19T12:01:14Z</time>
      </trkpt>
      <trkpt lat="43.5579" lon="6.40263">
        <ele>406.9</ele>
        <time>2022-10-19T12:01:37Z</time>
      </trkpt>
      <trkpt lat="43.55791" lon="6.40257">
        <ele>406.9</ele>
        <time>2022-10-19T12:02:34Z</time>
      </trkpt>
      <trkpt lat="43.55787" lon="6.40259">
        <ele>406.9</ele>
        <time>2022-10-19T12:03:13Z</time>
      </trkpt>
      <trkpt lat="43.55791" lon="6.4026">
        <ele>406.9</ele>
        <time>2022-10-19T12:04:34Z</time>
      </trkpt>
      <trkpt lat="43.55796" lon="6.4026">
        <ele>407.3</ele>
        <time>2022-10-19T12:04:41Z</time>
      </trkpt>
      <trkpt lat="43.55801" lon="6.40256">
        <ele>407.6</ele>
        <time>2022-10-19T12:04:45Z</time>
      </trkpt>
      <trkpt lat="43.55805" lon="6.40254">
        <ele>408.3</ele>
        <time>2022-10-19T12:04:50Z</time>
      </trkpt>
      <trkpt lat="43.5581" lon="6.40254">
        <ele>408.6</ele>
        <time>2022-10-19T12:04:54Z</time>
      </trkpt>
      <trkpt lat="43.55815" lon="6.40253">
        <ele>409.1</ele>
        <time>2022-10-19T12:04:59Z</time>
      </trkpt>
      <trkpt lat="43.55819" lon="6.40257">
        <ele>410</ele>
        <time>2022-10-19T12:05:07Z</time>
      </trkpt>
      <trkpt lat="43.55824" lon="6.40257">
        <ele>410.6</ele>
        <time>2022-10-19T12:05:11Z</time>
      </trkpt>
      <trkpt lat="43.55828" lon="6.40255">
        <ele>411.2</ele>
        <time>2022-10-19T12:05:15Z</time>
      </trkpt>
      <trkpt lat="43.55834" lon="6.40255">
        <ele>411.7</ele>
        <time>2022-10-19T12:05:19Z</time>
      </trkpt>
      <trkpt lat="43.55836" lon="6.4025">
        <ele>411.9</ele>
        <time>2022-10-19T12:05:21Z</time>
      </trkpt>
      <trkpt lat="43.55839" lon="6.40245">
        <ele>412.3</ele>
        <time>2022-10-19T12:05:26Z</time>
      </trkpt>
      <trkpt lat="43.55841" lon="6.40239">
        <ele>412.9</ele>
        <time>2022-10-19T12:06:46Z</time>
      </trkpt>
      <trkpt lat="43.55846" lon="6.40236">
        <ele>413.2</ele>
        <time>2022-10-19T12:06:52Z</time>
      </trkpt>
      <trkpt lat="43.5585" lon="6.40234">
        <ele>414.4</ele>
        <time>2022-10-19T12:06:59Z</time>
      </trkpt>
      <trkpt lat="43.55852" lon="6.40228">
        <ele>415.7</ele>
        <time>2022-10-19T12:07:06Z</time>
      </trkpt>
      <trkpt lat="43.55856" lon="6.40224">
        <ele>416.1</ele>
        <time>2022-10-19T12:07:09Z</time>
      </trkpt>
      <trkpt lat="43.55859" lon="6.40218">
        <ele>416.7</ele>
        <time>2022-10-19T12:07:13Z</time>
      </trkpt>
      <trkpt lat="43.5586" lon="6.40212">
        <ele>417.1</ele>
        <time>2022-10-19T12:07:17Z</time>
      </trkpt>
      <trkpt lat="43.55862" lon="6.40206">
        <ele>417.6</ele>
        <time>2022-10-19T12:07:21Z</time>
      </trkpt>
      <trkpt lat="43.55865" lon="6.40199">
        <ele>418.1</ele>
        <time>2022-10-19T12:07:27Z</time>
      </trkpt>
      <trkpt lat="43.55866" lon="6.40193">
        <ele>418.8</ele>
        <time>2022-10-19T12:07:41Z</time>
      </trkpt>
      <trkpt lat="43.55862" lon="6.4019">
        <ele>418.7</ele>
        <time>2022-10-19T12:09:11Z</time>
      </trkpt>
      <trkpt lat="43.55865" lon="6.40185">
        <ele>418.8</ele>
        <time>2022-10-19T12:09:28Z</time>
      </trkpt>
      <trkpt lat="43.55868" lon="6.4018">
        <ele>419.3</ele>
        <time>2022-10-19T12:09:36Z</time>
      </trkpt>
      <trkpt lat="43.55872" lon="6.40176">
        <ele>419.5</ele>
        <time>2022-10-19T12:09:43Z</time>
      </trkpt>
      <trkpt lat="43.55872" lon="6.4017">
        <ele>419.7</ele>
        <time>2022-10-19T12:09:51Z</time>
      </trkpt>
      <trkpt lat="43.55877" lon="6.40167">
        <ele>420.1</ele>
        <time>2022-10-19T12:09:59Z</time>
      </trkpt>
      <trkpt lat="43.55881" lon="6.40164">
        <ele>420.5</ele>
        <time>2022-10-19T12:10:04Z</time>
      </trkpt>
      <trkpt lat="43.55885" lon="6.40159">
        <ele>421.3</ele>
        <time>2022-10-19T12:10:10Z</time>
      </trkpt>
      <trkpt lat="43.55889" lon="6.40156">
        <ele>421.5</ele>
        <time>2022-10-19T12:10:14Z</time>
      </trkpt>
      <trkpt lat="43.55893" lon="6.40151">
        <ele>422.3</ele>
        <time>2022-10-19T12:10:22Z</time>
      </trkpt>
      <trkpt lat="43.55897" lon="6.40145">
        <ele>422.8</ele>
        <time>2022-10-19T12:10:29Z</time>
      </trkpt>
      <trkpt lat="43.559" lon="6.40138">
        <ele>423.4</ele>
        <time>2022-10-19T12:10:36Z</time>
      </trkpt>
      <trkpt lat="43.55903" lon="6.40133">
        <ele>423.8</ele>
        <time>2022-10-19T12:10:42Z</time>
      </trkpt>
      <trkpt lat="43.55907" lon="6.40129">
        <ele>424.2</ele>
        <time>2022-10-19T12:10:47Z</time>
      </trkpt>
      <trkpt lat="43.55909" lon="6.40123">
        <ele>424.9</ele>
        <time>2022-10-19T12:10:56Z</time>
      </trkpt>
      <trkpt lat="43.55913" lon="6.40118">
        <ele>425.4</ele>
        <time>2022-10-19T12:11:03Z</time>
      </trkpt>
      <trkpt lat="43.55917" lon="6.40112">
        <ele>426</ele>
        <time>2022-10-19T12:11:13Z</time>
      </trkpt>
      <trkpt lat="43.5592" lon="6.40106">
        <ele>426.5</ele>
        <time>2022-10-19T12:11:20Z</time>
      </trkpt>
      <trkpt lat="43.55925" lon="6.40102">
        <ele>426.6</ele>
        <time>2022-10-19T12:11:25Z</time>
      </trkpt>
      <trkpt lat="43.55929" lon="6.40098">
        <ele>426.9</ele>
        <time>2022-10-19T12:11:31Z</time>
      </trkpt>
      <trkpt lat="43.55933" lon="6.40095">
        <ele>427.3</ele>
        <time>2022-10-19T12:11:35Z</time>
      </trkpt>
      <trkpt lat="43.55934" lon="6.40089">
        <ele>427.6</ele>
        <time>2022-10-19T12:11:43Z</time>
      </trkpt>
      <trkpt lat="43.55936" lon="6.40083">
        <ele>428</ele>
        <time>2022-10-19T12:11:47Z</time>
      </trkpt>
      <trkpt lat="43.55939" lon="6.40077">
        <ele>428.3</ele>
        <time>2022-10-19T12:11:54Z</time>
      </trkpt>
      <trkpt lat="43.55942" lon="6.40072">
        <ele>428.9</ele>
        <time>2022-10-19T12:12:01Z</time>
      </trkpt>
      <trkpt lat="43.55945" lon="6.40067">
        <ele>429.2</ele>
        <time>2022-10-19T12:12:06Z</time>
      </trkpt>
      <trkpt lat="43.55948" lon="6.40061">
        <ele>429.5</ele>
        <time>2022-10-19T12:12:12Z</time>
      </trkpt>
      <trkpt lat="43.55951" lon="6.40055">
        <ele>429.8</ele>
        <time>2022-10-19T12:12:15Z</time>
      </trkpt>
      <trkpt lat="43.55956" lon="6.4005">
        <ele>430.1</ele>
        <time>2022-10-19T12:12:20Z</time>
      </trkpt>
      <trkpt lat="43.55959" lon="6.40045">
        <ele>430.3</ele>
        <time>2022-10-19T12:12:26Z</time>
      </trkpt>
      <trkpt lat="43.55964" lon="6.40044">
        <ele>430.8</ele>
        <time>2022-10-19T12:12:32Z</time>
      </trkpt>
      <trkpt lat="43.55968" lon="6.40041">
        <ele>431.2</ele>
        <time>2022-10-19T12:12:37Z</time>
      </trkpt>
      <trkpt lat="43.55971" lon="6.40036">
        <ele>431.7</ele>
        <time>2022-10-19T12:12:43Z</time>
      </trkpt>
      <trkpt lat="43.55976" lon="6.40033">
        <ele>432.8</ele>
        <time>2022-10-19T12:12:53Z</time>
      </trkpt>
      <trkpt lat="43.55981" lon="6.40029">
        <ele>433.3</ele>
        <time>2022-10-19T12:13:00Z</time>
      </trkpt>
      <trkpt lat="43.55984" lon="6.40025">
        <ele>433.8</ele>
        <time>2022-10-19T12:13:05Z</time>
      </trkpt>
      <trkpt lat="43.55988" lon="6.40022">
        <ele>434.5</ele>
        <time>2022-10-19T12:13:11Z</time>
      </trkpt>
      <trkpt lat="43.55993" lon="6.40018">
        <ele>435.1</ele>
        <time>2022-10-19T12:13:16Z</time>
      </trkpt>
      <trkpt lat="43.55996" lon="6.40011">
        <ele>435.7</ele>
        <time>2022-10-19T12:13:21Z</time>
      </trkpt>
      <trkpt lat="43.56" lon="6.40003">
        <ele>436.1</ele>
        <time>2022-10-19T12:13:26Z</time>
      </trkpt>
      <trkpt lat="43.56002" lon="6.39998">
        <ele>436.4</ele>
        <time>2022-10-19T12:13:30Z</time>
      </trkpt>
      <trkpt lat="43.56005" lon="6.39991">
        <ele>436.8</ele>
        <time>2022-10-19T12:13:35Z</time>
      </trkpt>
      <trkpt lat="43.56009" lon="6.39987">
        <ele>437.1</ele>
        <time>2022-10-19T12:13:38Z</time>
      </trkpt>
      <trkpt lat="43.56014" lon="6.39989">
        <ele>439.2</ele>
        <time>2022-10-19T12:13:55Z</time>
      </trkpt>
      <trkpt lat="43.56014" lon="6.39995">
        <ele>440</ele>
        <time>2022-10-19T12:14:01Z</time>
      </trkpt>
      <trkpt lat="43.56015" lon="6.40002">
        <ele>441</ele>
        <time>2022-10-19T12:14:08Z</time>
      </trkpt>
      <trkpt lat="43.5602" lon="6.40006">
        <ele>441.3</ele>
        <time>2022-10-19T12:14:13Z</time>
      </trkpt>
      <trkpt lat="43.56024" lon="6.40009">
        <ele>441.7</ele>
        <time>2022-10-19T12:14:17Z</time>
      </trkpt>
      <trkpt lat="43.56029" lon="6.40013">
        <ele>441.9</ele>
        <time>2022-10-19T12:14:21Z</time>
      </trkpt>
      <trkpt lat="43.56033" lon="6.40012">
        <ele>442.4</ele>
        <time>2022-10-19T12:14:26Z</time>
      </trkpt>
      <trkpt lat="43.56038" lon="6.40012">
        <ele>442.7</ele>
        <time>2022-10-19T12:14:30Z</time>
      </trkpt>
      <trkpt lat="43.56042" lon="6.4001">
        <ele>443.3</ele>
        <time>2022-10-19T12:14:37Z</time>
      </trkpt>
      <trkpt lat="43.56047" lon="6.40008">
        <ele>443.8</ele>
        <time>2022-10-19T12:14:44Z</time>
      </trkpt>
      <trkpt lat="43.56051" lon="6.40004">
        <ele>444.2</ele>
        <time>2022-10-19T12:14:49Z</time>
      </trkpt>
      <trkpt lat="43.56055" lon="6.40002">
        <ele>445.2</ele>
        <time>2022-10-19T12:14:59Z</time>
      </trkpt>
      <trkpt lat="43.56059" lon="6.39998">
        <ele>445.6</ele>
        <time>2022-10-19T12:15:04Z</time>
      </trkpt>
      <trkpt lat="43.56064" lon="6.39995">
        <ele>446.4</ele>
        <time>2022-10-19T12:15:11Z</time>
      </trkpt>
      <trkpt lat="43.56068" lon="6.39992">
        <ele>447.1</ele>
        <time>2022-10-19T12:15:16Z</time>
      </trkpt>
      <trkpt lat="43.56073" lon="6.39987">
        <ele>448</ele>
        <time>2022-10-19T12:15:22Z</time>
      </trkpt>
      <trkpt lat="43.56078" lon="6.39987">
        <ele>450</ele>
        <time>2022-10-19T12:15:33Z</time>
      </trkpt>
      <trkpt lat="43.56083" lon="6.39988">
        <ele>451</ele>
        <time>2022-10-19T12:15:39Z</time>
      </trkpt>
      <trkpt lat="43.56088" lon="6.39988">
        <ele>452.4</ele>
        <time>2022-10-19T12:15:47Z</time>
      </trkpt>
      <trkpt lat="43.56093" lon="6.39988">
        <ele>453.2</ele>
        <time>2022-10-19T12:15:53Z</time>
      </trkpt>
      <trkpt lat="43.56098" lon="6.39988">
        <ele>454.2</ele>
        <time>2022-10-19T12:16:03Z</time>
      </trkpt>
      <trkpt lat="43.56103" lon="6.39987">
        <ele>454.7</ele>
        <time>2022-10-19T12:16:08Z</time>
      </trkpt>
      <trkpt lat="43.56107" lon="6.3999">
        <ele>455.4</ele>
        <time>2022-10-19T12:16:16Z</time>
      </trkpt>
      <trkpt lat="43.56113" lon="6.39991">
        <ele>455.9</ele>
        <time>2022-10-19T12:16:26Z</time>
      </trkpt>
      <trkpt lat="43.56117" lon="6.39993">
        <ele>456.7</ele>
        <time>2022-10-19T12:16:36Z</time>
      </trkpt>
      <trkpt lat="43.56122" lon="6.39995">
        <ele>457.1</ele>
        <time>2022-10-19T12:16:42Z</time>
      </trkpt>
      <trkpt lat="43.56126" lon="6.39999">
        <ele>457.3</ele>
        <time>2022-10-19T12:16:44Z</time>
      </trkpt>
      <trkpt lat="43.56131" lon="6.40004">
        <ele>457.7</ele>
        <time>2022-10-19T12:16:49Z</time>
      </trkpt>
      <trkpt lat="43.56136" lon="6.40004">
        <ele>457.9</ele>
        <time>2022-10-19T12:16:54Z</time>
      </trkpt>
      <trkpt lat="43.56139" lon="6.40009">
        <ele>458.3</ele>
        <time>2022-10-19T12:17:09Z</time>
      </trkpt>
      <trkpt lat="43.56144" lon="6.40007">
        <ele>458.7</ele>
        <time>2022-10-19T12:17:16Z</time>
      </trkpt>
      <trkpt lat="43.56149" lon="6.40007">
        <ele>459.3</ele>
        <time>2022-10-19T12:17:24Z</time>
      </trkpt>
      <trkpt lat="43.56154" lon="6.40005">
        <ele>459.7</ele>
        <time>2022-10-19T12:17:30Z</time>
      </trkpt>
      <trkpt lat="43.56158" lon="6.40008">
        <ele>460.2</ele>
        <time>2022-10-19T12:17:37Z</time>
      </trkpt>
      <trkpt lat="43.56163" lon="6.4001">
        <ele>461.4</ele>
        <time>2022-10-19T12:17:45Z</time>
      </trkpt>
      <trkpt lat="43.56166" lon="6.40014">
        <ele>462.4</ele>
        <time>2022-10-19T12:17:52Z</time>
      </trkpt>
      <trkpt lat="43.56171" lon="6.40015">
        <ele>462.9</ele>
        <time>2022-10-19T12:17:57Z</time>
      </trkpt>
      <trkpt lat="43.56176" lon="6.40016">
        <ele>463.7</ele>
        <time>2022-10-19T12:18:02Z</time>
      </trkpt>
      <trkpt lat="43.56181" lon="6.40017">
        <ele>464.3</ele>
        <time>2022-10-19T12:18:09Z</time>
      </trkpt>
      <trkpt lat="43.56186" lon="6.40021">
        <ele>464.7</ele>
        <time>2022-10-19T12:18:15Z</time>
      </trkpt>
      <trkpt lat="43.56191" lon="6.4002">
        <ele>465</ele>
        <time>2022-10-19T12:18:20Z</time>
      </trkpt>
      <trkpt lat="43.56196" lon="6.40023">
        <ele>465.7</ele>
        <time>2022-10-19T12:18:28Z</time>
      </trkpt>
      <trkpt lat="43.562" lon="6.40025">
        <ele>466.5</ele>
        <time>2022-10-19T12:18:36Z</time>
      </trkpt>
      <trkpt lat="43.56204" lon="6.4003">
        <ele>467.3</ele>
        <time>2022-10-19T12:18:44Z</time>
      </trkpt>
      <trkpt lat="43.56208" lon="6.40033">
        <ele>468.2</ele>
        <time>2022-10-19T12:18:50Z</time>
      </trkpt>
      <trkpt lat="43.56213" lon="6.40035">
        <ele>468.8</ele>
        <time>2022-10-19T12:18:57Z</time>
      </trkpt>
      <trkpt lat="43.56218" lon="6.40038">
        <ele>469.6</ele>
        <time>2022-10-19T12:19:04Z</time>
      </trkpt>
      <trkpt lat="43.56222" lon="6.40039">
        <ele>470</ele>
        <time>2022-10-19T12:19:08Z</time>
      </trkpt>
      <trkpt lat="43.56227" lon="6.40043">
        <ele>470.5</ele>
        <time>2022-10-19T12:19:14Z</time>
      </trkpt>
      <trkpt lat="43.56231" lon="6.40044">
        <ele>471.2</ele>
        <time>2022-10-19T12:19:19Z</time>
      </trkpt>
      <trkpt lat="43.56236" lon="6.40046">
        <ele>471.9</ele>
        <time>2022-10-19T12:19:25Z</time>
      </trkpt>
      <trkpt lat="43.5624" lon="6.40046">
        <ele>472.5</ele>
        <time>2022-10-19T12:19:30Z</time>
      </trkpt>
      <trkpt lat="43.56245" lon="6.40046">
        <ele>472.8</ele>
        <time>2022-10-19T12:19:33Z</time>
      </trkpt>
      <trkpt lat="43.5625" lon="6.40047">
        <ele>473.2</ele>
        <time>2022-10-19T12:19:37Z</time>
      </trkpt>
      <trkpt lat="43.56255" lon="6.40048">
        <ele>474</ele>
        <time>2022-10-19T12:19:45Z</time>
      </trkpt>
      <trkpt lat="43.5626" lon="6.40047">
        <ele>474.5</ele>
        <time>2022-10-19T12:19:50Z</time>
      </trkpt>
      <trkpt lat="43.56265" lon="6.40045">
        <ele>475.2</ele>
        <time>2022-10-19T12:19:57Z</time>
      </trkpt>
      <trkpt lat="43.5627" lon="6.40044">
        <ele>475.5</ele>
        <time>2022-10-19T12:20:01Z</time>
      </trkpt>
      <trkpt lat="43.56274" lon="6.40042">
        <ele>476</ele>
        <time>2022-10-19T12:20:07Z</time>
      </trkpt>
      <trkpt lat="43.56279" lon="6.40041">
        <ele>476.6</ele>
        <time>2022-10-19T12:20:12Z</time>
      </trkpt>
      <trkpt lat="43.56284" lon="6.40038">
        <ele>477.1</ele>
        <time>2022-10-19T12:20:17Z</time>
      </trkpt>
      <trkpt lat="43.56289" lon="6.40036">
        <ele>477.8</ele>
        <time>2022-10-19T12:20:24Z</time>
      </trkpt>
      <trkpt lat="43.56294" lon="6.40035">
        <ele>478.3</ele>
        <time>2022-10-19T12:20:32Z</time>
      </trkpt>
      <trkpt lat="43.56298" lon="6.40034">
        <ele>478.7</ele>
        <time>2022-10-19T12:20:36Z</time>
      </trkpt>
      <trkpt lat="43.56303" lon="6.4003">
        <ele>478.9</ele>
        <time>2022-10-19T12:20:39Z</time>
      </trkpt>
      <trkpt lat="43.56309" lon="6.40024">
        <ele>479.1</ele>
        <time>2022-10-19T12:20:43Z</time>
      </trkpt>
      <trkpt lat="43.56313" lon="6.40021">
        <ele>479.5</ele>
        <time>2022-10-19T12:20:47Z</time>
      </trkpt>
      <trkpt lat="43.56318" lon="6.40017">
        <ele>479.9</ele>
        <time>2022-10-19T12:20:53Z</time>
      </trkpt>
      <trkpt lat="43.56323" lon="6.40015">
        <ele>480.2</ele>
        <time>2022-10-19T12:20:58Z</time>
      </trkpt>
      <trkpt lat="43.56328" lon="6.40015">
        <ele>480.9</ele>
        <time>2022-10-19T12:21:05Z</time>
      </trkpt>
      <trkpt lat="43.56333" lon="6.40009">
        <ele>481.4</ele>
        <time>2022-10-19T12:21:14Z</time>
      </trkpt>
      <trkpt lat="43.56337" lon="6.40006">
        <ele>482</ele>
        <time>2022-10-19T12:21:20Z</time>
      </trkpt>
      <trkpt lat="43.56343" lon="6.40001">
        <ele>482.3</ele>
        <time>2022-10-19T12:21:24Z</time>
      </trkpt>
      <trkpt lat="43.56348" lon="6.39996">
        <ele>482.8</ele>
        <time>2022-10-19T12:21:29Z</time>
      </trkpt>
      <trkpt lat="43.56353" lon="6.39992">
        <ele>483.1</ele>
        <time>2022-10-19T12:21:33Z</time>
      </trkpt>
      <trkpt lat="43.56356" lon="6.39988">
        <ele>483.4</ele>
        <time>2022-10-19T12:21:36Z</time>
      </trkpt>
      <trkpt lat="43.5636" lon="6.39983">
        <ele>483.8</ele>
        <time>2022-10-19T12:21:42Z</time>
      </trkpt>
      <trkpt lat="43.56364" lon="6.39979">
        <ele>484.1</ele>
        <time>2022-10-19T12:21:46Z</time>
      </trkpt>
      <trkpt lat="43.56368" lon="6.39976">
        <ele>484.6</ele>
        <time>2022-10-19T12:21:53Z</time>
      </trkpt>
      <trkpt lat="43.56372" lon="6.39971">
        <ele>485</ele>
        <time>2022-10-19T12:21:59Z</time>
      </trkpt>
      <trkpt lat="43.56377" lon="6.39968">
        <ele>485.4</ele>
        <time>2022-10-19T12:22:05Z</time>
      </trkpt>
      <trkpt lat="43.5638" lon="6.39963">
        <ele>485.7</ele>
        <time>2022-10-19T12:22:09Z</time>
      </trkpt>
      <trkpt lat="43.56385" lon="6.39961">
        <ele>486</ele>
        <time>2022-10-19T12:22:15Z</time>
      </trkpt>
      <trkpt lat="43.56389" lon="6.39956">
        <ele>486.3</ele>
        <time>2022-10-19T12:22:19Z</time>
      </trkpt>
      <trkpt lat="43.56393" lon="6.39953">
        <ele>486.6</ele>
        <time>2022-10-19T12:22:24Z</time>
      </trkpt>
      <trkpt lat="43.56398" lon="6.39949">
        <ele>487.1</ele>
        <time>2022-10-19T12:22:29Z</time>
      </trkpt>
      <trkpt lat="43.56402" lon="6.39945">
        <ele>487.3</ele>
        <time>2022-10-19T12:22:35Z</time>
      </trkpt>
      <trkpt lat="43.56406" lon="6.39939">
        <ele>487.9</ele>
        <time>2022-10-19T12:22:41Z</time>
      </trkpt>
      <trkpt lat="43.56409" lon="6.39933">
        <ele>488.2</ele>
        <time>2022-10-19T12:22:46Z</time>
      </trkpt>
      <trkpt lat="43.56411" lon="6.39928">
        <ele>488.6</ele>
        <time>2022-10-19T12:22:51Z</time>
      </trkpt>
      <trkpt lat="43.56414" lon="6.39923">
        <ele>488.8</ele>
        <time>2022-10-19T12:22:55Z</time>
      </trkpt>
      <trkpt lat="43.56417" lon="6.39917">
        <ele>488.9</ele>
        <time>2022-10-19T12:22:59Z</time>
      </trkpt>
      <trkpt lat="43.56421" lon="6.3991">
        <ele>489.3</ele>
        <time>2022-10-19T12:23:05Z</time>
      </trkpt>
      <trkpt lat="43.56423" lon="6.39905">
        <ele>489.6</ele>
        <time>2022-10-19T12:23:10Z</time>
      </trkpt>
      <trkpt lat="43.56425" lon="6.39898">
        <ele>489.9</ele>
        <time>2022-10-19T12:23:16Z</time>
      </trkpt>
      <trkpt lat="43.56427" lon="6.39891">
        <ele>490.2</ele>
        <time>2022-10-19T12:23:22Z</time>
      </trkpt>
      <trkpt lat="43.56429" lon="6.39884">
        <ele>490.4</ele>
        <time>2022-10-19T12:23:26Z</time>
      </trkpt>
      <trkpt lat="43.56431" lon="6.39876">
        <ele>490.6</ele>
        <time>2022-10-19T12:23:31Z</time>
      </trkpt>
      <trkpt lat="43.56433" lon="6.3987">
        <ele>490.9</ele>
        <time>2022-10-19T12:23:36Z</time>
      </trkpt>
      <trkpt lat="43.56434" lon="6.39863">
        <ele>491.3</ele>
        <time>2022-10-19T12:23:41Z</time>
      </trkpt>
      <trkpt lat="43.56436" lon="6.39856">
        <ele>491.7</ele>
        <time>2022-10-19T12:23:47Z</time>
      </trkpt>
      <trkpt lat="43.56442" lon="6.39851">
        <ele>491.9</ele>
        <time>2022-10-19T12:23:53Z</time>
      </trkpt>
      <trkpt lat="43.56443" lon="6.39845">
        <ele>492.1</ele>
        <time>2022-10-19T12:23:56Z</time>
      </trkpt>
      <trkpt lat="43.56444" lon="6.39839">
        <ele>492.2</ele>
        <time>2022-10-19T12:24:00Z</time>
      </trkpt>
      <trkpt lat="43.56446" lon="6.39833">
        <ele>492.5</ele>
        <time>2022-10-19T12:24:06Z</time>
      </trkpt>
      <trkpt lat="43.56449" lon="6.39828">
        <ele>493.1</ele>
        <time>2022-10-19T12:24:14Z</time>
      </trkpt>
      <trkpt lat="43.56454" lon="6.39822">
        <ele>493.2</ele>
        <time>2022-10-19T12:24:17Z</time>
      </trkpt>
      <trkpt lat="43.56456" lon="6.39816">
        <ele>493.4</ele>
        <time>2022-10-19T12:24:22Z</time>
      </trkpt>
      <trkpt lat="43.5646" lon="6.39813">
        <ele>493.5</ele>
        <time>2022-10-19T12:24:29Z</time>
      </trkpt>
      <trkpt lat="43.56464" lon="6.39808">
        <ele>494</ele>
        <time>2022-10-19T12:24:35Z</time>
      </trkpt>
      <trkpt lat="43.56469" lon="6.39805">
        <ele>494.5</ele>
        <time>2022-10-19T12:24:40Z</time>
      </trkpt>
      <trkpt lat="43.56472" lon="6.398">
        <ele>494.9</ele>
        <time>2022-10-19T12:24:46Z</time>
      </trkpt>
      <trkpt lat="43.56476" lon="6.39797">
        <ele>495.4</ele>
        <time>2022-10-19T12:24:53Z</time>
      </trkpt>
      <trkpt lat="43.56481" lon="6.39793">
        <ele>496</ele>
        <time>2022-10-19T12:25:02Z</time>
      </trkpt>
      <trkpt lat="43.56486" lon="6.39789">
        <ele>496.7</ele>
        <time>2022-10-19T12:25:07Z</time>
      </trkpt>
      <trkpt lat="43.56489" lon="6.39784">
        <ele>497.1</ele>
        <time>2022-10-19T12:25:11Z</time>
      </trkpt>
      <trkpt lat="43.56493" lon="6.39781">
        <ele>497.3</ele>
        <time>2022-10-19T12:25:16Z</time>
      </trkpt>
      <trkpt lat="43.56497" lon="6.39778">
        <ele>497.7</ele>
        <time>2022-10-19T12:25:24Z</time>
      </trkpt>
      <trkpt lat="43.56501" lon="6.39774">
        <ele>498.1</ele>
        <time>2022-10-19T12:25:30Z</time>
      </trkpt>
      <trkpt lat="43.56506" lon="6.39772">
        <ele>498.6</ele>
        <time>2022-10-19T12:25:36Z</time>
      </trkpt>
      <trkpt lat="43.5651" lon="6.39767">
        <ele>499.1</ele>
        <time>2022-10-19T12:25:41Z</time>
      </trkpt>
      <trkpt lat="43.56515" lon="6.39762">
        <ele>499.8</ele>
        <time>2022-10-19T12:25:46Z</time>
      </trkpt>
      <trkpt lat="43.56518" lon="6.39757">
        <ele>500.3</ele>
        <time>2022-10-19T12:25:51Z</time>
      </trkpt>
      <trkpt lat="43.56522" lon="6.39754">
        <ele>500.7</ele>
        <time>2022-10-19T12:25:56Z</time>
      </trkpt>
      <trkpt lat="43.56526" lon="6.39751">
        <ele>501.2</ele>
        <time>2022-10-19T12:26:01Z</time>
      </trkpt>
      <trkpt lat="43.56531" lon="6.39747">
        <ele>501.4</ele>
        <time>2022-10-19T12:26:04Z</time>
      </trkpt>
      <trkpt lat="43.56535" lon="6.39744">
        <ele>501.7</ele>
        <time>2022-10-19T12:26:09Z</time>
      </trkpt>
      <trkpt lat="43.56539" lon="6.39741">
        <ele>502.1</ele>
        <time>2022-10-19T12:26:13Z</time>
      </trkpt>
      <trkpt lat="43.56544" lon="6.39738">
        <ele>502.5</ele>
        <time>2022-10-19T12:26:17Z</time>
      </trkpt>
      <trkpt lat="43.56547" lon="6.39734">
        <ele>503</ele>
        <time>2022-10-19T12:26:22Z</time>
      </trkpt>
      <trkpt lat="43.56552" lon="6.3973">
        <ele>503.5</ele>
        <time>2022-10-19T12:26:27Z</time>
      </trkpt>
      <trkpt lat="43.56556" lon="6.39726">
        <ele>504</ele>
        <time>2022-10-19T12:26:34Z</time>
      </trkpt>
      <trkpt lat="43.56561" lon="6.39721">
        <ele>504.4</ele>
        <time>2022-10-19T12:26:39Z</time>
      </trkpt>
      <trkpt lat="43.56566" lon="6.39717">
        <ele>505.4</ele>
        <time>2022-10-19T12:26:46Z</time>
      </trkpt>
      <trkpt lat="43.56571" lon="6.39714">
        <ele>505.8</ele>
        <time>2022-10-19T12:26:51Z</time>
      </trkpt>
      <trkpt lat="43.56574" lon="6.39709">
        <ele>506.5</ele>
        <time>2022-10-19T12:26:56Z</time>
      </trkpt>
      <trkpt lat="43.56579" lon="6.39706">
        <ele>507</ele>
        <time>2022-10-19T12:27:02Z</time>
      </trkpt>
      <trkpt lat="43.56583" lon="6.39703">
        <ele>507.7</ele>
        <time>2022-10-19T12:27:08Z</time>
      </trkpt>
      <trkpt lat="43.56586" lon="6.39699">
        <ele>508.1</ele>
        <time>2022-10-19T12:27:12Z</time>
      </trkpt>
      <trkpt lat="43.56591" lon="6.39695">
        <ele>508.6</ele>
        <time>2022-10-19T12:27:17Z</time>
      </trkpt>
      <trkpt lat="43.56596" lon="6.3969">
        <ele>508.8</ele>
        <time>2022-10-19T12:27:21Z</time>
      </trkpt>
      <trkpt lat="43.56599" lon="6.39685">
        <ele>509.2</ele>
        <time>2022-10-19T12:27:27Z</time>
      </trkpt>
      <trkpt lat="43.56603" lon="6.39681">
        <ele>509.6</ele>
        <time>2022-10-19T12:27:32Z</time>
      </trkpt>
      <trkpt lat="43.56607" lon="6.39677">
        <ele>510.2</ele>
        <time>2022-10-19T12:27:38Z</time>
      </trkpt>
      <trkpt lat="43.56611" lon="6.39671">
        <ele>510.5</ele>
        <time>2022-10-19T12:27:41Z</time>
      </trkpt>
      <trkpt lat="43.56614" lon="6.39665">
        <ele>510.8</ele>
        <time>2022-10-19T12:27:45Z</time>
      </trkpt>
      <trkpt lat="43.56618" lon="6.39659">
        <ele>511.1</ele>
        <time>2022-10-19T12:27:49Z</time>
      </trkpt>
      <trkpt lat="43.56621" lon="6.39655">
        <ele>511.4</ele>
        <time>2022-10-19T12:27:54Z</time>
      </trkpt>
      <trkpt lat="43.56625" lon="6.39651">
        <ele>511.7</ele>
        <time>2022-10-19T12:27:58Z</time>
      </trkpt>
      <trkpt lat="43.5663" lon="6.39647">
        <ele>512.2</ele>
        <time>2022-10-19T12:28:04Z</time>
      </trkpt>
      <trkpt lat="43.56634" lon="6.39643">
        <ele>512.6</ele>
        <time>2022-10-19T12:28:10Z</time>
      </trkpt>
      <trkpt lat="43.56638" lon="6.39639">
        <ele>512.9</ele>
        <time>2022-10-19T12:28:14Z</time>
      </trkpt>
      <trkpt lat="43.56641" lon="6.39634">
        <ele>513.4</ele>
        <time>2022-10-19T12:28:20Z</time>
      </trkpt>
      <trkpt lat="43.56645" lon="6.39628">
        <ele>513.9</ele>
        <time>2022-10-19T12:28:24Z</time>
      </trkpt>
      <trkpt lat="43.5665" lon="6.39622">
        <ele>514.5</ele>
        <time>2022-10-19T12:28:31Z</time>
      </trkpt>
      <trkpt lat="43.56653" lon="6.39617">
        <ele>515.1</ele>
        <time>2022-10-19T12:28:36Z</time>
      </trkpt>
      <trkpt lat="43.56656" lon="6.39612">
        <ele>515.3</ele>
        <time>2022-10-19T12:28:40Z</time>
      </trkpt>
      <trkpt lat="43.5666" lon="6.39605">
        <ele>515.6</ele>
        <time>2022-10-19T12:28:44Z</time>
      </trkpt>
      <trkpt lat="43.56663" lon="6.396">
        <ele>516</ele>
        <time>2022-10-19T12:28:51Z</time>
      </trkpt>
      <trkpt lat="43.56666" lon="6.39593">
        <ele>516.7</ele>
        <time>2022-10-19T12:28:57Z</time>
      </trkpt>
      <trkpt lat="43.56667" lon="6.39587">
        <ele>517.5</ele>
        <time>2022-10-19T12:29:05Z</time>
      </trkpt>
      <trkpt lat="43.56671" lon="6.39582">
        <ele>518</ele>
        <time>2022-10-19T12:29:09Z</time>
      </trkpt>
      <trkpt lat="43.56674" lon="6.39578">
        <ele>518.4</ele>
        <time>2022-10-19T12:29:14Z</time>
      </trkpt>
      <trkpt lat="43.56676" lon="6.39572">
        <ele>518.9</ele>
        <time>2022-10-19T12:29:19Z</time>
      </trkpt>
      <trkpt lat="43.5668" lon="6.39567">
        <ele>519.3</ele>
        <time>2022-10-19T12:29:24Z</time>
      </trkpt>
      <trkpt lat="43.56683" lon="6.39562">
        <ele>519.9</ele>
        <time>2022-10-19T12:29:29Z</time>
      </trkpt>
      <trkpt lat="43.56685" lon="6.39556">
        <ele>520.4</ele>
        <time>2022-10-19T12:29:38Z</time>
      </trkpt>
      <trkpt lat="43.56687" lon="6.3955">
        <ele>521.1</ele>
        <time>2022-10-19T12:29:51Z</time>
      </trkpt>
      <trkpt lat="43.56687" lon="6.39543">
        <ele>521.4</ele>
        <time>2022-10-19T12:30:22Z</time>
      </trkpt>
      <trkpt lat="43.56687" lon="6.39537">
        <ele>521.6</ele>
        <time>2022-10-19T12:30:44Z</time>
      </trkpt>
      <trkpt lat="43.56689" lon="6.39532">
        <ele>522</ele>
        <time>2022-10-19T12:30:58Z</time>
      </trkpt>
      <trkpt lat="43.56694" lon="6.39529">
        <ele>522.6</ele>
        <time>2022-10-19T12:31:04Z</time>
      </trkpt>
      <trkpt lat="43.56699" lon="6.39527">
        <ele>523.2</ele>
        <time>2022-10-19T12:31:08Z</time>
      </trkpt>
      <trkpt lat="43.56703" lon="6.39526">
        <ele>523.5</ele>
        <time>2022-10-19T12:31:15Z</time>
      </trkpt>
      <trkpt lat="43.56709" lon="6.39524">
        <ele>523.9</ele>
        <time>2022-10-19T12:31:19Z</time>
      </trkpt>
      <trkpt lat="43.56713" lon="6.39521">
        <ele>524.4</ele>
        <time>2022-10-19T12:31:24Z</time>
      </trkpt>
      <trkpt lat="43.56718" lon="6.39524">
        <ele>524.9</ele>
        <time>2022-10-19T12:31:30Z</time>
      </trkpt>
      <trkpt lat="43.56722" lon="6.39521">
        <ele>525.2</ele>
        <time>2022-10-19T12:31:34Z</time>
      </trkpt>
      <trkpt lat="43.56727" lon="6.39519">
        <ele>525.4</ele>
        <time>2022-10-19T12:31:37Z</time>
      </trkpt>
      <trkpt lat="43.56732" lon="6.39516">
        <ele>525.9</ele>
        <time>2022-10-19T12:31:41Z</time>
      </trkpt>
      <trkpt lat="43.56736" lon="6.39513">
        <ele>526.3</ele>
        <time>2022-10-19T12:31:46Z</time>
      </trkpt>
      <trkpt lat="43.5674" lon="6.39509">
        <ele>526.5</ele>
        <time>2022-10-19T12:31:50Z</time>
      </trkpt>
      <trkpt lat="43.56746" lon="6.39502">
        <ele>526.8</ele>
        <time>2022-10-19T12:31:52Z</time>
      </trkpt>
      <trkpt lat="43.56747" lon="6.39495">
        <ele>527</ele>
        <time>2022-10-19T12:31:55Z</time>
      </trkpt>
      <trkpt lat="43.56743" lon="6.39493">
        <ele>527.2</ele>
        <time>2022-10-19T12:32:07Z</time>
      </trkpt>
      <trkpt lat="43.56748" lon="6.39493">
        <ele>527.7</ele>
        <time>2022-10-19T12:33:08Z</time>
      </trkpt>
      <trkpt lat="43.56752" lon="6.3949">
        <ele>528</ele>
        <time>2022-10-19T12:33:13Z</time>
      </trkpt>
      <trkpt lat="43.56756" lon="6.39486">
        <ele>528.4</ele>
        <time>2022-10-19T12:33:18Z</time>
      </trkpt>
      <trkpt lat="43.56762" lon="6.39483">
        <ele>529</ele>
        <time>2022-10-19T12:33:24Z</time>
      </trkpt>
      <trkpt lat="43.56766" lon="6.3948">
        <ele>529.3</ele>
        <time>2022-10-19T12:33:29Z</time>
      </trkpt>
      <trkpt lat="43.5677" lon="6.39478">
        <ele>529.9</ele>
        <time>2022-10-19T12:33:34Z</time>
      </trkpt>
      <trkpt lat="43.56775" lon="6.39476">
        <ele>530.8</ele>
        <time>2022-10-19T12:33:41Z</time>
      </trkpt>
      <trkpt lat="43.5678" lon="6.39478">
        <ele>531.8</ele>
        <time>2022-10-19T12:33:50Z</time>
      </trkpt>
      <trkpt lat="43.56783" lon="6.39483">
        <ele>532.5</ele>
        <time>2022-10-19T12:33:57Z</time>
      </trkpt>
      <trkpt lat="43.56786" lon="6.39488">
        <ele>533.1</ele>
        <time>2022-10-19T12:34:03Z</time>
      </trkpt>
      <trkpt lat="43.56791" lon="6.39488">
        <ele>533.8</ele>
        <time>2022-10-19T12:34:15Z</time>
      </trkpt>
      <trkpt lat="43.56795" lon="6.39491">
        <ele>534.3</ele>
        <time>2022-10-19T12:34:22Z</time>
      </trkpt>
      <trkpt lat="43.56799" lon="6.39494">
        <ele>535</ele>
        <time>2022-10-19T12:34:30Z</time>
      </trkpt>
      <trkpt lat="43.56804" lon="6.39498">
        <ele>535.5</ele>
        <time>2022-10-19T12:34:36Z</time>
      </trkpt>
      <trkpt lat="43.56807" lon="6.39503">
        <ele>536.3</ele>
        <time>2022-10-19T12:34:43Z</time>
      </trkpt>
      <trkpt lat="43.56811" lon="6.39507">
        <ele>537</ele>
        <time>2022-10-19T12:34:51Z</time>
      </trkpt>
      <trkpt lat="43.56815" lon="6.39509">
        <ele>537.9</ele>
        <time>2022-10-19T12:34:58Z</time>
      </trkpt>
      <trkpt lat="43.5682" lon="6.39513">
        <ele>538.6</ele>
        <time>2022-10-19T12:35:04Z</time>
      </trkpt>
      <trkpt lat="43.56825" lon="6.39516">
        <ele>539.3</ele>
        <time>2022-10-19T12:35:11Z</time>
      </trkpt>
      <trkpt lat="43.56827" lon="6.39521">
        <ele>539.8</ele>
        <time>2022-10-19T12:35:16Z</time>
      </trkpt>
      <trkpt lat="43.56832" lon="6.39524">
        <ele>540.5</ele>
        <time>2022-10-19T12:35:22Z</time>
      </trkpt>
      <trkpt lat="43.56835" lon="6.39529">
        <ele>541.3</ele>
        <time>2022-10-19T12:35:28Z</time>
      </trkpt>
      <trkpt lat="43.56839" lon="6.39532">
        <ele>542</ele>
        <time>2022-10-19T12:35:34Z</time>
      </trkpt>
      <trkpt lat="43.56843" lon="6.39533">
        <ele>543.2</ele>
        <time>2022-10-19T12:35:43Z</time>
      </trkpt>
      <trkpt lat="43.56848" lon="6.39535">
        <ele>543.7</ele>
        <time>2022-10-19T12:35:48Z</time>
      </trkpt>
      <trkpt lat="43.56851" lon="6.39539">
        <ele>544.1</ele>
        <time>2022-10-19T12:35:53Z</time>
      </trkpt>
      <trkpt lat="43.56856" lon="6.39543">
        <ele>544.7</ele>
        <time>2022-10-19T12:35:59Z</time>
      </trkpt>
      <trkpt lat="43.56861" lon="6.39546">
        <ele>545.4</ele>
        <time>2022-10-19T12:36:06Z</time>
      </trkpt>
      <trkpt lat="43.56866" lon="6.39544">
        <ele>546.3</ele>
        <time>2022-10-19T12:36:13Z</time>
      </trkpt>
      <trkpt lat="43.56872" lon="6.39545">
        <ele>546.9</ele>
        <time>2022-10-19T12:36:20Z</time>
      </trkpt>
      <trkpt lat="43.56876" lon="6.39549">
        <ele>547.4</ele>
        <time>2022-10-19T12:36:25Z</time>
      </trkpt>
      <trkpt lat="43.56881" lon="6.39553">
        <ele>547.9</ele>
        <time>2022-10-19T12:36:29Z</time>
      </trkpt>
      <trkpt lat="43.56886" lon="6.39554">
        <ele>548.7</ele>
        <time>2022-10-19T12:36:36Z</time>
      </trkpt>
      <trkpt lat="43.56891" lon="6.39557">
        <ele>549.3</ele>
        <time>2022-10-19T12:36:42Z</time>
      </trkpt>
      <trkpt lat="43.56896" lon="6.39559">
        <ele>550.1</ele>
        <time>2022-10-19T12:36:49Z</time>
      </trkpt>
      <trkpt lat="43.56901" lon="6.3956">
        <ele>550.7</ele>
        <time>2022-10-19T12:36:54Z</time>
      </trkpt>
      <trkpt lat="43.56906" lon="6.39561">
        <ele>551.4</ele>
        <time>2022-10-19T12:36:59Z</time>
      </trkpt>
      <trkpt lat="43.56911" lon="6.39563">
        <ele>552</ele>
        <time>2022-10-19T12:37:05Z</time>
      </trkpt>
      <trkpt lat="43.56915" lon="6.39566">
        <ele>552.7</ele>
        <time>2022-10-19T12:37:11Z</time>
      </trkpt>
      <trkpt lat="43.5692" lon="6.39569">
        <ele>553.3</ele>
        <time>2022-10-19T12:37:18Z</time>
      </trkpt>
      <trkpt lat="43.56925" lon="6.39572">
        <ele>554.1</ele>
        <time>2022-10-19T12:37:24Z</time>
      </trkpt>
      <trkpt lat="43.56931" lon="6.39571">
        <ele>555</ele>
        <time>2022-10-19T12:37:32Z</time>
      </trkpt>
      <trkpt lat="43.56935" lon="6.39574">
        <ele>555.7</ele>
        <time>2022-10-19T12:37:38Z</time>
      </trkpt>
      <trkpt lat="43.5694" lon="6.39575">
        <ele>556.5</ele>
        <time>2022-10-19T12:37:44Z</time>
      </trkpt>
      <trkpt lat="43.56945" lon="6.39576">
        <ele>557</ele>
        <time>2022-10-19T12:37:48Z</time>
      </trkpt>
      <trkpt lat="43.56949" lon="6.3958">
        <ele>557.8</ele>
        <time>2022-10-19T12:37:53Z</time>
      </trkpt>
      <trkpt lat="43.56954" lon="6.39581">
        <ele>558.8</ele>
        <time>2022-10-19T12:38:02Z</time>
      </trkpt>
      <trkpt lat="43.56958" lon="6.39584">
        <ele>559.4</ele>
        <time>2022-10-19T12:38:08Z</time>
      </trkpt>
      <trkpt lat="43.56961" lon="6.3959">
        <ele>559.8</ele>
        <time>2022-10-19T12:38:12Z</time>
      </trkpt>
      <trkpt lat="43.56966" lon="6.39592">
        <ele>560.1</ele>
        <time>2022-10-19T12:38:18Z</time>
      </trkpt>
      <trkpt lat="43.56969" lon="6.39596">
        <ele>560.5</ele>
        <time>2022-10-19T12:38:24Z</time>
      </trkpt>
      <trkpt lat="43.56974" lon="6.39597">
        <ele>560.9</ele>
        <time>2022-10-19T12:38:30Z</time>
      </trkpt>
      <trkpt lat="43.56979" lon="6.39597">
        <ele>561.3</ele>
        <time>2022-10-19T12:38:35Z</time>
      </trkpt>
      <trkpt lat="43.56983" lon="6.39595">
        <ele>561.8</ele>
        <time>2022-10-19T12:38:39Z</time>
      </trkpt>
      <trkpt lat="43.56989" lon="6.39595">
        <ele>562.4</ele>
        <time>2022-10-19T12:38:44Z</time>
      </trkpt>
      <trkpt lat="43.56994" lon="6.39595">
        <ele>563.3</ele>
        <time>2022-10-19T12:38:50Z</time>
      </trkpt>
      <trkpt lat="43.57" lon="6.39594">
        <ele>564</ele>
        <time>2022-10-19T12:38:54Z</time>
      </trkpt>
      <trkpt lat="43.57005" lon="6.39596">
        <ele>564.7</ele>
        <time>2022-10-19T12:38:59Z</time>
      </trkpt>
      <trkpt lat="43.57008" lon="6.396">
        <ele>565.1</ele>
        <time>2022-10-19T12:39:03Z</time>
      </trkpt>
      <trkpt lat="43.57012" lon="6.39603">
        <ele>565.9</ele>
        <time>2022-10-19T12:39:11Z</time>
      </trkpt>
      <trkpt lat="43.57017" lon="6.39606">
        <ele>566.6</ele>
        <time>2022-10-19T12:39:16Z</time>
      </trkpt>
      <trkpt lat="43.57021" lon="6.39605">
        <ele>567.2</ele>
        <time>2022-10-19T12:39:21Z</time>
      </trkpt>
      <trkpt lat="43.57026" lon="6.39606">
        <ele>567.9</ele>
        <time>2022-10-19T12:39:26Z</time>
      </trkpt>
      <trkpt lat="43.57031" lon="6.39608">
        <ele>568.5</ele>
        <time>2022-10-19T12:39:32Z</time>
      </trkpt>
      <trkpt lat="43.57034" lon="6.39613">
        <ele>569</ele>
        <time>2022-10-19T12:39:37Z</time>
      </trkpt>
      <trkpt lat="43.57036" lon="6.39607">
        <ele>569.7</ele>
        <time>2022-10-19T12:41:23Z</time>
      </trkpt>
      <trkpt lat="43.5704" lon="6.39611">
        <ele>570</ele>
        <time>2022-10-19T12:42:06Z</time>
      </trkpt>
      <trkpt lat="43.57044" lon="6.39614">
        <ele>570.5</ele>
        <time>2022-10-19T12:42:15Z</time>
      </trkpt>
      <trkpt lat="43.57049" lon="6.39613">
        <ele>571.3</ele>
        <time>2022-10-19T12:42:26Z</time>
      </trkpt>
      <trkpt lat="43.57054" lon="6.39611">
        <ele>571.9</ele>
        <time>2022-10-19T12:42:37Z</time>
      </trkpt>
      <trkpt lat="43.57059" lon="6.39608">
        <ele>572.2</ele>
        <time>2022-10-19T12:42:43Z</time>
      </trkpt>
      <trkpt lat="43.57064" lon="6.39605">
        <ele>572.8</ele>
        <time>2022-10-19T12:42:49Z</time>
      </trkpt>
      <trkpt lat="43.57068" lon="6.39601">
        <ele>573.5</ele>
        <time>2022-10-19T12:42:55Z</time>
      </trkpt>
      <trkpt lat="43.57072" lon="6.39596">
        <ele>574.3</ele>
        <time>2022-10-19T12:43:01Z</time>
      </trkpt>
      <trkpt lat="43.57076" lon="6.39593">
        <ele>575.6</ele>
        <time>2022-10-19T12:43:10Z</time>
      </trkpt>
      <trkpt lat="43.57081" lon="6.39589">
        <ele>576.3</ele>
        <time>2022-10-19T12:43:18Z</time>
      </trkpt>
      <trkpt lat="43.57086" lon="6.39585">
        <ele>576.9</ele>
        <time>2022-10-19T12:43:22Z</time>
      </trkpt>
      <trkpt lat="43.57089" lon="6.39581">
        <ele>577.6</ele>
        <time>2022-10-19T12:43:28Z</time>
      </trkpt>
      <trkpt lat="43.57094" lon="6.3958">
        <ele>578.3</ele>
        <time>2022-10-19T12:43:35Z</time>
      </trkpt>
      <trkpt lat="43.57098" lon="6.3958">
        <ele>579.3</ele>
        <time>2022-10-19T12:43:42Z</time>
      </trkpt>
      <trkpt lat="43.57103" lon="6.39577">
        <ele>579.8</ele>
        <time>2022-10-19T12:43:47Z</time>
      </trkpt>
      <trkpt lat="43.57108" lon="6.39575">
        <ele>580.8</ele>
        <time>2022-10-19T12:43:54Z</time>
      </trkpt>
      <trkpt lat="43.57112" lon="6.39572">
        <ele>581.2</ele>
        <time>2022-10-19T12:44:00Z</time>
      </trkpt>
      <trkpt lat="43.57116" lon="6.39567">
        <ele>581.9</ele>
        <time>2022-10-19T12:44:06Z</time>
      </trkpt>
      <trkpt lat="43.57121" lon="6.39565">
        <ele>582.2</ele>
        <time>2022-10-19T12:44:11Z</time>
      </trkpt>
      <trkpt lat="43.57125" lon="6.3956">
        <ele>582.6</ele>
        <time>2022-10-19T12:44:15Z</time>
      </trkpt>
      <trkpt lat="43.5713" lon="6.39558">
        <ele>583.1</ele>
        <time>2022-10-19T12:44:19Z</time>
      </trkpt>
      <trkpt lat="43.57135" lon="6.39557">
        <ele>583.6</ele>
        <time>2022-10-19T12:44:24Z</time>
      </trkpt>
      <trkpt lat="43.57141" lon="6.39553">
        <ele>584.3</ele>
        <time>2022-10-19T12:44:28Z</time>
      </trkpt>
      <trkpt lat="43.57145" lon="6.3955">
        <ele>584.7</ele>
        <time>2022-10-19T12:44:32Z</time>
      </trkpt>
      <trkpt lat="43.5715" lon="6.39549">
        <ele>585.1</ele>
        <time>2022-10-19T12:44:36Z</time>
      </trkpt>
      <trkpt lat="43.57155" lon="6.39547">
        <ele>585.3</ele>
        <time>2022-10-19T12:44:40Z</time>
      </trkpt>
      <trkpt lat="43.5716" lon="6.39545">
        <ele>585.7</ele>
        <time>2022-10-19T12:44:46Z</time>
      </trkpt>
      <trkpt lat="43.57164" lon="6.39543">
        <ele>585.9</ele>
        <time>2022-10-19T12:44:49Z</time>
      </trkpt>
      <trkpt lat="43.57169" lon="6.3954">
        <ele>586</ele>
        <time>2022-10-19T12:44:54Z</time>
      </trkpt>
      <trkpt lat="43.57173" lon="6.39539">
        <ele>586.2</ele>
        <time>2022-10-19T12:44:59Z</time>
      </trkpt>
      <trkpt lat="43.57178" lon="6.39536">
        <ele>586.6</ele>
        <time>2022-10-19T12:45:04Z</time>
      </trkpt>
      <trkpt lat="43.57182" lon="6.39532">
        <ele>586.9</ele>
        <time>2022-10-19T12:45:09Z</time>
      </trkpt>
      <trkpt lat="43.57188" lon="6.39528">
        <ele>587.1</ele>
        <time>2022-10-19T12:45:14Z</time>
      </trkpt>
      <trkpt lat="43.57192" lon="6.39525">
        <ele>587.2</ele>
        <time>2022-10-19T12:45:17Z</time>
      </trkpt>
      <trkpt lat="43.57197" lon="6.39522">
        <ele>587.4</ele>
        <time>2022-10-19T12:45:22Z</time>
      </trkpt>
      <trkpt lat="43.57202" lon="6.39519">
        <ele>587.8</ele>
        <time>2022-10-19T12:45:28Z</time>
      </trkpt>
      <trkpt lat="43.57206" lon="6.39515">
        <ele>588</ele>
        <time>2022-10-19T12:45:32Z</time>
      </trkpt>
      <trkpt lat="43.57211" lon="6.39512">
        <ele>588.4</ele>
        <time>2022-10-19T12:45:37Z</time>
      </trkpt>
      <trkpt lat="43.57216" lon="6.39509">
        <ele>588.7</ele>
        <time>2022-10-19T12:45:42Z</time>
      </trkpt>
      <trkpt lat="43.57221" lon="6.39507">
        <ele>588.5</ele>
        <time>2022-10-19T12:45:47Z</time>
      </trkpt>
      <trkpt lat="43.57225" lon="6.39504">
        <ele>588.5</ele>
        <time>2022-10-19T12:45:52Z</time>
      </trkpt>
      <trkpt lat="43.57231" lon="6.395">
        <ele>588.5</ele>
        <time>2022-10-19T12:45:57Z</time>
      </trkpt>
      <trkpt lat="43.57236" lon="6.39496">
        <ele>588.3</ele>
        <time>2022-10-19T12:46:02Z</time>
      </trkpt>
      <trkpt lat="43.57241" lon="6.39495">
        <ele>588.3</ele>
        <time>2022-10-19T12:46:05Z</time>
      </trkpt>
      <trkpt lat="43.57245" lon="6.39492">
        <ele>588.4</ele>
        <time>2022-10-19T12:46:10Z</time>
      </trkpt>
      <trkpt lat="43.5725" lon="6.39489">
        <ele>588.4</ele>
        <time>2022-10-19T12:46:14Z</time>
      </trkpt>
      <trkpt lat="43.57254" lon="6.39487">
        <ele>588.5</ele>
        <time>2022-10-19T12:46:19Z</time>
      </trkpt>
      <trkpt lat="43.57258" lon="6.39483">
        <ele>588.6</ele>
        <time>2022-10-19T12:46:23Z</time>
      </trkpt>
      <trkpt lat="43.57263" lon="6.3948">
        <ele>588.7</ele>
        <time>2022-10-19T12:46:29Z</time>
      </trkpt>
      <trkpt lat="43.57268" lon="6.39476">
        <ele>588.7</ele>
        <time>2022-10-19T12:46:32Z</time>
      </trkpt>
      <trkpt lat="43.57271" lon="6.39471">
        <ele>588.9</ele>
        <time>2022-10-19T12:46:35Z</time>
      </trkpt>
      <trkpt lat="43.57276" lon="6.39467">
        <ele>589</ele>
        <time>2022-10-19T12:46:39Z</time>
      </trkpt>
      <trkpt lat="43.5728" lon="6.39465">
        <ele>589.1</ele>
        <time>2022-10-19T12:46:46Z</time>
      </trkpt>
      <trkpt lat="43.5728" lon="6.39459">
        <ele>589.3</ele>
        <time>2022-10-19T12:47:01Z</time>
      </trkpt>
      <trkpt lat="43.57277" lon="6.39453">
        <ele>588.8</ele>
        <time>2022-10-19T12:47:09Z</time>
      </trkpt>
      <trkpt lat="43.57276" lon="6.39447">
        <ele>588.4</ele>
        <time>2022-10-19T12:47:16Z</time>
      </trkpt>
      <trkpt lat="43.57271" lon="6.39445">
        <ele>588.3</ele>
        <time>2022-10-19T12:47:23Z</time>
      </trkpt>
      <trkpt lat="43.57266" lon="6.39441">
        <ele>588</ele>
        <time>2022-10-19T12:47:29Z</time>
      </trkpt>
      <trkpt lat="43.57264" lon="6.39436">
        <ele>587.5</ele>
        <time>2022-10-19T12:47:35Z</time>
      </trkpt>
      <trkpt lat="43.57262" lon="6.39429">
        <ele>587.1</ele>
        <time>2022-10-19T12:47:42Z</time>
      </trkpt>
      <trkpt lat="43.57264" lon="6.39423">
        <ele>586.6</ele>
        <time>2022-10-19T12:47:49Z</time>
      </trkpt>
      <trkpt lat="43.57264" lon="6.39416">
        <ele>585.9</ele>
        <time>2022-10-19T12:47:56Z</time>
      </trkpt>
      <trkpt lat="43.57265" lon="6.39409">
        <ele>585.4</ele>
        <time>2022-10-19T12:48:00Z</time>
      </trkpt>
      <trkpt lat="43.57261" lon="6.39403">
        <ele>584.7</ele>
        <time>2022-10-19T12:48:06Z</time>
      </trkpt>
      <trkpt lat="43.57259" lon="6.39396">
        <ele>584.4</ele>
        <time>2022-10-19T12:48:10Z</time>
      </trkpt>
      <trkpt lat="43.57254" lon="6.39391">
        <ele>583.6</ele>
        <time>2022-10-19T12:48:17Z</time>
      </trkpt>
      <trkpt lat="43.57251" lon="6.39386">
        <ele>583.1</ele>
        <time>2022-10-19T12:48:21Z</time>
      </trkpt>
      <trkpt lat="43.57247" lon="6.39383">
        <ele>582.7</ele>
        <time>2022-10-19T12:48:24Z</time>
      </trkpt>
      <trkpt lat="43.57243" lon="6.39378">
        <ele>582</ele>
        <time>2022-10-19T12:48:29Z</time>
      </trkpt>
      <trkpt lat="43.5724" lon="6.39373">
        <ele>581.6</ele>
        <time>2022-10-19T12:48:33Z</time>
      </trkpt>
      <trkpt lat="43.57236" lon="6.39369">
        <ele>581.3</ele>
        <time>2022-10-19T12:48:37Z</time>
      </trkpt>
      <trkpt lat="43.57232" lon="6.39365">
        <ele>580.8</ele>
        <time>2022-10-19T12:48:41Z</time>
      </trkpt>
      <trkpt lat="43.57227" lon="6.39361">
        <ele>580.6</ele>
        <time>2022-10-19T12:48:44Z</time>
      </trkpt>
      <trkpt lat="43.57225" lon="6.39355">
        <ele>580</ele>
        <time>2022-10-19T12:48:51Z</time>
      </trkpt>
      <trkpt lat="43.57224" lon="6.39348">
        <ele>579.8</ele>
        <time>2022-10-19T12:48:55Z</time>
      </trkpt>
      <trkpt lat="43.57223" lon="6.3934">
        <ele>579.3</ele>
        <time>2022-10-19T12:49:02Z</time>
      </trkpt>
      <trkpt lat="43.57223" lon="6.39333">
        <ele>579.1</ele>
        <time>2022-10-19T12:49:05Z</time>
      </trkpt>
      <trkpt lat="43.57221" lon="6.39326">
        <ele>578.9</ele>
        <time>2022-10-19T12:49:10Z</time>
      </trkpt>
      <trkpt lat="43.5722" lon="6.39319">
        <ele>578.9</ele>
        <time>2022-10-19T12:49:15Z</time>
      </trkpt>
      <trkpt lat="43.57217" lon="6.39312">
        <ele>578.8</ele>
        <time>2022-10-19T12:49:20Z</time>
      </trkpt>
      <trkpt lat="43.57215" lon="6.39306">
        <ele>579</ele>
        <time>2022-10-19T12:49:24Z</time>
      </trkpt>
      <trkpt lat="43.57214" lon="6.39299">
        <ele>578.8</ele>
        <time>2022-10-19T12:49:29Z</time>
      </trkpt>
      <trkpt lat="43.57214" lon="6.39292">
        <ele>579</ele>
        <time>2022-10-19T12:49:33Z</time>
      </trkpt>
      <trkpt lat="43.57214" lon="6.39285">
        <ele>579.1</ele>
        <time>2022-10-19T12:49:37Z</time>
      </trkpt>
      <trkpt lat="43.57213" lon="6.39278">
        <ele>579.2</ele>
        <time>2022-10-19T12:49:40Z</time>
      </trkpt>
      <trkpt lat="43.57211" lon="6.39272">
        <ele>579.1</ele>
        <time>2022-10-19T12:49:44Z</time>
      </trkpt>
      <trkpt lat="43.57209" lon="6.39264">
        <ele>579</ele>
        <time>2022-10-19T12:49:49Z</time>
      </trkpt>
      <trkpt lat="43.57207" lon="6.39258">
        <ele>578.8</ele>
        <time>2022-10-19T12:49:54Z</time>
      </trkpt>
      <trkpt lat="43.57205" lon="6.39252">
        <ele>578.5</ele>
        <time>2022-10-19T12:49:58Z</time>
      </trkpt>
      <trkpt lat="43.57204" lon="6.39245">
        <ele>578.4</ele>
        <time>2022-10-19T12:50:03Z</time>
      </trkpt>
      <trkpt lat="43.57204" lon="6.39237">
        <ele>578.4</ele>
        <time>2022-10-19T12:50:08Z</time>
      </trkpt>
      <trkpt lat="43.57205" lon="6.39231">
        <ele>578.5</ele>
        <time>2022-10-19T12:50:13Z</time>
      </trkpt>
      <trkpt lat="43.57207" lon="6.39224">
        <ele>578.9</ele>
        <time>2022-10-19T12:50:19Z</time>
      </trkpt>
      <trkpt lat="43.57207" lon="6.39216">
        <ele>579.4</ele>
        <time>2022-10-19T12:50:23Z</time>
      </trkpt>
      <trkpt lat="43.57207" lon="6.39209">
        <ele>579.5</ele>
        <time>2022-10-19T12:50:27Z</time>
      </trkpt>
      <trkpt lat="43.57208" lon="6.39203">
        <ele>579.7</ele>
        <time>2022-10-19T12:50:30Z</time>
      </trkpt>
      <trkpt lat="43.57207" lon="6.39196">
        <ele>580</ele>
        <time>2022-10-19T12:50:35Z</time>
      </trkpt>
      <trkpt lat="43.57209" lon="6.3919">
        <ele>580.2</ele>
        <time>2022-10-19T12:50:40Z</time>
      </trkpt>
      <trkpt lat="43.5721" lon="6.39183">
        <ele>581.1</ele>
        <time>2022-10-19T12:50:47Z</time>
      </trkpt>
      <trkpt lat="43.57209" lon="6.39177">
        <ele>581.6</ele>
        <time>2022-10-19T12:50:51Z</time>
      </trkpt>
      <trkpt lat="43.57209" lon="6.39169">
        <ele>582.1</ele>
        <time>2022-10-19T12:50:56Z</time>
      </trkpt>
      <trkpt lat="43.57209" lon="6.39163">
        <ele>582.4</ele>
        <time>2022-10-19T12:50:59Z</time>
      </trkpt>
      <trkpt lat="43.57208" lon="6.39155">
        <ele>582.7</ele>
        <time>2022-10-19T12:51:02Z</time>
      </trkpt>
      <trkpt lat="43.57208" lon="6.39148">
        <ele>582.9</ele>
        <time>2022-10-19T12:51:06Z</time>
      </trkpt>
      <trkpt lat="43.57208" lon="6.39141">
        <ele>583</ele>
        <time>2022-10-19T12:51:09Z</time>
      </trkpt>
      <trkpt lat="43.57207" lon="6.39135">
        <ele>583.1</ele>
        <time>2022-10-19T12:51:12Z</time>
      </trkpt>
      <trkpt lat="43.57205" lon="6.39129">
        <ele>583.1</ele>
        <time>2022-10-19T12:51:17Z</time>
      </trkpt>
      <trkpt lat="43.57205" lon="6.39121">
        <ele>583</ele>
        <time>2022-10-19T12:51:21Z</time>
      </trkpt>
      <trkpt lat="43.57201" lon="6.39114">
        <ele>583</ele>
        <time>2022-10-19T12:51:24Z</time>
      </trkpt>
      <trkpt lat="43.57199" lon="6.39108">
        <ele>582.6</ele>
        <time>2022-10-19T12:51:29Z</time>
      </trkpt>
      <trkpt lat="43.57197" lon="6.39101">
        <ele>582.4</ele>
        <time>2022-10-19T12:51:33Z</time>
      </trkpt>
      <trkpt lat="43.57195" lon="6.39095">
        <ele>582.3</ele>
        <time>2022-10-19T12:51:36Z</time>
      </trkpt>
      <trkpt lat="43.57194" lon="6.39089">
        <ele>582</ele>
        <time>2022-10-19T12:51:41Z</time>
      </trkpt>
      <trkpt lat="43.57193" lon="6.39081">
        <ele>581.6</ele>
        <time>2022-10-19T12:51:45Z</time>
      </trkpt>
      <trkpt lat="43.57192" lon="6.39074">
        <ele>581.6</ele>
        <time>2022-10-19T12:51:48Z</time>
      </trkpt>
      <trkpt lat="43.57191" lon="6.39068">
        <ele>581.5</ele>
        <time>2022-10-19T12:51:51Z</time>
      </trkpt>
      <trkpt lat="43.57188" lon="6.39062">
        <ele>581.2</ele>
        <time>2022-10-19T12:51:56Z</time>
      </trkpt>
      <trkpt lat="43.57187" lon="6.39057">
        <ele>580.9</ele>
        <time>2022-10-19T12:52:00Z</time>
      </trkpt>
      <trkpt lat="43.57185" lon="6.3905">
        <ele>580.4</ele>
        <time>2022-10-19T12:52:04Z</time>
      </trkpt>
      <trkpt lat="43.57183" lon="6.39044">
        <ele>580.2</ele>
        <time>2022-10-19T12:52:07Z</time>
      </trkpt>
      <trkpt lat="43.57181" lon="6.39037">
        <ele>579.7</ele>
        <time>2022-10-19T12:52:11Z</time>
      </trkpt>
      <trkpt lat="43.57178" lon="6.39031">
        <ele>579.1</ele>
        <time>2022-10-19T12:52:16Z</time>
      </trkpt>
      <trkpt lat="43.57177" lon="6.39023">
        <ele>578.9</ele>
        <time>2022-10-19T12:52:20Z</time>
      </trkpt>
      <trkpt lat="43.57175" lon="6.39016">
        <ele>578.8</ele>
        <time>2022-10-19T12:52:24Z</time>
      </trkpt>
      <trkpt lat="43.57174" lon="6.3901">
        <ele>578.4</ele>
        <time>2022-10-19T12:52:29Z</time>
      </trkpt>
      <trkpt lat="43.57176" lon="6.39004">
        <ele>578.5</ele>
        <time>2022-10-19T12:52:32Z</time>
      </trkpt>
      <trkpt lat="43.57174" lon="6.38997">
        <ele>578.6</ele>
        <time>2022-10-19T12:52:37Z</time>
      </trkpt>
      <trkpt lat="43.57176" lon="6.38991">
        <ele>578.8</ele>
        <time>2022-10-19T12:52:40Z</time>
      </trkpt>
      <trkpt lat="43.57177" lon="6.38984">
        <ele>579</ele>
        <time>2022-10-19T12:52:46Z</time>
      </trkpt>
      <trkpt lat="43.57178" lon="6.38978">
        <ele>579.2</ele>
        <time>2022-10-19T12:52:53Z</time>
      </trkpt>
      <trkpt lat="43.5718" lon="6.38972">
        <ele>579.8</ele>
        <time>2022-10-19T12:52:59Z</time>
      </trkpt>
      <trkpt lat="43.57182" lon="6.38965">
        <ele>580.4</ele>
        <time>2022-10-19T12:53:05Z</time>
      </trkpt>
      <trkpt lat="43.57184" lon="6.38959">
        <ele>580.8</ele>
        <time>2022-10-19T12:53:09Z</time>
      </trkpt>
      <trkpt lat="43.57187" lon="6.38954">
        <ele>580.9</ele>
        <time>2022-10-19T12:53:13Z</time>
      </trkpt>
      <trkpt lat="43.5719" lon="6.38949">
        <ele>580.9</ele>
        <time>2022-10-19T12:53:16Z</time>
      </trkpt>
      <trkpt lat="43.57189" lon="6.38942">
        <ele>580.8</ele>
        <time>2022-10-19T12:53:20Z</time>
      </trkpt>
      <trkpt lat="43.5719" lon="6.38935">
        <ele>580.5</ele>
        <time>2022-10-19T12:53:25Z</time>
      </trkpt>
      <trkpt lat="43.57193" lon="6.38929">
        <ele>580</ele>
        <time>2022-10-19T12:53:30Z</time>
      </trkpt>
      <trkpt lat="43.57196" lon="6.38925">
        <ele>579.3</ele>
        <time>2022-10-19T12:53:38Z</time>
      </trkpt>
      <trkpt lat="43.57201" lon="6.38927">
        <ele>579</ele>
        <time>2022-10-19T12:53:43Z</time>
      </trkpt>
      <trkpt lat="43.57206" lon="6.38924">
        <ele>579.2</ele>
        <time>2022-10-19T12:53:47Z</time>
      </trkpt>
      <trkpt lat="43.57211" lon="6.38921">
        <ele>578.8</ele>
        <time>2022-10-19T12:53:51Z</time>
      </trkpt>
      <trkpt lat="43.57215" lon="6.38918">
        <ele>578.6</ele>
        <time>2022-10-19T12:53:54Z</time>
      </trkpt>
      <trkpt lat="43.57219" lon="6.38916">
        <ele>578.3</ele>
        <time>2022-10-19T12:53:58Z</time>
      </trkpt>
      <trkpt lat="43.57223" lon="6.38912">
        <ele>577.1</ele>
        <time>2022-10-19T12:54:03Z</time>
      </trkpt>
      <trkpt lat="43.57227" lon="6.38906">
        <ele>576</ele>
        <time>2022-10-19T12:54:09Z</time>
      </trkpt>
      <trkpt lat="43.57232" lon="6.38902">
        <ele>574.9</ele>
        <time>2022-10-19T12:54:14Z</time>
      </trkpt>
      <trkpt lat="43.57237" lon="6.389">
        <ele>574.2</ele>
        <time>2022-10-19T12:54:18Z</time>
      </trkpt>
      <trkpt lat="43.57242" lon="6.389">
        <ele>573.6</ele>
        <time>2022-10-19T12:54:22Z</time>
      </trkpt>
      <trkpt lat="43.57246" lon="6.38897">
        <ele>572.5</ele>
        <time>2022-10-19T12:54:28Z</time>
      </trkpt>
      <trkpt lat="43.57251" lon="6.38894">
        <ele>571.8</ele>
        <time>2022-10-19T12:54:32Z</time>
      </trkpt>
      <trkpt lat="43.57255" lon="6.38891">
        <ele>571.2</ele>
        <time>2022-10-19T12:54:37Z</time>
      </trkpt>
      <trkpt lat="43.5726" lon="6.38889">
        <ele>571.1</ele>
        <time>2022-10-19T12:54:41Z</time>
      </trkpt>
      <trkpt lat="43.57265" lon="6.38887">
        <ele>570.7</ele>
        <time>2022-10-19T12:54:47Z</time>
      </trkpt>
      <trkpt lat="43.5727" lon="6.38882">
        <ele>570.2</ele>
        <time>2022-10-19T12:54:51Z</time>
      </trkpt>
      <trkpt lat="43.57274" lon="6.38878">
        <ele>569.5</ele>
        <time>2022-10-19T12:54:55Z</time>
      </trkpt>
      <trkpt lat="43.57277" lon="6.38874">
        <ele>569.1</ele>
        <time>2022-10-19T12:54:58Z</time>
      </trkpt>
      <trkpt lat="43.57281" lon="6.38869">
        <ele>568.5</ele>
        <time>2022-10-19T12:55:02Z</time>
      </trkpt>
      <trkpt lat="43.57284" lon="6.38864">
        <ele>567.8</ele>
        <time>2022-10-19T12:55:06Z</time>
      </trkpt>
      <trkpt lat="43.57287" lon="6.38859">
        <ele>567.2</ele>
        <time>2022-10-19T12:55:11Z</time>
      </trkpt>
      <trkpt lat="43.5729" lon="6.38854">
        <ele>566.2</ele>
        <time>2022-10-19T12:55:16Z</time>
      </trkpt>
      <trkpt lat="43.57293" lon="6.38847">
        <ele>565.3</ele>
        <time>2022-10-19T12:55:20Z</time>
      </trkpt>
      <trkpt lat="43.57293" lon="6.3884">
        <ele>564.1</ele>
        <time>2022-10-19T12:55:26Z</time>
      </trkpt>
      <trkpt lat="43.57294" lon="6.38832">
        <ele>563.2</ele>
        <time>2022-10-19T12:55:30Z</time>
      </trkpt>
      <trkpt lat="43.57295" lon="6.38826">
        <ele>562.6</ele>
        <time>2022-10-19T12:55:33Z</time>
      </trkpt>
      <trkpt lat="43.57293" lon="6.38818">
        <ele>561.5</ele>
        <time>2022-10-19T12:55:38Z</time>
      </trkpt>
      <trkpt lat="43.5729" lon="6.38812">
        <ele>560.8</ele>
        <time>2022-10-19T12:55:41Z</time>
      </trkpt>
      <trkpt lat="43.57287" lon="6.38806">
        <ele>559.3</ele>
        <time>2022-10-19T12:55:47Z</time>
      </trkpt>
      <trkpt lat="43.57283" lon="6.38802">
        <ele>558.5</ele>
        <time>2022-10-19T12:55:51Z</time>
      </trkpt>
      <trkpt lat="43.57278" lon="6.388">
        <ele>558</ele>
        <time>2022-10-19T12:55:54Z</time>
      </trkpt>
      <trkpt lat="43.57274" lon="6.38798">
        <ele>557.3</ele>
        <time>2022-10-19T12:55:58Z</time>
      </trkpt>
      <trkpt lat="43.57269" lon="6.38797">
        <ele>556.9</ele>
        <time>2022-10-19T12:56:01Z</time>
      </trkpt>
      <trkpt lat="43.57264" lon="6.38797">
        <ele>556.5</ele>
        <time>2022-10-19T12:56:05Z</time>
      </trkpt>
      <trkpt lat="43.57262" lon="6.38803">
        <ele>556</ele>
        <time>2022-10-19T12:56:10Z</time>
      </trkpt>
      <trkpt lat="43.57261" lon="6.38809">
        <ele>555.7</ele>
        <time>2022-10-19T12:56:30Z</time>
      </trkpt>
      <trkpt lat="43.57259" lon="6.38815">
        <ele>555.9</ele>
        <time>2022-10-19T12:57:25Z</time>
      </trkpt>
      <trkpt lat="43.57256" lon="6.38812">
        <ele>555.6</ele>
        <time>2022-10-19T12:57:55Z</time>
      </trkpt>
      <trkpt lat="43.57253" lon="6.38807">
        <ele>555.8</ele>
        <time>2022-10-19T12:58:10Z</time>
      </trkpt>
      <trkpt lat="43.57251" lon="6.38801">
        <ele>556</ele>
        <time>2022-10-19T12:58:32Z</time>
      </trkpt>
      <trkpt lat="43.57247" lon="6.38801">
        <ele>556.1</ele>
        <time>2022-10-19T12:58:45Z</time>
      </trkpt>
      <trkpt lat="43.57252" lon="6.38804">
        <ele>556.1</ele>
        <time>2022-10-19T12:59:23Z</time>
      </trkpt>
      <trkpt lat="43.57249" lon="6.38798">
        <ele>557.2</ele>
        <time>2022-10-19T12:59:43Z</time>
      </trkpt>
      <trkpt lat="43.57251" lon="6.38792">
        <ele>559.8</ele>
        <time>2022-10-19T13:00:18Z</time>
      </trkpt>
      <trkpt lat="43.57252" lon="6.38784">
        <ele>561.2</ele>
        <time>2022-10-19T13:00:25Z</time>
      </trkpt>
      <trkpt lat="43.57254" lon="6.38778">
        <ele>562.5</ele>
        <time>2022-10-19T13:00:35Z</time>
      </trkpt>
      <trkpt lat="43.57255" lon="6.3877">
        <ele>563.7</ele>
        <time>2022-10-19T13:00:40Z</time>
      </trkpt>
      <trkpt lat="43.57253" lon="6.38763">
        <ele>564.7</ele>
        <time>2022-10-19T13:00:47Z</time>
      </trkpt>
      <trkpt lat="43.57251" lon="6.38756">
        <ele>565.3</ele>
        <time>2022-10-19T13:00:53Z</time>
      </trkpt>
      <trkpt lat="43.57248" lon="6.38752">
        <ele>566</ele>
        <time>2022-10-19T13:00:59Z</time>
      </trkpt>
      <trkpt lat="43.57245" lon="6.38747">
        <ele>566.6</ele>
        <time>2022-10-19T13:01:04Z</time>
      </trkpt>
      <trkpt lat="43.5724" lon="6.38744">
        <ele>567.7</ele>
        <time>2022-10-19T13:01:12Z</time>
      </trkpt>
      <trkpt lat="43.57235" lon="6.38747">
        <ele>568.5</ele>
        <time>2022-10-19T13:01:20Z</time>
      </trkpt>
      <trkpt lat="43.57232" lon="6.38743">
        <ele>569.5</ele>
        <time>2022-10-19T13:01:27Z</time>
      </trkpt>
      <trkpt lat="43.57229" lon="6.38737">
        <ele>570.2</ele>
        <time>2022-10-19T13:01:37Z</time>
      </trkpt>
      <trkpt lat="43.57226" lon="6.38733">
        <ele>570.7</ele>
        <time>2022-10-19T13:01:45Z</time>
      </trkpt>
      <trkpt lat="43.57221" lon="6.3873">
        <ele>571.6</ele>
        <time>2022-10-19T13:01:54Z</time>
      </trkpt>
      <trkpt lat="43.57217" lon="6.38726">
        <ele>572.4</ele>
        <time>2022-10-19T13:02:04Z</time>
      </trkpt>
      <trkpt lat="43.57213" lon="6.38724">
        <ele>572.6</ele>
        <time>2022-10-19T13:02:16Z</time>
      </trkpt>
      <trkpt lat="43.57208" lon="6.38721">
        <ele>572</ele>
        <time>2022-10-19T13:02:22Z</time>
      </trkpt>
      <trkpt lat="43.57204" lon="6.38719">
        <ele>571.3</ele>
        <time>2022-10-19T13:02:33Z</time>
      </trkpt>
      <trkpt lat="43.57199" lon="6.38719">
        <ele>571.1</ele>
        <time>2022-10-19T13:02:43Z</time>
      </trkpt>
      <trkpt lat="43.57194" lon="6.3872">
        <ele>570.7</ele>
        <time>2022-10-19T13:03:10Z</time>
      </trkpt>
      <trkpt lat="43.57189" lon="6.38717">
        <ele>570.4</ele>
        <time>2022-10-19T13:03:20Z</time>
      </trkpt>
      <trkpt lat="43.57185" lon="6.38716">
        <ele>570</ele>
        <time>2022-10-19T13:03:28Z</time>
      </trkpt>
      <trkpt lat="43.5718" lon="6.38715">
        <ele>569.5</ele>
        <time>2022-10-19T13:03:35Z</time>
      </trkpt>
      <trkpt lat="43.57176" lon="6.38711">
        <ele>569.8</ele>
        <time>2022-10-19T13:03:45Z</time>
      </trkpt>
      <trkpt lat="43.57171" lon="6.38712">
        <ele>569.9</ele>
        <time>2022-10-19T13:03:52Z</time>
      </trkpt>
      <trkpt lat="43.57166" lon="6.38711">
        <ele>569.9</ele>
        <time>2022-10-19T13:03:58Z</time>
      </trkpt>
      <trkpt lat="43.57161" lon="6.38712">
        <ele>569.9</ele>
        <time>2022-10-19T13:04:05Z</time>
      </trkpt>
      <trkpt lat="43.57156" lon="6.38711">
        <ele>569.8</ele>
        <time>2022-10-19T13:04:12Z</time>
      </trkpt>
      <trkpt lat="43.57152" lon="6.38707">
        <ele>569.8</ele>
        <time>2022-10-19T13:04:21Z</time>
      </trkpt>
      <trkpt lat="43.57147" lon="6.38704">
        <ele>570.5</ele>
        <time>2022-10-19T13:04:28Z</time>
      </trkpt>
      <trkpt lat="43.57143" lon="6.38702">
        <ele>570.6</ele>
        <time>2022-10-19T13:04:34Z</time>
      </trkpt>
      <trkpt lat="43.57139" lon="6.38698">
        <ele>570.5</ele>
        <time>2022-10-19T13:04:40Z</time>
      </trkpt>
      <trkpt lat="43.57134" lon="6.38696">
        <ele>570.4</ele>
        <time>2022-10-19T13:04:47Z</time>
      </trkpt>
      <trkpt lat="43.5713" lon="6.38693">
        <ele>570.3</ele>
        <time>2022-10-19T13:04:51Z</time>
      </trkpt>
      <trkpt lat="43.57126" lon="6.38689">
        <ele>569.7</ele>
        <time>2022-10-19T13:05:01Z</time>
      </trkpt>
      <trkpt lat="43.57122" lon="6.38687">
        <ele>569.2</ele>
        <time>2022-10-19T13:05:07Z</time>
      </trkpt>
      <trkpt lat="43.57118" lon="6.3869">
        <ele>568.7</ele>
        <time>2022-10-19T13:05:14Z</time>
      </trkpt>
      <trkpt lat="43.57113" lon="6.38692">
        <ele>568</ele>
        <time>2022-10-19T13:05:24Z</time>
      </trkpt>
      <trkpt lat="43.57108" lon="6.38693">
        <ele>567.8</ele>
        <time>2022-10-19T13:05:30Z</time>
      </trkpt>
      <trkpt lat="43.57104" lon="6.38693">
        <ele>567</ele>
        <time>2022-10-19T13:05:38Z</time>
      </trkpt>
      <trkpt lat="43.57099" lon="6.38692">
        <ele>566.2</ele>
        <time>2022-10-19T13:05:45Z</time>
      </trkpt>
      <trkpt lat="43.57094" lon="6.38691">
        <ele>564.8</ele>
        <time>2022-10-19T13:06:04Z</time>
      </trkpt>
      <trkpt lat="43.57089" lon="6.3869">
        <ele>564.4</ele>
        <time>2022-10-19T13:06:10Z</time>
      </trkpt>
      <trkpt lat="43.57084" lon="6.38689">
        <ele>563.8</ele>
        <time>2022-10-19T13:06:17Z</time>
      </trkpt>
      <trkpt lat="43.57079" lon="6.38691">
        <ele>563.3</ele>
        <time>2022-10-19T13:06:22Z</time>
      </trkpt>
      <trkpt lat="43.57075" lon="6.38694">
        <ele>562.8</ele>
        <time>2022-10-19T13:06:28Z</time>
      </trkpt>
      <trkpt lat="43.5707" lon="6.38696">
        <ele>562.1</ele>
        <time>2022-10-19T13:06:36Z</time>
      </trkpt>
      <trkpt lat="43.57066" lon="6.38698">
        <ele>561.7</ele>
        <time>2022-10-19T13:06:42Z</time>
      </trkpt>
      <trkpt lat="43.57061" lon="6.387">
        <ele>561</ele>
        <time>2022-10-19T13:06:49Z</time>
      </trkpt>
      <trkpt lat="43.57058" lon="6.38705">
        <ele>560.3</ele>
        <time>2022-10-19T13:06:56Z</time>
      </trkpt>
      <trkpt lat="43.57054" lon="6.38709">
        <ele>559.7</ele>
        <time>2022-10-19T13:07:03Z</time>
      </trkpt>
      <trkpt lat="43.57051" lon="6.38715">
        <ele>558.8</ele>
        <time>2022-10-19T13:07:13Z</time>
      </trkpt>
      <trkpt lat="43.57047" lon="6.38717">
        <ele>558.1</ele>
        <time>2022-10-19T13:07:21Z</time>
      </trkpt>
      <trkpt lat="43.57043" lon="6.3872">
        <ele>557.6</ele>
        <time>2022-10-19T13:07:30Z</time>
      </trkpt>
      <trkpt lat="43.57038" lon="6.38721">
        <ele>557.1</ele>
        <time>2022-10-19T13:07:36Z</time>
      </trkpt>
      <trkpt lat="43.57034" lon="6.38725">
        <ele>556.6</ele>
        <time>2022-10-19T13:07:46Z</time>
      </trkpt>
      <trkpt lat="43.57031" lon="6.38729">
        <ele>556.2</ele>
        <time>2022-10-19T13:07:56Z</time>
      </trkpt>
      <trkpt lat="43.57028" lon="6.38734">
        <ele>555.8</ele>
        <time>2022-10-19T13:08:12Z</time>
      </trkpt>
      <trkpt lat="43.57026" lon="6.38739">
        <ele>555</ele>
        <time>2022-10-19T13:08:26Z</time>
      </trkpt>
      <trkpt lat="43.57023" lon="6.38735">
        <ele>554.3</ele>
        <time>2022-10-19T13:08:45Z</time>
      </trkpt>
      <trkpt lat="43.57019" lon="6.38731">
        <ele>553.7</ele>
        <time>2022-10-19T13:08:53Z</time>
      </trkpt>
      <trkpt lat="43.57016" lon="6.38726">
        <ele>552.7</ele>
        <time>2022-10-19T13:09:10Z</time>
      </trkpt>
      <trkpt lat="43.57015" lon="6.3872">
        <ele>552.3</ele>
        <time>2022-10-19T13:09:36Z</time>
      </trkpt>
      <trkpt lat="43.57011" lon="6.38716">
        <ele>551.9</ele>
        <time>2022-10-19T13:09:51Z</time>
      </trkpt>
      <trkpt lat="43.57008" lon="6.3871">
        <ele>551.6</ele>
        <time>2022-10-19T13:10:18Z</time>
      </trkpt>
      <trkpt lat="43.57003" lon="6.38708">
        <ele>551.3</ele>
        <time>2022-10-19T13:10:31Z</time>
      </trkpt>
      <trkpt lat="43.56998" lon="6.38706">
        <ele>550.8</ele>
        <time>2022-10-19T13:10:47Z</time>
      </trkpt>
      <trkpt lat="43.56994" lon="6.38705">
        <ele>550.8</ele>
        <time>2022-10-19T13:11:23Z</time>
      </trkpt>
      <trkpt lat="43.56998" lon="6.38708">
        <ele>550.4</ele>
        <time>2022-10-19T13:12:10Z</time>
      </trkpt>
      <trkpt lat="43.56998" lon="6.38714">
        <ele>551.1</ele>
        <time>2022-10-19T13:13:42Z</time>
      </trkpt>
      <trkpt lat="43.57002" lon="6.38719">
        <ele>552.3</ele>
        <time>2022-10-19T13:14:10Z</time>
      </trkpt>
      <trkpt lat="43.57003" lon="6.38725">
        <ele>552.8</ele>
        <time>2022-10-19T13:14:21Z</time>
      </trkpt>
      <trkpt lat="43.57007" lon="6.3873">
        <ele>553.8</ele>
        <time>2022-10-19T13:14:33Z</time>
      </trkpt>
      <trkpt lat="43.57011" lon="6.38733">
        <ele>554.5</ele>
        <time>2022-10-19T13:14:41Z</time>
      </trkpt>
      <trkpt lat="43.57014" lon="6.38738">
        <ele>555.1</ele>
        <time>2022-10-19T13:14:48Z</time>
      </trkpt>
      <trkpt lat="43.57017" lon="6.38743">
        <ele>555.7</ele>
        <time>2022-10-19T13:14:56Z</time>
      </trkpt>
      <trkpt lat="43.57019" lon="6.38749">
        <ele>555.7</ele>
        <time>2022-10-19T13:15:09Z</time>
      </trkpt>
      <trkpt lat="43.57019" lon="6.38756">
        <ele>555.3</ele>
        <time>2022-10-19T13:15:19Z</time>
      </trkpt>
      <trkpt lat="43.5702" lon="6.38762">
        <ele>555.1</ele>
        <time>2022-10-19T13:15:26Z</time>
      </trkpt>
      <trkpt lat="43.57018" lon="6.38769">
        <ele>555</ele>
        <time>2022-10-19T13:15:32Z</time>
      </trkpt>
      <trkpt lat="43.57016" lon="6.38776">
        <ele>554.6</ele>
        <time>2022-10-19T13:15:39Z</time>
      </trkpt>
      <trkpt lat="43.57016" lon="6.38783">
        <ele>554.6</ele>
        <time>2022-10-19T13:15:45Z</time>
      </trkpt>
      <trkpt lat="43.57015" lon="6.3879">
        <ele>554.4</ele>
        <time>2022-10-19T13:15:51Z</time>
      </trkpt>
      <trkpt lat="43.57014" lon="6.38796">
        <ele>554.2</ele>
        <time>2022-10-19T13:15:56Z</time>
      </trkpt>
      <trkpt lat="43.57013" lon="6.38803">
        <ele>554.1</ele>
        <time>2022-10-19T13:16:04Z</time>
      </trkpt>
      <trkpt lat="43.57016" lon="6.38808">
        <ele>553.9</ele>
        <time>2022-10-19T13:16:14Z</time>
      </trkpt>
      <trkpt lat="43.57019" lon="6.38812">
        <ele>554.2</ele>
        <time>2022-10-19T13:16:22Z</time>
      </trkpt>
      <trkpt lat="43.57023" lon="6.38815">
        <ele>554.5</ele>
        <time>2022-10-19T13:16:27Z</time>
      </trkpt>
      <trkpt lat="43.57028" lon="6.38819">
        <ele>554.7</ele>
        <time>2022-10-19T13:16:34Z</time>
      </trkpt>
      <trkpt lat="43.57033" lon="6.3882">
        <ele>554.9</ele>
        <time>2022-10-19T13:16:43Z</time>
      </trkpt>
      <trkpt lat="43.57038" lon="6.38818">
        <ele>555.1</ele>
        <time>2022-10-19T13:16:58Z</time>
      </trkpt>
      <trkpt lat="43.57042" lon="6.38813">
        <ele>555.7</ele>
        <time>2022-10-19T13:17:03Z</time>
      </trkpt>
      <trkpt lat="43.57046" lon="6.3881">
        <ele>556</ele>
        <time>2022-10-19T13:17:11Z</time>
      </trkpt>
      <trkpt lat="43.57051" lon="6.38806">
        <ele>556.1</ele>
        <time>2022-10-19T13:17:23Z</time>
      </trkpt>
      <trkpt lat="43.57053" lon="6.38801">
        <ele>557</ele>
        <time>2022-10-19T13:17:36Z</time>
      </trkpt>
      <trkpt lat="43.57055" lon="6.38795">
        <ele>557.5</ele>
        <time>2022-10-19T13:17:44Z</time>
      </trkpt>
      <trkpt lat="43.57057" lon="6.38789">
        <ele>558.3</ele>
        <time>2022-10-19T13:17:59Z</time>
      </trkpt>
      <trkpt lat="43.5706" lon="6.38783">
        <ele>558.5</ele>
        <time>2022-10-19T13:18:08Z</time>
      </trkpt>
      <trkpt lat="43.57063" lon="6.38778">
        <ele>559.4</ele>
        <time>2022-10-19T13:18:39Z</time>
      </trkpt>
      <trkpt lat="43.57068" lon="6.38777">
        <ele>559.5</ele>
        <time>2022-10-19T13:18:48Z</time>
      </trkpt>
      <trkpt lat="43.57073" lon="6.38774">
        <ele>559.7</ele>
        <time>2022-10-19T13:19:00Z</time>
      </trkpt>
      <trkpt lat="43.57076" lon="6.3877">
        <ele>560.5</ele>
        <time>2022-10-19T13:19:11Z</time>
      </trkpt>
      <trkpt lat="43.5708" lon="6.38765">
        <ele>561.2</ele>
        <time>2022-10-19T13:19:33Z</time>
      </trkpt>
      <trkpt lat="43.57084" lon="6.38762">
        <ele>561.3</ele>
        <time>2022-10-19T13:19:43Z</time>
      </trkpt>
      <trkpt lat="43.57087" lon="6.38757">
        <ele>561.6</ele>
        <time>2022-10-19T13:19:49Z</time>
      </trkpt>
      <trkpt lat="43.5709" lon="6.38752">
        <ele>562.1</ele>
        <time>2022-10-19T13:20:10Z</time>
      </trkpt>
      <trkpt lat="43.57094" lon="6.38748">
        <ele>562.3</ele>
        <time>2022-10-19T13:20:38Z</time>
      </trkpt>
      <trkpt lat="43.57099" lon="6.38748">
        <ele>563</ele>
        <time>2022-10-19T13:20:52Z</time>
      </trkpt>
      <trkpt lat="43.57104" lon="6.38749">
        <ele>563.5</ele>
        <time>2022-10-19T13:21:08Z</time>
      </trkpt>
      <trkpt lat="43.57107" lon="6.38743">
        <ele>564.5</ele>
        <time>2022-10-19T13:21:23Z</time>
      </trkpt>
      <trkpt lat="43.57111" lon="6.3874">
        <ele>564.7</ele>
        <time>2022-10-19T13:21:31Z</time>
      </trkpt>
      <trkpt lat="43.57115" lon="6.38735">
        <ele>565.3</ele>
        <time>2022-10-19T13:21:42Z</time>
      </trkpt>
      <trkpt lat="43.57117" lon="6.3873">
        <ele>566.4</ele>
        <time>2022-10-19T13:21:51Z</time>
      </trkpt>
      <trkpt lat="43.57121" lon="6.38724">
        <ele>567.1</ele>
        <time>2022-10-19T13:22:00Z</time>
      </trkpt>
      <trkpt lat="43.57122" lon="6.38718">
        <ele>568.4</ele>
        <time>2022-10-19T13:22:25Z</time>
      </trkpt>
      <trkpt lat="43.57124" lon="6.38713">
        <ele>569.8</ele>
        <time>2022-10-19T13:22:42Z</time>
      </trkpt>
      <trkpt lat="43.57128" lon="6.38713">
        <ele>570.6</ele>
        <time>2022-10-19T13:22:58Z</time>
      </trkpt>
      <trkpt lat="43.57133" lon="6.38711">
        <ele>570.6</ele>
        <time>2022-10-19T13:23:13Z</time>
      </trkpt>
      <trkpt lat="43.57135" lon="6.38706">
        <ele>570.7</ele>
        <time>2022-10-19T13:23:52Z</time>
      </trkpt>
      <trkpt lat="43.57139" lon="6.3871">
        <ele>571.1</ele>
        <time>2022-10-19T13:24:42Z</time>
      </trkpt>
      <trkpt lat="43.57143" lon="6.38713">
        <ele>571.7</ele>
        <time>2022-10-19T13:24:58Z</time>
      </trkpt>
      <trkpt lat="43.57146" lon="6.38708">
        <ele>572.5</ele>
        <time>2022-10-19T13:25:09Z</time>
      </trkpt>
      <trkpt lat="43.57148" lon="6.38702">
        <ele>573.6</ele>
        <time>2022-10-19T13:25:17Z</time>
      </trkpt>
      <trkpt lat="43.5715" lon="6.38697">
        <ele>574.6</ele>
        <time>2022-10-19T13:25:29Z</time>
      </trkpt>
      <trkpt lat="43.57155" lon="6.38696">
        <ele>576.4</ele>
        <time>2022-10-19T13:25:50Z</time>
      </trkpt>
      <trkpt lat="43.57159" lon="6.38692">
        <ele>577.6</ele>
        <time>2022-10-19T13:26:00Z</time>
      </trkpt>
      <trkpt lat="43.57164" lon="6.38692">
        <ele>578.3</ele>
        <time>2022-10-19T13:26:05Z</time>
      </trkpt>
      <trkpt lat="43.57168" lon="6.38686">
        <ele>579.1</ele>
        <time>2022-10-19T13:26:13Z</time>
      </trkpt>
      <trkpt lat="43.57172" lon="6.38681">
        <ele>579.4</ele>
        <time>2022-10-19T13:26:17Z</time>
      </trkpt>
      <trkpt lat="43.57175" lon="6.38676">
        <ele>579.7</ele>
        <time>2022-10-19T13:26:21Z</time>
      </trkpt>
      <trkpt lat="43.57174" lon="6.3867">
        <ele>580.7</ele>
        <time>2022-10-19T13:26:38Z</time>
      </trkpt>
      <trkpt lat="43.57174" lon="6.38663">
        <ele>581.6</ele>
        <time>2022-10-19T13:26:48Z</time>
      </trkpt>
      <trkpt lat="43.57173" lon="6.38657">
        <ele>582.7</ele>
        <time>2022-10-19T13:26:59Z</time>
      </trkpt>
      <trkpt lat="43.57175" lon="6.3865">
        <ele>583.5</ele>
        <time>2022-10-19T13:27:09Z</time>
      </trkpt>
      <trkpt lat="43.57175" lon="6.38643">
        <ele>584.9</ele>
        <time>2022-10-19T13:27:17Z</time>
      </trkpt>
      <trkpt lat="43.57178" lon="6.38637">
        <ele>586.6</ele>
        <time>2022-10-19T13:27:32Z</time>
      </trkpt>
      <trkpt lat="43.57181" lon="6.38633">
        <ele>586.9</ele>
        <time>2022-10-19T13:27:35Z</time>
      </trkpt>
      <trkpt lat="43.57177" lon="6.38632">
        <ele>587.3</ele>
        <time>2022-10-19T13:28:05Z</time>
      </trkpt>
      <trkpt lat="43.5718" lon="6.38628">
        <ele>587.7</ele>
        <time>2022-10-19T13:29:52Z</time>
      </trkpt>
      <trkpt lat="43.57183" lon="6.38623">
        <ele>588.5</ele>
        <time>2022-10-19T13:30:05Z</time>
      </trkpt>
      <trkpt lat="43.57185" lon="6.38617">
        <ele>589.6</ele>
        <time>2022-10-19T13:30:18Z</time>
      </trkpt>
      <trkpt lat="43.57189" lon="6.38611">
        <ele>590.9</ele>
        <time>2022-10-19T13:30:38Z</time>
      </trkpt>
      <trkpt lat="43.57187" lon="6.38604">
        <ele>591.8</ele>
        <time>2022-10-19T13:31:09Z</time>
      </trkpt>
      <trkpt lat="43.57193" lon="6.38599">
        <ele>592.4</ele>
        <time>2022-10-19T13:31:21Z</time>
      </trkpt>
      <trkpt lat="43.57197" lon="6.38596">
        <ele>592.5</ele>
        <time>2022-10-19T13:31:23Z</time>
      </trkpt>
      <trkpt lat="43.572" lon="6.38592">
        <ele>592.9</ele>
        <time>2022-10-19T13:31:40Z</time>
      </trkpt>
      <trkpt lat="43.57201" lon="6.38585">
        <ele>593.1</ele>
        <time>2022-10-19T13:32:01Z</time>
      </trkpt>
      <trkpt lat="43.57198" lon="6.38579">
        <ele>593.7</ele>
        <time>2022-10-19T13:32:14Z</time>
      </trkpt>
      <trkpt lat="43.57198" lon="6.38573">
        <ele>594.5</ele>
        <time>2022-10-19T13:32:22Z</time>
      </trkpt>
      <trkpt lat="43.57196" lon="6.38567">
        <ele>595.4</ele>
        <time>2022-10-19T13:32:35Z</time>
      </trkpt>
      <trkpt lat="43.57196" lon="6.3856">
        <ele>595.9</ele>
        <time>2022-10-19T13:32:40Z</time>
      </trkpt>
      <trkpt lat="43.57193" lon="6.38556">
        <ele>596.3</ele>
        <time>2022-10-19T13:32:48Z</time>
      </trkpt>
      <trkpt lat="43.57189" lon="6.38553">
        <ele>596.5</ele>
        <time>2022-10-19T13:33:35Z</time>
      </trkpt>
      <trkpt lat="43.5719" lon="6.38547">
        <ele>596.7</ele>
        <time>2022-10-19T13:34:59Z</time>
      </trkpt>
      <trkpt lat="43.57191" lon="6.3854">
        <ele>597.5</ele>
        <time>2022-10-19T13:35:41Z</time>
      </trkpt>
      <trkpt lat="43.57195" lon="6.38534">
        <ele>598</ele>
        <time>2022-10-19T13:35:45Z</time>
      </trkpt>
      <trkpt lat="43.57196" lon="6.38528">
        <ele>598.6</ele>
        <time>2022-10-19T13:35:52Z</time>
      </trkpt>
      <trkpt lat="43.57198" lon="6.3852">
        <ele>599.5</ele>
        <time>2022-10-19T13:36:00Z</time>
      </trkpt>
      <trkpt lat="43.57197" lon="6.38513">
        <ele>600.2</ele>
        <time>2022-10-19T13:36:08Z</time>
      </trkpt>
      <trkpt lat="43.57197" lon="6.38507">
        <ele>600.7</ele>
        <time>2022-10-19T13:36:13Z</time>
      </trkpt>
      <trkpt lat="43.572" lon="6.38501">
        <ele>601.1</ele>
        <time>2022-10-19T13:36:16Z</time>
      </trkpt>
      <trkpt lat="43.572" lon="6.38492">
        <ele>602</ele>
        <time>2022-10-19T13:36:23Z</time>
      </trkpt>
      <trkpt lat="43.57201" lon="6.38486">
        <ele>602.8</ele>
        <time>2022-10-19T13:36:29Z</time>
      </trkpt>
      <trkpt lat="43.57202" lon="6.38479">
        <ele>603.5</ele>
        <time>2022-10-19T13:36:33Z</time>
      </trkpt>
      <trkpt lat="43.57204" lon="6.38473">
        <ele>604</ele>
        <time>2022-10-19T13:36:36Z</time>
      </trkpt>
      <trkpt lat="43.57206" lon="6.38468">
        <ele>604.6</ele>
        <time>2022-10-19T13:36:40Z</time>
      </trkpt>
      <trkpt lat="43.57208" lon="6.38462">
        <ele>605.6</ele>
        <time>2022-10-19T13:36:45Z</time>
      </trkpt>
      <trkpt lat="43.57205" lon="6.38457">
        <ele>607.6</ele>
        <time>2022-10-19T13:37:02Z</time>
      </trkpt>
      <trkpt lat="43.5721" lon="6.38455">
        <ele>607.8</ele>
        <time>2022-10-19T13:38:03Z</time>
      </trkpt>
      <trkpt lat="43.57213" lon="6.38451">
        <ele>607.9</ele>
        <time>2022-10-19T13:38:17Z</time>
      </trkpt>
      <trkpt lat="43.57218" lon="6.3845">
        <ele>607.9</ele>
        <time>2022-10-19T13:38:48Z</time>
      </trkpt>
      <trkpt lat="43.57218" lon="6.38443">
        <ele>607.9</ele>
        <time>2022-10-19T13:39:43Z</time>
      </trkpt>
      <trkpt lat="43.57221" lon="6.3844">
        <ele>607.9</ele>
        <time>2022-10-19T13:40:57Z</time>
      </trkpt>
      <trkpt lat="43.57224" lon="6.38434">
        <ele>609.3</ele>
        <time>2022-10-19T13:41:10Z</time>
      </trkpt>
      <trkpt lat="43.57225" lon="6.38427">
        <ele>610.4</ele>
        <time>2022-10-19T13:41:16Z</time>
      </trkpt>
      <trkpt lat="43.57229" lon="6.38421">
        <ele>611.2</ele>
        <time>2022-10-19T13:41:21Z</time>
      </trkpt>
      <trkpt lat="43.57229" lon="6.38415">
        <ele>611.8</ele>
        <time>2022-10-19T13:41:26Z</time>
      </trkpt>
      <trkpt lat="43.57231" lon="6.38408">
        <ele>612.2</ele>
        <time>2022-10-19T13:41:30Z</time>
      </trkpt>
      <trkpt lat="43.57234" lon="6.38402">
        <ele>612.4</ele>
        <time>2022-10-19T13:41:37Z</time>
      </trkpt>
      <trkpt lat="43.57235" lon="6.38396">
        <ele>612.5</ele>
        <time>2022-10-19T13:41:43Z</time>
      </trkpt>
      <trkpt lat="43.57232" lon="6.38391">
        <ele>612.4</ele>
        <time>2022-10-19T13:41:48Z</time>
      </trkpt>
      <trkpt lat="43.57228" lon="6.38388">
        <ele>612</ele>
        <time>2022-10-19T13:41:58Z</time>
      </trkpt>
      <trkpt lat="43.57223" lon="6.38384">
        <ele>611.9</ele>
        <time>2022-10-19T13:42:05Z</time>
      </trkpt>
      <trkpt lat="43.57228" lon="6.38387">
        <ele>612.5</ele>
        <time>2022-10-19T13:42:50Z</time>
      </trkpt>
      <trkpt lat="43.57228" lon="6.38381">
        <ele>613</ele>
        <time>2022-10-19T13:42:58Z</time>
      </trkpt>
      <trkpt lat="43.57228" lon="6.38374">
        <ele>613.4</ele>
        <time>2022-10-19T13:43:06Z</time>
      </trkpt>
      <trkpt lat="43.5723" lon="6.38367">
        <ele>613.7</ele>
        <time>2022-10-19T13:43:11Z</time>
      </trkpt>
      <trkpt lat="43.57232" lon="6.38361">
        <ele>613.9</ele>
        <time>2022-10-19T13:43:14Z</time>
      </trkpt>
      <trkpt lat="43.57234" lon="6.38353">
        <ele>614</ele>
        <time>2022-10-19T13:43:19Z</time>
      </trkpt>
      <trkpt lat="43.57233" lon="6.38347">
        <ele>613.8</ele>
        <time>2022-10-19T13:43:25Z</time>
      </trkpt>
      <trkpt lat="43.57232" lon="6.3834">
        <ele>613.7</ele>
        <time>2022-10-19T13:43:29Z</time>
      </trkpt>
      <trkpt lat="43.5723" lon="6.38334">
        <ele>613.8</ele>
        <time>2022-10-19T13:43:33Z</time>
      </trkpt>
      <trkpt lat="43.5723" lon="6.38326">
        <ele>613.9</ele>
        <time>2022-10-19T13:43:39Z</time>
      </trkpt>
      <trkpt lat="43.57228" lon="6.38321">
        <ele>613.7</ele>
        <time>2022-10-19T13:43:43Z</time>
      </trkpt>
      <trkpt lat="43.5723" lon="6.38314">
        <ele>613.7</ele>
        <time>2022-10-19T13:43:48Z</time>
      </trkpt>
      <trkpt lat="43.5723" lon="6.38306">
        <ele>614</ele>
        <time>2022-10-19T13:43:54Z</time>
      </trkpt>
      <trkpt lat="43.57231" lon="6.383">
        <ele>614.1</ele>
        <time>2022-10-19T13:43:57Z</time>
      </trkpt>
      <trkpt lat="43.57233" lon="6.38291">
        <ele>614.1</ele>
        <time>2022-10-19T13:44:00Z</time>
      </trkpt>
      <trkpt lat="43.57235" lon="6.38283">
        <ele>613.8</ele>
        <time>2022-10-19T13:44:03Z</time>
      </trkpt>
      <trkpt lat="43.57236" lon="6.38277">
        <ele>613.5</ele>
        <time>2022-10-19T13:44:06Z</time>
      </trkpt>
      <trkpt lat="43.57235" lon="6.3827">
        <ele>612.6</ele>
        <time>2022-10-19T13:44:12Z</time>
      </trkpt>
      <trkpt lat="43.57236" lon="6.38264">
        <ele>611.6</ele>
        <time>2022-10-19T13:44:23Z</time>
      </trkpt>
      <trkpt lat="43.57235" lon="6.38257">
        <ele>611.4</ele>
        <time>2022-10-19T13:44:28Z</time>
      </trkpt>
      <trkpt lat="43.57238" lon="6.38251">
        <ele>611.1</ele>
        <time>2022-10-19T13:44:42Z</time>
      </trkpt>
      <trkpt lat="43.5724" lon="6.38245">
        <ele>610.5</ele>
        <time>2022-10-19T13:44:53Z</time>
      </trkpt>
      <trkpt lat="43.5724" lon="6.38238">
        <ele>610.3</ele>
        <time>2022-10-19T13:45:02Z</time>
      </trkpt>
      <trkpt lat="43.57242" lon="6.3823">
        <ele>610.4</ele>
        <time>2022-10-19T13:45:06Z</time>
      </trkpt>
      <trkpt lat="43.57239" lon="6.38224">
        <ele>610.2</ele>
        <time>2022-10-19T13:45:09Z</time>
      </trkpt>
      <trkpt lat="43.57239" lon="6.38216">
        <ele>609.8</ele>
        <time>2022-10-19T13:45:14Z</time>
      </trkpt>
      <trkpt lat="43.57241" lon="6.3821">
        <ele>609.5</ele>
        <time>2022-10-19T13:45:21Z</time>
      </trkpt>
      <trkpt lat="43.57241" lon="6.38203">
        <ele>609.3</ele>
        <time>2022-10-19T13:45:25Z</time>
      </trkpt>
      <trkpt lat="43.5724" lon="6.38197">
        <ele>609.1</ele>
        <time>2022-10-19T13:45:31Z</time>
      </trkpt>
      <trkpt lat="43.57242" lon="6.38191">
        <ele>608.9</ele>
        <time>2022-10-19T13:45:34Z</time>
      </trkpt>
      <trkpt lat="43.57243" lon="6.38184">
        <ele>608.8</ele>
        <time>2022-10-19T13:45:37Z</time>
      </trkpt>
      <trkpt lat="43.57245" lon="6.38177">
        <ele>608.7</ele>
        <time>2022-10-19T13:45:43Z</time>
      </trkpt>
      <trkpt lat="43.57245" lon="6.3817">
        <ele>608.5</ele>
        <time>2022-10-19T13:45:50Z</time>
      </trkpt>
      <trkpt lat="43.57243" lon="6.38165">
        <ele>608.1</ele>
        <time>2022-10-19T13:45:55Z</time>
      </trkpt>
      <trkpt lat="43.57244" lon="6.38157">
        <ele>608</ele>
        <time>2022-10-19T13:45:59Z</time>
      </trkpt>
      <trkpt lat="43.57243" lon="6.38151">
        <ele>607.8</ele>
        <time>2022-10-19T13:46:04Z</time>
      </trkpt>
      <trkpt lat="43.5724" lon="6.38145">
        <ele>607.7</ele>
        <time>2022-10-19T13:46:08Z</time>
      </trkpt>
      <trkpt lat="43.57238" lon="6.38138">
        <ele>607.3</ele>
        <time>2022-10-19T13:46:14Z</time>
      </trkpt>
      <trkpt lat="43.57238" lon="6.38131">
        <ele>606.8</ele>
        <time>2022-10-19T13:46:20Z</time>
      </trkpt>
      <trkpt lat="43.57235" lon="6.38125">
        <ele>606.6</ele>
        <time>2022-10-19T13:46:24Z</time>
      </trkpt>
      <trkpt lat="43.57235" lon="6.38117">
        <ele>606.7</ele>
        <time>2022-10-19T13:46:29Z</time>
      </trkpt>
      <trkpt lat="43.57234" lon="6.38111">
        <ele>606.9</ele>
        <time>2022-10-19T13:46:33Z</time>
      </trkpt>
      <trkpt lat="43.57235" lon="6.38104">
        <ele>606.8</ele>
        <time>2022-10-19T13:46:37Z</time>
      </trkpt>
      <trkpt lat="43.57235" lon="6.38097">
        <ele>606.7</ele>
        <time>2022-10-19T13:46:42Z</time>
      </trkpt>
      <trkpt lat="43.57237" lon="6.38091">
        <ele>606.4</ele>
        <time>2022-10-19T13:46:46Z</time>
      </trkpt>
      <trkpt lat="43.57239" lon="6.38083">
        <ele>606</ele>
        <time>2022-10-19T13:46:50Z</time>
      </trkpt>
      <trkpt lat="43.57241" lon="6.38076">
        <ele>605.6</ele>
        <time>2022-10-19T13:46:54Z</time>
      </trkpt>
      <trkpt lat="43.57242" lon="6.38069">
        <ele>605.2</ele>
        <time>2022-10-19T13:46:57Z</time>
      </trkpt>
      <trkpt lat="43.57243" lon="6.38062">
        <ele>604.9</ele>
        <time>2022-10-19T13:47:01Z</time>
      </trkpt>
      <trkpt lat="43.57245" lon="6.38056">
        <ele>604.6</ele>
        <time>2022-10-19T13:47:06Z</time>
      </trkpt>
      <trkpt lat="43.57248" lon="6.3805">
        <ele>604.7</ele>
        <time>2022-10-19T13:47:15Z</time>
      </trkpt>
      <trkpt lat="43.57249" lon="6.38044">
        <ele>605.1</ele>
        <time>2022-10-19T13:47:20Z</time>
      </trkpt>
      <trkpt lat="43.57249" lon="6.38036">
        <ele>605.2</ele>
        <time>2022-10-19T13:47:24Z</time>
      </trkpt>
      <trkpt lat="43.5725" lon="6.38028">
        <ele>604.9</ele>
        <time>2022-10-19T13:47:30Z</time>
      </trkpt>
      <trkpt lat="43.57254" lon="6.38023">
        <ele>604.6</ele>
        <time>2022-10-19T13:47:34Z</time>
      </trkpt>
      <trkpt lat="43.57257" lon="6.38019">
        <ele>603.6</ele>
        <time>2022-10-19T13:47:40Z</time>
      </trkpt>
      <trkpt lat="43.57262" lon="6.38013">
        <ele>602.3</ele>
        <time>2022-10-19T13:47:47Z</time>
      </trkpt>
      <trkpt lat="43.57266" lon="6.3801">
        <ele>602</ele>
        <time>2022-10-19T13:47:51Z</time>
      </trkpt>
      <trkpt lat="43.57271" lon="6.38007">
        <ele>601.4</ele>
        <time>2022-10-19T13:47:56Z</time>
      </trkpt>
      <trkpt lat="43.57274" lon="6.38003">
        <ele>600.9</ele>
        <time>2022-10-19T13:47:59Z</time>
      </trkpt>
      <trkpt lat="43.57279" lon="6.37999">
        <ele>600.2</ele>
        <time>2022-10-19T13:48:05Z</time>
      </trkpt>
      <trkpt lat="43.57283" lon="6.37995">
        <ele>599.5</ele>
        <time>2022-10-19T13:48:10Z</time>
      </trkpt>
      <trkpt lat="43.57288" lon="6.37992">
        <ele>598.8</ele>
        <time>2022-10-19T13:48:16Z</time>
      </trkpt>
      <trkpt lat="43.57292" lon="6.37991">
        <ele>597.8</ele>
        <time>2022-10-19T13:48:22Z</time>
      </trkpt>
      <trkpt lat="43.57297" lon="6.37989">
        <ele>597.2</ele>
        <time>2022-10-19T13:48:27Z</time>
      </trkpt>
      <trkpt lat="43.57302" lon="6.3799">
        <ele>596.9</ele>
        <time>2022-10-19T13:48:30Z</time>
      </trkpt>
      <trkpt lat="43.57307" lon="6.37987">
        <ele>596.5</ele>
        <time>2022-10-19T13:48:36Z</time>
      </trkpt>
      <trkpt lat="43.57311" lon="6.37986">
        <ele>596.1</ele>
        <time>2022-10-19T13:48:42Z</time>
      </trkpt>
      <trkpt lat="43.57316" lon="6.37983">
        <ele>595.4</ele>
        <time>2022-10-19T13:48:49Z</time>
      </trkpt>
      <trkpt lat="43.57321" lon="6.37981">
        <ele>594.4</ele>
        <time>2022-10-19T13:48:55Z</time>
      </trkpt>
      <trkpt lat="43.57326" lon="6.3798">
        <ele>593.6</ele>
        <time>2022-10-19T13:49:02Z</time>
      </trkpt>
      <trkpt lat="43.57331" lon="6.37981">
        <ele>593.2</ele>
        <time>2022-10-19T13:49:08Z</time>
      </trkpt>
      <trkpt lat="43.57336" lon="6.37979">
        <ele>592.9</ele>
        <time>2022-10-19T13:49:14Z</time>
      </trkpt>
      <trkpt lat="43.57341" lon="6.37982">
        <ele>592.8</ele>
        <time>2022-10-19T13:49:21Z</time>
      </trkpt>
      <trkpt lat="43.57346" lon="6.37984">
        <ele>592.7</ele>
        <time>2022-10-19T13:49:28Z</time>
      </trkpt>
      <trkpt lat="43.57351" lon="6.37987">
        <ele>593.1</ele>
        <time>2022-10-19T13:49:35Z</time>
      </trkpt>
      <trkpt lat="43.57356" lon="6.3799">
        <ele>593.6</ele>
        <time>2022-10-19T13:49:40Z</time>
      </trkpt>
      <trkpt lat="43.5736" lon="6.37992">
        <ele>594.3</ele>
        <time>2022-10-19T13:49:45Z</time>
      </trkpt>
      <trkpt lat="43.57365" lon="6.3799">
        <ele>594.7</ele>
        <time>2022-10-19T13:49:51Z</time>
      </trkpt>
      <trkpt lat="43.57369" lon="6.3799">
        <ele>595.1</ele>
        <time>2022-10-19T13:49:55Z</time>
      </trkpt>
      <trkpt lat="43.57374" lon="6.37991">
        <ele>595.8</ele>
        <time>2022-10-19T13:50:01Z</time>
      </trkpt>
      <trkpt lat="43.5738" lon="6.37992">
        <ele>596.1</ele>
        <time>2022-10-19T13:50:05Z</time>
      </trkpt>
      <trkpt lat="43.57385" lon="6.37992">
        <ele>596.4</ele>
        <time>2022-10-19T13:50:11Z</time>
      </trkpt>
      <trkpt lat="43.5739" lon="6.37993">
        <ele>596.6</ele>
        <time>2022-10-19T13:50:16Z</time>
      </trkpt>
      <trkpt lat="43.57395" lon="6.37993">
        <ele>596.8</ele>
        <time>2022-10-19T13:50:22Z</time>
      </trkpt>
      <trkpt lat="43.57401" lon="6.37995">
        <ele>596.9</ele>
        <time>2022-10-19T13:50:25Z</time>
      </trkpt>
      <trkpt lat="43.57405" lon="6.37997">
        <ele>597.1</ele>
        <time>2022-10-19T13:50:29Z</time>
      </trkpt>
      <trkpt lat="43.5741" lon="6.37998">
        <ele>597.3</ele>
        <time>2022-10-19T13:50:34Z</time>
      </trkpt>
      <trkpt lat="43.57415" lon="6.38">
        <ele>597.5</ele>
        <time>2022-10-19T13:50:40Z</time>
      </trkpt>
      <trkpt lat="43.57421" lon="6.38002">
        <ele>597.7</ele>
        <time>2022-10-19T13:50:45Z</time>
      </trkpt>
      <trkpt lat="43.57426" lon="6.38004">
        <ele>597.8</ele>
        <time>2022-10-19T13:50:50Z</time>
      </trkpt>
      <trkpt lat="43.57431" lon="6.38005">
        <ele>597.8</ele>
        <time>2022-10-19T13:50:53Z</time>
      </trkpt>
      <trkpt lat="43.57436" lon="6.38002">
        <ele>597.7</ele>
        <time>2022-10-19T13:50:56Z</time>
      </trkpt>
      <trkpt lat="43.5744" lon="6.37999">
        <ele>597.7</ele>
        <time>2022-10-19T13:51:01Z</time>
      </trkpt>
      <trkpt lat="43.57445" lon="6.37997">
        <ele>597.7</ele>
        <time>2022-10-19T13:51:06Z</time>
      </trkpt>
      <trkpt lat="43.5745" lon="6.37998">
        <ele>598</ele>
        <time>2022-10-19T13:51:11Z</time>
      </trkpt>
      <trkpt lat="43.57455" lon="6.37997">
        <ele>598.2</ele>
        <time>2022-10-19T13:51:14Z</time>
      </trkpt>
      <trkpt lat="43.57459" lon="6.37994">
        <ele>598.9</ele>
        <time>2022-10-19T13:51:20Z</time>
      </trkpt>
      <trkpt lat="43.57464" lon="6.37991">
        <ele>599.6</ele>
        <time>2022-10-19T13:51:25Z</time>
      </trkpt>
      <trkpt lat="43.57468" lon="6.37989">
        <ele>600.2</ele>
        <time>2022-10-19T13:51:29Z</time>
      </trkpt>
      <trkpt lat="43.57472" lon="6.37986">
        <ele>600.5</ele>
        <time>2022-10-19T13:51:33Z</time>
      </trkpt>
      <trkpt lat="43.57477" lon="6.37983">
        <ele>601.2</ele>
        <time>2022-10-19T13:51:38Z</time>
      </trkpt>
      <trkpt lat="43.5748" lon="6.37978">
        <ele>601.7</ele>
        <time>2022-10-19T13:51:43Z</time>
      </trkpt>
      <trkpt lat="43.57485" lon="6.37976">
        <ele>602</ele>
        <time>2022-10-19T13:51:46Z</time>
      </trkpt>
      <trkpt lat="43.57489" lon="6.37972">
        <ele>602.8</ele>
        <time>2022-10-19T13:51:51Z</time>
      </trkpt>
      <trkpt lat="43.57493" lon="6.37969">
        <ele>603.8</ele>
        <time>2022-10-19T13:51:56Z</time>
      </trkpt>
      <trkpt lat="43.57498" lon="6.37965">
        <ele>604.6</ele>
        <time>2022-10-19T13:52:00Z</time>
      </trkpt>
      <trkpt lat="43.57503" lon="6.37962">
        <ele>605.5</ele>
        <time>2022-10-19T13:52:04Z</time>
      </trkpt>
      <trkpt lat="43.57507" lon="6.37957">
        <ele>605.9</ele>
        <time>2022-10-19T13:52:07Z</time>
      </trkpt>
      <trkpt lat="43.57511" lon="6.37953">
        <ele>606.2</ele>
        <time>2022-10-19T13:52:10Z</time>
      </trkpt>
      <trkpt lat="43.57515" lon="6.3795">
        <ele>607</ele>
        <time>2022-10-19T13:52:15Z</time>
      </trkpt>
      <trkpt lat="43.5752" lon="6.37947">
        <ele>608.7</ele>
        <time>2022-10-19T13:52:25Z</time>
      </trkpt>
      <trkpt lat="43.57516" lon="6.37951">
        <ele>611.7</ele>
        <time>2022-10-19T13:52:46Z</time>
      </trkpt>
      <trkpt lat="43.5752" lon="6.37956">
        <ele>611.9</ele>
        <time>2022-10-19T13:52:50Z</time>
      </trkpt>
      <trkpt lat="43.57526" lon="6.37957">
        <ele>612.7</ele>
        <time>2022-10-19T13:52:55Z</time>
      </trkpt>
      <trkpt lat="43.5753" lon="6.37956">
        <ele>613.6</ele>
        <time>2022-10-19T13:53:00Z</time>
      </trkpt>
      <trkpt lat="43.57535" lon="6.37953">
        <ele>614.5</ele>
        <time>2022-10-19T13:53:04Z</time>
      </trkpt>
      <trkpt lat="43.5754" lon="6.37951">
        <ele>615.6</ele>
        <time>2022-10-19T13:53:09Z</time>
      </trkpt>
      <trkpt lat="43.57544" lon="6.37953">
        <ele>617</ele>
        <time>2022-10-19T13:53:15Z</time>
      </trkpt>
      <trkpt lat="43.57545" lon="6.37959">
        <ele>618</ele>
        <time>2022-10-19T13:53:21Z</time>
      </trkpt>
      <trkpt lat="43.5755" lon="6.37962">
        <ele>618.5</ele>
        <time>2022-10-19T13:53:25Z</time>
      </trkpt>
      <trkpt lat="43.57554" lon="6.37963">
        <ele>619.1</ele>
        <time>2022-10-19T13:53:29Z</time>
      </trkpt>
      <trkpt lat="43.57556" lon="6.37956">
        <ele>619.7</ele>
        <time>2022-10-19T13:53:33Z</time>
      </trkpt>
      <trkpt lat="43.57561" lon="6.37953">
        <ele>620.7</ele>
        <time>2022-10-19T13:53:39Z</time>
      </trkpt>
      <trkpt lat="43.57566" lon="6.37954">
        <ele>621.7</ele>
        <time>2022-10-19T13:53:45Z</time>
      </trkpt>
      <trkpt lat="43.57569" lon="6.3796">
        <ele>622.6</ele>
        <time>2022-10-19T13:53:52Z</time>
      </trkpt>
      <trkpt lat="43.57572" lon="6.37966">
        <ele>622.9</ele>
        <time>2022-10-19T13:53:55Z</time>
      </trkpt>
      <trkpt lat="43.57574" lon="6.37972">
        <ele>623.4</ele>
        <time>2022-10-19T13:54:01Z</time>
      </trkpt>
      <trkpt lat="43.57577" lon="6.37977">
        <ele>624</ele>
        <time>2022-10-19T13:54:08Z</time>
      </trkpt>
      <trkpt lat="43.57581" lon="6.37983">
        <ele>624.5</ele>
        <time>2022-10-19T13:54:15Z</time>
      </trkpt>
      <trkpt lat="43.57584" lon="6.37988">
        <ele>624.9</ele>
        <time>2022-10-19T13:54:20Z</time>
      </trkpt>
      <trkpt lat="43.57587" lon="6.37995">
        <ele>625.3</ele>
        <time>2022-10-19T13:54:25Z</time>
      </trkpt>
      <trkpt lat="43.5759" lon="6.38001">
        <ele>625.7</ele>
        <time>2022-10-19T13:54:29Z</time>
      </trkpt>
      <trkpt lat="43.57592" lon="6.38007">
        <ele>626.4</ele>
        <time>2022-10-19T13:54:35Z</time>
      </trkpt>
      <trkpt lat="43.57595" lon="6.38013">
        <ele>626.9</ele>
        <time>2022-10-19T13:54:39Z</time>
      </trkpt>
      <trkpt lat="43.57599" lon="6.38017">
        <ele>627.5</ele>
        <time>2022-10-19T13:54:44Z</time>
      </trkpt>
      <trkpt lat="43.57604" lon="6.38017">
        <ele>627.9</ele>
        <time>2022-10-19T13:54:47Z</time>
      </trkpt>
      <trkpt lat="43.57609" lon="6.38018">
        <ele>628.3</ele>
        <time>2022-10-19T13:54:51Z</time>
      </trkpt>
      <trkpt lat="43.57613" lon="6.38019">
        <ele>629.4</ele>
        <time>2022-10-19T13:54:58Z</time>
      </trkpt>
      <trkpt lat="43.57618" lon="6.38021">
        <ele>630</ele>
        <time>2022-10-19T13:55:02Z</time>
      </trkpt>
      <trkpt lat="43.57623" lon="6.38022">
        <ele>630.7</ele>
        <time>2022-10-19T13:55:06Z</time>
      </trkpt>
      <trkpt lat="43.57628" lon="6.38021">
        <ele>631.7</ele>
        <time>2022-10-19T13:55:12Z</time>
      </trkpt>
      <trkpt lat="43.57633" lon="6.38019">
        <ele>632.7</ele>
        <time>2022-10-19T13:55:18Z</time>
      </trkpt>
      <trkpt lat="43.57637" lon="6.38019">
        <ele>633.9</ele>
        <time>2022-10-19T13:55:23Z</time>
      </trkpt>
      <trkpt lat="43.57642" lon="6.38015">
        <ele>634.9</ele>
        <time>2022-10-19T13:55:28Z</time>
      </trkpt>
      <trkpt lat="43.57646" lon="6.38014">
        <ele>636</ele>
        <time>2022-10-19T13:55:36Z</time>
      </trkpt>
      <trkpt lat="43.5765" lon="6.3801">
        <ele>636.2</ele>
        <time>2022-10-19T13:55:42Z</time>
      </trkpt>
      <trkpt lat="43.5765" lon="6.38004">
        <ele>636.2</ele>
        <time>2022-10-19T13:56:13Z</time>
      </trkpt>
      <trkpt lat="43.57652" lon="6.3801">
        <ele>635.6</ele>
        <time>2022-10-19T13:58:02Z</time>
      </trkpt>
      <trkpt lat="43.57655" lon="6.38014">
        <ele>635.5</ele>
        <time>2022-10-19T13:59:09Z</time>
      </trkpt>
      <trkpt lat="43.57652" lon="6.38009">
        <ele>635.5</ele>
        <time>2022-10-19T13:59:35Z</time>
      </trkpt>
      <trkpt lat="43.57655" lon="6.38015">
        <ele>635.3</ele>
        <time>2022-10-19T13:59:54Z</time>
      </trkpt>
      <trkpt lat="43.57652" lon="6.3802">
        <ele>635.1</ele>
        <time>2022-10-19T14:00:28Z</time>
      </trkpt>
      <trkpt lat="43.57652" lon="6.38026">
        <ele>634.5</ele>
        <time>2022-10-19T14:00:36Z</time>
      </trkpt>
      <trkpt lat="43.5765" lon="6.38033">
        <ele>633.8</ele>
        <time>2022-10-19T14:00:43Z</time>
      </trkpt>
      <trkpt lat="43.57651" lon="6.38039">
        <ele>633.4</ele>
        <time>2022-10-19T14:00:47Z</time>
      </trkpt>
      <trkpt lat="43.5765" lon="6.38047">
        <ele>633</ele>
        <time>2022-10-19T14:00:51Z</time>
      </trkpt>
      <trkpt lat="43.5765" lon="6.38055">
        <ele>632.6</ele>
        <time>2022-10-19T14:00:55Z</time>
      </trkpt>
      <trkpt lat="43.57652" lon="6.38061">
        <ele>632.4</ele>
        <time>2022-10-19T14:00:58Z</time>
      </trkpt>
      <trkpt lat="43.57653" lon="6.38068">
        <ele>632.1</ele>
        <time>2022-10-19T14:01:03Z</time>
      </trkpt>
      <trkpt lat="43.57654" lon="6.38075">
        <ele>631.5</ele>
        <time>2022-10-19T14:01:10Z</time>
      </trkpt>
      <trkpt lat="43.57656" lon="6.3808">
        <ele>631.1</ele>
        <time>2022-10-19T14:01:14Z</time>
      </trkpt>
      <trkpt lat="43.57655" lon="6.38087">
        <ele>630.5</ele>
        <time>2022-10-19T14:01:18Z</time>
      </trkpt>
      <trkpt lat="43.57651" lon="6.38094">
        <ele>629.8</ele>
        <time>2022-10-19T14:01:22Z</time>
      </trkpt>
      <trkpt lat="43.57649" lon="6.38101">
        <ele>629.5</ele>
        <time>2022-10-19T14:01:26Z</time>
      </trkpt>
      <trkpt lat="43.57651" lon="6.38107">
        <ele>628.9</ele>
        <time>2022-10-19T14:01:31Z</time>
      </trkpt>
      <trkpt lat="43.57646" lon="6.38112">
        <ele>628.4</ele>
        <time>2022-10-19T14:01:39Z</time>
      </trkpt>
      <trkpt lat="43.57641" lon="6.38116">
        <ele>628.1</ele>
        <time>2022-10-19T14:01:42Z</time>
      </trkpt>
      <trkpt lat="43.57637" lon="6.38121">
        <ele>627.7</ele>
        <time>2022-10-19T14:01:46Z</time>
      </trkpt>
      <trkpt lat="43.57635" lon="6.38126">
        <ele>627.3</ele>
        <time>2022-10-19T14:01:49Z</time>
      </trkpt>
      <trkpt lat="43.5763" lon="6.38131">
        <ele>626.8</ele>
        <time>2022-10-19T14:01:53Z</time>
      </trkpt>
      <trkpt lat="43.57625" lon="6.38134">
        <ele>626.4</ele>
        <time>2022-10-19T14:01:56Z</time>
      </trkpt>
      <trkpt lat="43.57621" lon="6.38137">
        <ele>625.8</ele>
        <time>2022-10-19T14:02:02Z</time>
      </trkpt>
      <trkpt lat="43.5762" lon="6.38144">
        <ele>625.4</ele>
        <time>2022-10-19T14:02:07Z</time>
      </trkpt>
      <trkpt lat="43.57619" lon="6.38151">
        <ele>625</ele>
        <time>2022-10-19T14:02:12Z</time>
      </trkpt>
      <trkpt lat="43.57617" lon="6.38157">
        <ele>624.8</ele>
        <time>2022-10-19T14:02:15Z</time>
      </trkpt>
      <trkpt lat="43.57616" lon="6.38164">
        <ele>624.6</ele>
        <time>2022-10-19T14:02:18Z</time>
      </trkpt>
      <trkpt lat="43.57616" lon="6.38171">
        <ele>624.3</ele>
        <time>2022-10-19T14:02:21Z</time>
      </trkpt>
      <trkpt lat="43.57615" lon="6.38178">
        <ele>624.2</ele>
        <time>2022-10-19T14:02:24Z</time>
      </trkpt>
      <trkpt lat="43.57615" lon="6.38184">
        <ele>624.1</ele>
        <time>2022-10-19T14:02:27Z</time>
      </trkpt>
      <trkpt lat="43.57613" lon="6.38193">
        <ele>624</ele>
        <time>2022-10-19T14:02:31Z</time>
      </trkpt>
      <trkpt lat="43.57612" lon="6.382">
        <ele>624</ele>
        <time>2022-10-19T14:02:35Z</time>
      </trkpt>
      <trkpt lat="43.57611" lon="6.38206">
        <ele>623.7</ele>
        <time>2022-10-19T14:02:40Z</time>
      </trkpt>
      <trkpt lat="43.5761" lon="6.38213">
        <ele>623.5</ele>
        <time>2022-10-19T14:02:44Z</time>
      </trkpt>
      <trkpt lat="43.57609" lon="6.38219">
        <ele>623.4</ele>
        <time>2022-10-19T14:02:47Z</time>
      </trkpt>
      <trkpt lat="43.57608" lon="6.38227">
        <ele>623.3</ele>
        <time>2022-10-19T14:02:51Z</time>
      </trkpt>
      <trkpt lat="43.57606" lon="6.38234">
        <ele>623.3</ele>
        <time>2022-10-19T14:02:54Z</time>
      </trkpt>
      <trkpt lat="43.57604" lon="6.38242">
        <ele>623.2</ele>
        <time>2022-10-19T14:02:57Z</time>
      </trkpt>
      <trkpt lat="43.57604" lon="6.3825">
        <ele>623.2</ele>
        <time>2022-10-19T14:03:00Z</time>
      </trkpt>
      <trkpt lat="43.57602" lon="6.38257">
        <ele>623.1</ele>
        <time>2022-10-19T14:03:03Z</time>
      </trkpt>
      <trkpt lat="43.57601" lon="6.38264">
        <ele>622.7</ele>
        <time>2022-10-19T14:03:08Z</time>
      </trkpt>
      <trkpt lat="43.57601" lon="6.38272">
        <ele>621.8</ele>
        <time>2022-10-19T14:03:13Z</time>
      </trkpt>
      <trkpt lat="43.57599" lon="6.38279">
        <ele>620.9</ele>
        <time>2022-10-19T14:03:18Z</time>
      </trkpt>
      <trkpt lat="43.57597" lon="6.38285">
        <ele>619.9</ele>
        <time>2022-10-19T14:03:23Z</time>
      </trkpt>
      <trkpt lat="43.576" lon="6.38292">
        <ele>618.6</ele>
        <time>2022-10-19T14:03:29Z</time>
      </trkpt>
      <trkpt lat="43.57605" lon="6.38298">
        <ele>617.6</ele>
        <time>2022-10-19T14:03:34Z</time>
      </trkpt>
      <trkpt lat="43.57609" lon="6.383">
        <ele>616.6</ele>
        <time>2022-10-19T14:03:39Z</time>
      </trkpt>
      <trkpt lat="43.57613" lon="6.38304">
        <ele>615.9</ele>
        <time>2022-10-19T14:03:44Z</time>
      </trkpt>
      <trkpt lat="43.57617" lon="6.38308">
        <ele>615.7</ele>
        <time>2022-10-19T14:03:47Z</time>
      </trkpt>
      <trkpt lat="43.57621" lon="6.38313">
        <ele>615.5</ele>
        <time>2022-10-19T14:03:50Z</time>
      </trkpt>
      <trkpt lat="43.57625" lon="6.38318">
        <ele>615.6</ele>
        <time>2022-10-19T14:03:53Z</time>
      </trkpt>
      <trkpt lat="43.57627" lon="6.38325">
        <ele>615.7</ele>
        <time>2022-10-19T14:03:57Z</time>
      </trkpt>
      <trkpt lat="43.57629" lon="6.38332">
        <ele>615.6</ele>
        <time>2022-10-19T14:04:01Z</time>
      </trkpt>
      <trkpt lat="43.5763" lon="6.38339">
        <ele>615.3</ele>
        <time>2022-10-19T14:04:07Z</time>
      </trkpt>
      <trkpt lat="43.5763" lon="6.38345">
        <ele>615.2</ele>
        <time>2022-10-19T14:04:11Z</time>
      </trkpt>
      <trkpt lat="43.57629" lon="6.38352">
        <ele>615.2</ele>
        <time>2022-10-19T14:04:16Z</time>
      </trkpt>
      <trkpt lat="43.57629" lon="6.38358">
        <ele>615.2</ele>
        <time>2022-10-19T14:04:20Z</time>
      </trkpt>
      <trkpt lat="43.57628" lon="6.38366">
        <ele>615.3</ele>
        <time>2022-10-19T14:04:27Z</time>
      </trkpt>
      <trkpt lat="43.57627" lon="6.38373">
        <ele>615.4</ele>
        <time>2022-10-19T14:04:31Z</time>
      </trkpt>
      <trkpt lat="43.57623" lon="6.38379">
        <ele>615.4</ele>
        <time>2022-10-19T14:04:35Z</time>
      </trkpt>
      <trkpt lat="43.5762" lon="6.38383">
        <ele>615.3</ele>
        <time>2022-10-19T14:04:38Z</time>
      </trkpt>
      <trkpt lat="43.57617" lon="6.38388">
        <ele>615.2</ele>
        <time>2022-10-19T14:04:42Z</time>
      </trkpt>
      <trkpt lat="43.57612" lon="6.38394">
        <ele>615</ele>
        <time>2022-10-19T14:04:45Z</time>
      </trkpt>
      <trkpt lat="43.57609" lon="6.38401">
        <ele>614.8</ele>
        <time>2022-10-19T14:04:48Z</time>
      </trkpt>
      <trkpt lat="43.57607" lon="6.38408">
        <ele>614.6</ele>
        <time>2022-10-19T14:04:51Z</time>
      </trkpt>
      <trkpt lat="43.57605" lon="6.38414">
        <ele>614.5</ele>
        <time>2022-10-19T14:04:55Z</time>
      </trkpt>
      <trkpt lat="43.57605" lon="6.38422">
        <ele>614.2</ele>
        <time>2022-10-19T14:05:01Z</time>
      </trkpt>
      <trkpt lat="43.57604" lon="6.38428">
        <ele>613.9</ele>
        <time>2022-10-19T14:05:05Z</time>
      </trkpt>
      <trkpt lat="43.57602" lon="6.38437">
        <ele>613.6</ele>
        <time>2022-10-19T14:05:09Z</time>
      </trkpt>
      <trkpt lat="43.576" lon="6.38443">
        <ele>613.2</ele>
        <time>2022-10-19T14:05:12Z</time>
      </trkpt>
      <trkpt lat="43.576" lon="6.38449">
        <ele>612.9</ele>
        <time>2022-10-19T14:05:15Z</time>
      </trkpt>
      <trkpt lat="43.57598" lon="6.38457">
        <ele>612.5</ele>
        <time>2022-10-19T14:05:19Z</time>
      </trkpt>
      <trkpt lat="43.57598" lon="6.38463">
        <ele>612.1</ele>
        <time>2022-10-19T14:05:23Z</time>
      </trkpt>
      <trkpt lat="43.57598" lon="6.38472">
        <ele>611.7</ele>
        <time>2022-10-19T14:05:27Z</time>
      </trkpt>
      <trkpt lat="43.57599" lon="6.38479">
        <ele>611.5</ele>
        <time>2022-10-19T14:05:30Z</time>
      </trkpt>
      <trkpt lat="43.57598" lon="6.38486">
        <ele>611.5</ele>
        <time>2022-10-19T14:05:34Z</time>
      </trkpt>
      <trkpt lat="43.57598" lon="6.38493">
        <ele>611.7</ele>
        <time>2022-10-19T14:05:38Z</time>
      </trkpt>
      <trkpt lat="43.57598" lon="6.385">
        <ele>612.1</ele>
        <time>2022-10-19T14:05:43Z</time>
      </trkpt>
      <trkpt lat="43.57598" lon="6.38506">
        <ele>612.8</ele>
        <time>2022-10-19T14:05:49Z</time>
      </trkpt>
      <trkpt lat="43.57601" lon="6.38513">
        <ele>613.2</ele>
        <time>2022-10-19T14:05:54Z</time>
      </trkpt>
      <trkpt lat="43.57598" lon="6.38518">
        <ele>613.5</ele>
        <time>2022-10-19T14:05:59Z</time>
      </trkpt>
      <trkpt lat="43.57596" lon="6.38526">
        <ele>614.1</ele>
        <time>2022-10-19T14:06:03Z</time>
      </trkpt>
      <trkpt lat="43.57595" lon="6.38532">
        <ele>614.9</ele>
        <time>2022-10-19T14:06:07Z</time>
      </trkpt>
      <trkpt lat="43.5759" lon="6.38536">
        <ele>615.4</ele>
        <time>2022-10-19T14:06:11Z</time>
      </trkpt>
      <trkpt lat="43.57588" lon="6.38544">
        <ele>615.8</ele>
        <time>2022-10-19T14:06:14Z</time>
      </trkpt>
      <trkpt lat="43.57588" lon="6.38551">
        <ele>616.4</ele>
        <time>2022-10-19T14:06:18Z</time>
      </trkpt>
      <trkpt lat="43.57589" lon="6.38557">
        <ele>617</ele>
        <time>2022-10-19T14:06:22Z</time>
      </trkpt>
      <trkpt lat="43.57588" lon="6.38565">
        <ele>617.7</ele>
        <time>2022-10-19T14:06:26Z</time>
      </trkpt>
      <trkpt lat="43.57589" lon="6.38572">
        <ele>618.1</ele>
        <time>2022-10-19T14:06:29Z</time>
      </trkpt>
      <trkpt lat="43.57592" lon="6.38578">
        <ele>618.5</ele>
        <time>2022-10-19T14:06:32Z</time>
      </trkpt>
      <trkpt lat="43.57596" lon="6.38583">
        <ele>618.9</ele>
        <time>2022-10-19T14:06:35Z</time>
      </trkpt>
      <trkpt lat="43.57601" lon="6.38591">
        <ele>619.2</ele>
        <time>2022-10-19T14:06:37Z</time>
      </trkpt>
      <trkpt lat="43.57603" lon="6.38599">
        <ele>619.5</ele>
        <time>2022-10-19T14:06:40Z</time>
      </trkpt>
      <trkpt lat="43.57606" lon="6.38604">
        <ele>620</ele>
        <time>2022-10-19T14:06:45Z</time>
      </trkpt>
      <trkpt lat="43.57605" lon="6.38611">
        <ele>620.4</ele>
        <time>2022-10-19T14:06:49Z</time>
      </trkpt>
      <trkpt lat="43.57605" lon="6.38617">
        <ele>620.9</ele>
        <time>2022-10-19T14:06:52Z</time>
      </trkpt>
      <trkpt lat="43.57606" lon="6.38624">
        <ele>621.4</ele>
        <time>2022-10-19T14:06:56Z</time>
      </trkpt>
      <trkpt lat="43.57605" lon="6.3863">
        <ele>621.9</ele>
        <time>2022-10-19T14:07:01Z</time>
      </trkpt>
      <trkpt lat="43.57604" lon="6.38637">
        <ele>622.5</ele>
        <time>2022-10-19T14:07:05Z</time>
      </trkpt>
      <trkpt lat="43.57604" lon="6.38644">
        <ele>623.2</ele>
        <time>2022-10-19T14:07:10Z</time>
      </trkpt>
      <trkpt lat="43.57604" lon="6.38652">
        <ele>623.5</ele>
        <time>2022-10-19T14:07:14Z</time>
      </trkpt>
      <trkpt lat="43.57604" lon="6.38659">
        <ele>624.2</ele>
        <time>2022-10-19T14:07:19Z</time>
      </trkpt>
      <trkpt lat="43.57604" lon="6.38666">
        <ele>625</ele>
        <time>2022-10-19T14:07:25Z</time>
      </trkpt>
      <trkpt lat="43.57603" lon="6.38673">
        <ele>625.5</ele>
        <time>2022-10-19T14:07:28Z</time>
      </trkpt>
      <trkpt lat="43.57605" lon="6.38679">
        <ele>626.3</ele>
        <time>2022-10-19T14:07:33Z</time>
      </trkpt>
      <trkpt lat="43.57608" lon="6.38686">
        <ele>627.1</ele>
        <time>2022-10-19T14:07:38Z</time>
      </trkpt>
      <trkpt lat="43.57609" lon="6.38692">
        <ele>627.6</ele>
        <time>2022-10-19T14:07:42Z</time>
      </trkpt>
      <trkpt lat="43.57611" lon="6.38698">
        <ele>627.9</ele>
        <time>2022-10-19T14:07:46Z</time>
      </trkpt>
      <trkpt lat="43.57612" lon="6.38705">
        <ele>628.5</ele>
        <time>2022-10-19T14:07:51Z</time>
      </trkpt>
      <trkpt lat="43.57615" lon="6.38712">
        <ele>629.1</ele>
        <time>2022-10-19T14:07:57Z</time>
      </trkpt>
      <trkpt lat="43.57617" lon="6.3872">
        <ele>629.5</ele>
        <time>2022-10-19T14:08:02Z</time>
      </trkpt>
      <trkpt lat="43.5762" lon="6.38726">
        <ele>629.8</ele>
        <time>2022-10-19T14:08:05Z</time>
      </trkpt>
      <trkpt lat="43.57621" lon="6.38733">
        <ele>630.1</ele>
        <time>2022-10-19T14:08:08Z</time>
      </trkpt>
      <trkpt lat="43.57623" lon="6.38739">
        <ele>630.2</ele>
        <time>2022-10-19T14:08:12Z</time>
      </trkpt>
      <trkpt lat="43.57625" lon="6.38745">
        <ele>630.1</ele>
        <time>2022-10-19T14:08:15Z</time>
      </trkpt>
      <trkpt lat="43.57628" lon="6.38751">
        <ele>629.9</ele>
        <time>2022-10-19T14:08:18Z</time>
      </trkpt>
      <trkpt lat="43.57628" lon="6.38757">
        <ele>629.6</ele>
        <time>2022-10-19T14:08:21Z</time>
      </trkpt>
      <trkpt lat="43.57628" lon="6.38765">
        <ele>629.4</ele>
        <time>2022-10-19T14:08:25Z</time>
      </trkpt>
      <trkpt lat="43.57627" lon="6.38772">
        <ele>629.3</ele>
        <time>2022-10-19T14:08:28Z</time>
      </trkpt>
      <trkpt lat="43.57623" lon="6.38777">
        <ele>629.3</ele>
        <time>2022-10-19T14:08:31Z</time>
      </trkpt>
      <trkpt lat="43.57622" lon="6.38783">
        <ele>629.3</ele>
        <time>2022-10-19T14:08:34Z</time>
      </trkpt>
      <trkpt lat="43.57621" lon="6.38791">
        <ele>629.3</ele>
        <time>2022-10-19T14:08:38Z</time>
      </trkpt>
      <trkpt lat="43.57621" lon="6.38797">
        <ele>629.6</ele>
        <time>2022-10-19T14:08:43Z</time>
      </trkpt>
      <trkpt lat="43.57619" lon="6.38805">
        <ele>629.9</ele>
        <time>2022-10-19T14:08:48Z</time>
      </trkpt>
      <trkpt lat="43.57617" lon="6.38811">
        <ele>630.2</ele>
        <time>2022-10-19T14:08:53Z</time>
      </trkpt>
      <trkpt lat="43.57617" lon="6.38817">
        <ele>630.4</ele>
        <time>2022-10-19T14:08:56Z</time>
      </trkpt>
      <trkpt lat="43.57618" lon="6.38825">
        <ele>630.3</ele>
        <time>2022-10-19T14:08:59Z</time>
      </trkpt>
      <trkpt lat="43.57618" lon="6.38834">
        <ele>630.2</ele>
        <time>2022-10-19T14:09:03Z</time>
      </trkpt>
      <trkpt lat="43.57618" lon="6.3884">
        <ele>630.1</ele>
        <time>2022-10-19T14:09:06Z</time>
      </trkpt>
      <trkpt lat="43.57618" lon="6.38847">
        <ele>629.8</ele>
        <time>2022-10-19T14:09:09Z</time>
      </trkpt>
      <trkpt lat="43.57617" lon="6.38856">
        <ele>629.5</ele>
        <time>2022-10-19T14:09:12Z</time>
      </trkpt>
      <trkpt lat="43.57618" lon="6.38865">
        <ele>629.3</ele>
        <time>2022-10-19T14:09:15Z</time>
      </trkpt>
      <trkpt lat="43.57618" lon="6.38872">
        <ele>629</ele>
        <time>2022-10-19T14:09:18Z</time>
      </trkpt>
      <trkpt lat="43.57619" lon="6.3888">
        <ele>628.5</ele>
        <time>2022-10-19T14:09:22Z</time>
      </trkpt>
      <trkpt lat="43.57618" lon="6.38887">
        <ele>627.8</ele>
        <time>2022-10-19T14:09:26Z</time>
      </trkpt>
      <trkpt lat="43.57617" lon="6.38893">
        <ele>626.8</ele>
        <time>2022-10-19T14:09:32Z</time>
      </trkpt>
      <trkpt lat="43.57616" lon="6.389">
        <ele>625.8</ele>
        <time>2022-10-19T14:09:38Z</time>
      </trkpt>
      <trkpt lat="43.57615" lon="6.38906">
        <ele>624.9</ele>
        <time>2022-10-19T14:09:43Z</time>
      </trkpt>
      <trkpt lat="43.57616" lon="6.38913">
        <ele>623.9</ele>
        <time>2022-10-19T14:09:48Z</time>
      </trkpt>
      <trkpt lat="43.57616" lon="6.3892">
        <ele>623.2</ele>
        <time>2022-10-19T14:09:52Z</time>
      </trkpt>
      <trkpt lat="43.57618" lon="6.38927">
        <ele>622.6</ele>
        <time>2022-10-19T14:09:56Z</time>
      </trkpt>
      <trkpt lat="43.5762" lon="6.38934">
        <ele>622.1</ele>
        <time>2022-10-19T14:10:00Z</time>
      </trkpt>
      <trkpt lat="43.57622" lon="6.3894">
        <ele>621.6</ele>
        <time>2022-10-19T14:10:03Z</time>
      </trkpt>
      <trkpt lat="43.57624" lon="6.38947">
        <ele>621.2</ele>
        <time>2022-10-19T14:10:06Z</time>
      </trkpt>
      <trkpt lat="43.57626" lon="6.38953">
        <ele>620.7</ele>
        <time>2022-10-19T14:10:09Z</time>
      </trkpt>
      <trkpt lat="43.57629" lon="6.38957">
        <ele>619.9</ele>
        <time>2022-10-19T14:10:13Z</time>
      </trkpt>
      <trkpt lat="43.5763" lon="6.38966">
        <ele>619.2</ele>
        <time>2022-10-19T14:10:17Z</time>
      </trkpt>
      <trkpt lat="43.57632" lon="6.38972">
        <ele>618.6</ele>
        <time>2022-10-19T14:10:20Z</time>
      </trkpt>
      <trkpt lat="43.57635" lon="6.38979">
        <ele>618</ele>
        <time>2022-10-19T14:10:23Z</time>
      </trkpt>
      <trkpt lat="43.57638" lon="6.38987">
        <ele>617.4</ele>
        <time>2022-10-19T14:10:26Z</time>
      </trkpt>
      <trkpt lat="43.5764" lon="6.38993">
        <ele>617</ele>
        <time>2022-10-19T14:10:29Z</time>
      </trkpt>
      <trkpt lat="43.57643" lon="6.38998">
        <ele>616.7</ele>
        <time>2022-10-19T14:10:32Z</time>
      </trkpt>
      <trkpt lat="43.57647" lon="6.39005">
        <ele>616.3</ele>
        <time>2022-10-19T14:10:37Z</time>
      </trkpt>
      <trkpt lat="43.5765" lon="6.39009">
        <ele>616.1</ele>
        <time>2022-10-19T14:10:41Z</time>
      </trkpt>
      <trkpt lat="43.57653" lon="6.39014">
        <ele>616</ele>
        <time>2022-10-19T14:10:44Z</time>
      </trkpt>
      <trkpt lat="43.57657" lon="6.39018">
        <ele>615.9</ele>
        <time>2022-10-19T14:10:47Z</time>
      </trkpt>
      <trkpt lat="43.57661" lon="6.39021">
        <ele>616</ele>
        <time>2022-10-19T14:10:49Z</time>
      </trkpt>
      <trkpt lat="43.57666" lon="6.39028">
        <ele>616.1</ele>
        <time>2022-10-19T14:10:53Z</time>
      </trkpt>
      <trkpt lat="43.57669" lon="6.39032">
        <ele>616.2</ele>
        <time>2022-10-19T14:10:58Z</time>
      </trkpt>
      <trkpt lat="43.57674" lon="6.39036">
        <ele>616.1</ele>
        <time>2022-10-19T14:11:02Z</time>
      </trkpt>
      <trkpt lat="43.57678" lon="6.39041">
        <ele>616.1</ele>
        <time>2022-10-19T14:11:05Z</time>
      </trkpt>
      <trkpt lat="43.57682" lon="6.39044">
        <ele>616.2</ele>
        <time>2022-10-19T14:11:08Z</time>
      </trkpt>
      <trkpt lat="43.57686" lon="6.39047">
        <ele>616.5</ele>
        <time>2022-10-19T14:11:13Z</time>
      </trkpt>
      <trkpt lat="43.5769" lon="6.39052">
        <ele>616.8</ele>
        <time>2022-10-19T14:11:18Z</time>
      </trkpt>
      <trkpt lat="43.57695" lon="6.39057">
        <ele>617.1</ele>
        <time>2022-10-19T14:11:22Z</time>
      </trkpt>
      <trkpt lat="43.57699" lon="6.3906">
        <ele>617.3</ele>
        <time>2022-10-19T14:11:26Z</time>
      </trkpt>
      <trkpt lat="43.57703" lon="6.39065">
        <ele>617.6</ele>
        <time>2022-10-19T14:11:30Z</time>
      </trkpt>
      <trkpt lat="43.57706" lon="6.39069">
        <ele>617.7</ele>
        <time>2022-10-19T14:11:33Z</time>
      </trkpt>
      <trkpt lat="43.57711" lon="6.39073">
        <ele>617.9</ele>
        <time>2022-10-19T14:11:36Z</time>
      </trkpt>
      <trkpt lat="43.57716" lon="6.39076">
        <ele>618.1</ele>
        <time>2022-10-19T14:11:40Z</time>
      </trkpt>
      <trkpt lat="43.5772" lon="6.39079">
        <ele>618.2</ele>
        <time>2022-10-19T14:11:45Z</time>
      </trkpt>
      <trkpt lat="43.57725" lon="6.39083">
        <ele>618.1</ele>
        <time>2022-10-19T14:11:49Z</time>
      </trkpt>
      <trkpt lat="43.57729" lon="6.39088">
        <ele>618</ele>
        <time>2022-10-19T14:11:53Z</time>
      </trkpt>
      <trkpt lat="43.57732" lon="6.39094">
        <ele>617.4</ele>
        <time>2022-10-19T14:12:00Z</time>
      </trkpt>
      <trkpt lat="43.57735" lon="6.39098">
        <ele>616.9</ele>
        <time>2022-10-19T14:12:06Z</time>
      </trkpt>
      <trkpt lat="43.57739" lon="6.39102">
        <ele>616.5</ele>
        <time>2022-10-19T14:12:12Z</time>
      </trkpt>
      <trkpt lat="43.57744" lon="6.39106">
        <ele>616.4</ele>
        <time>2022-10-19T14:12:16Z</time>
      </trkpt>
      <trkpt lat="43.57748" lon="6.39109">
        <ele>615.7</ele>
        <time>2022-10-19T14:12:47Z</time>
      </trkpt>
      <trkpt lat="43.57752" lon="6.39108">
        <ele>615.4</ele>
        <time>2022-10-19T14:13:31Z</time>
      </trkpt>
      <trkpt lat="43.57755" lon="6.39104">
        <ele>615.5</ele>
        <time>2022-10-19T14:13:44Z</time>
      </trkpt>
      <trkpt lat="43.57753" lon="6.3911">
        <ele>615.5</ele>
        <time>2022-10-19T14:13:59Z</time>
      </trkpt>
      <trkpt lat="43.57749" lon="6.39112">
        <ele>615.7</ele>
        <time>2022-10-19T14:15:48Z</time>
      </trkpt>
      <trkpt lat="43.57744" lon="6.39111">
        <ele>615.7</ele>
        <time>2022-10-19T14:16:13Z</time>
      </trkpt>
      <trkpt lat="43.57746" lon="6.39116">
        <ele>616.7</ele>
        <time>2022-10-19T14:16:29Z</time>
      </trkpt>
      <trkpt lat="43.5775" lon="6.39118">
        <ele>616.9</ele>
        <time>2022-10-19T14:17:10Z</time>
      </trkpt>
      <trkpt lat="43.57745" lon="6.3912">
        <ele>616.1</ele>
        <time>2022-10-19T14:17:34Z</time>
      </trkpt>
      <trkpt lat="43.57741" lon="6.3912">
        <ele>615.8</ele>
        <time>2022-10-19T14:17:38Z</time>
      </trkpt>
      <trkpt lat="43.57735" lon="6.3912">
        <ele>615.4</ele>
        <time>2022-10-19T14:17:45Z</time>
      </trkpt>
      <trkpt lat="43.5773" lon="6.39122">
        <ele>615.2</ele>
        <time>2022-10-19T14:17:50Z</time>
      </trkpt>
      <trkpt lat="43.57724" lon="6.39123">
        <ele>614.8</ele>
        <time>2022-10-19T14:17:54Z</time>
      </trkpt>
      <trkpt lat="43.57719" lon="6.39125">
        <ele>614.4</ele>
        <time>2022-10-19T14:17:58Z</time>
      </trkpt>
      <trkpt lat="43.57716" lon="6.3913">
        <ele>613.8</ele>
        <time>2022-10-19T14:18:04Z</time>
      </trkpt>
      <trkpt lat="43.57711" lon="6.39134">
        <ele>613.1</ele>
        <time>2022-10-19T14:18:09Z</time>
      </trkpt>
      <trkpt lat="43.57706" lon="6.39136">
        <ele>612.6</ele>
        <time>2022-10-19T14:18:12Z</time>
      </trkpt>
      <trkpt lat="43.57701" lon="6.39138">
        <ele>612.2</ele>
        <time>2022-10-19T14:18:15Z</time>
      </trkpt>
      <trkpt lat="43.57696" lon="6.39141">
        <ele>611.8</ele>
        <time>2022-10-19T14:18:18Z</time>
      </trkpt>
      <trkpt lat="43.57691" lon="6.39146">
        <ele>611.4</ele>
        <time>2022-10-19T14:18:22Z</time>
      </trkpt>
      <trkpt lat="43.57687" lon="6.39151">
        <ele>610.8</ele>
        <time>2022-10-19T14:18:26Z</time>
      </trkpt>
      <trkpt lat="43.57683" lon="6.39154">
        <ele>610.4</ele>
        <time>2022-10-19T14:18:29Z</time>
      </trkpt>
      <trkpt lat="43.5768" lon="6.39159">
        <ele>609.9</ele>
        <time>2022-10-19T14:18:34Z</time>
      </trkpt>
      <trkpt lat="43.57677" lon="6.39164">
        <ele>609.3</ele>
        <time>2022-10-19T14:18:39Z</time>
      </trkpt>
      <trkpt lat="43.57672" lon="6.39169">
        <ele>609</ele>
        <time>2022-10-19T14:18:43Z</time>
      </trkpt>
      <trkpt lat="43.57668" lon="6.39172">
        <ele>608.3</ele>
        <time>2022-10-19T14:18:48Z</time>
      </trkpt>
      <trkpt lat="43.57665" lon="6.39176">
        <ele>607.7</ele>
        <time>2022-10-19T14:18:53Z</time>
      </trkpt>
      <trkpt lat="43.57662" lon="6.39181">
        <ele>607.6</ele>
        <time>2022-10-19T14:18:55Z</time>
      </trkpt>
      <trkpt lat="43.57658" lon="6.39185">
        <ele>607.4</ele>
        <time>2022-10-19T14:18:58Z</time>
      </trkpt>
      <trkpt lat="43.57654" lon="6.3919">
        <ele>607.1</ele>
        <time>2022-10-19T14:19:01Z</time>
      </trkpt>
      <trkpt lat="43.57649" lon="6.39194">
        <ele>606.8</ele>
        <time>2022-10-19T14:19:04Z</time>
      </trkpt>
      <trkpt lat="43.57644" lon="6.392">
        <ele>606.5</ele>
        <time>2022-10-19T14:19:07Z</time>
      </trkpt>
      <trkpt lat="43.5764" lon="6.39205">
        <ele>606.3</ele>
        <time>2022-10-19T14:19:10Z</time>
      </trkpt>
      <trkpt lat="43.57634" lon="6.39209">
        <ele>606</ele>
        <time>2022-10-19T14:19:13Z</time>
      </trkpt>
      <trkpt lat="43.5763" lon="6.39214">
        <ele>605.7</ele>
        <time>2022-10-19T14:19:16Z</time>
      </trkpt>
      <trkpt lat="43.57626" lon="6.3922">
        <ele>605.4</ele>
        <time>2022-10-19T14:19:19Z</time>
      </trkpt>
      <trkpt lat="43.57621" lon="6.39223">
        <ele>605.1</ele>
        <time>2022-10-19T14:19:22Z</time>
      </trkpt>
      <trkpt lat="43.57617" lon="6.39226">
        <ele>604.8</ele>
        <time>2022-10-19T14:19:26Z</time>
      </trkpt>
      <trkpt lat="43.57612" lon="6.39228">
        <ele>604.4</ele>
        <time>2022-10-19T14:19:33Z</time>
      </trkpt>
      <trkpt lat="43.57607" lon="6.3923">
        <ele>604.3</ele>
        <time>2022-10-19T14:19:37Z</time>
      </trkpt>
      <trkpt lat="43.57602" lon="6.39231">
        <ele>604.2</ele>
        <time>2022-10-19T14:19:41Z</time>
      </trkpt>
      <trkpt lat="43.57597" lon="6.39231">
        <ele>604.1</ele>
        <time>2022-10-19T14:19:46Z</time>
      </trkpt>
      <trkpt lat="43.57592" lon="6.3923">
        <ele>604.1</ele>
        <time>2022-10-19T14:19:50Z</time>
      </trkpt>
      <trkpt lat="43.57586" lon="6.39231">
        <ele>604</ele>
        <time>2022-10-19T14:19:53Z</time>
      </trkpt>
      <trkpt lat="43.57581" lon="6.3923">
        <ele>604</ele>
        <time>2022-10-19T14:19:55Z</time>
      </trkpt>
      <trkpt lat="43.57575" lon="6.3923">
        <ele>604</ele>
        <time>2022-10-19T14:19:58Z</time>
      </trkpt>
      <trkpt lat="43.57571" lon="6.39229">
        <ele>604</ele>
        <time>2022-10-19T14:20:01Z</time>
      </trkpt>
      <trkpt lat="43.57566" lon="6.39231">
        <ele>604</ele>
        <time>2022-10-19T14:20:08Z</time>
      </trkpt>
      <trkpt lat="43.57561" lon="6.39232">
        <ele>604</ele>
        <time>2022-10-19T14:20:11Z</time>
      </trkpt>
      <trkpt lat="43.57556" lon="6.39233">
        <ele>604.1</ele>
        <time>2022-10-19T14:20:15Z</time>
      </trkpt>
      <trkpt lat="43.57552" lon="6.39233">
        <ele>604.1</ele>
        <time>2022-10-19T14:20:19Z</time>
      </trkpt>
      <trkpt lat="43.57545" lon="6.39235">
        <ele>604.5</ele>
        <time>2022-10-19T14:20:24Z</time>
      </trkpt>
      <trkpt lat="43.5754" lon="6.39237">
        <ele>605.3</ele>
        <time>2022-10-19T14:20:26Z</time>
      </trkpt>
      <trkpt lat="43.57535" lon="6.39238">
        <ele>605</ele>
        <time>2022-10-19T14:20:29Z</time>
      </trkpt>
      <trkpt lat="43.5753" lon="6.39242">
        <ele>604.8</ele>
        <time>2022-10-19T14:20:32Z</time>
      </trkpt>
      <trkpt lat="43.57525" lon="6.39243">
        <ele>604.8</ele>
        <time>2022-10-19T14:20:36Z</time>
      </trkpt>
      <trkpt lat="43.5752" lon="6.39243">
        <ele>604.8</ele>
        <time>2022-10-19T14:20:40Z</time>
      </trkpt>
      <trkpt lat="43.57515" lon="6.39243">
        <ele>605.1</ele>
        <time>2022-10-19T14:20:44Z</time>
      </trkpt>
      <trkpt lat="43.5751" lon="6.39244">
        <ele>605</ele>
        <time>2022-10-19T14:20:48Z</time>
      </trkpt>
      <trkpt lat="43.57506" lon="6.39245">
        <ele>604.3</ele>
        <time>2022-10-19T14:20:53Z</time>
      </trkpt>
      <trkpt lat="43.575" lon="6.39244">
        <ele>604.4</ele>
        <time>2022-10-19T14:20:58Z</time>
      </trkpt>
      <trkpt lat="43.57495" lon="6.39245">
        <ele>604.6</ele>
        <time>2022-10-19T14:21:03Z</time>
      </trkpt>
      <trkpt lat="43.5749" lon="6.39246">
        <ele>604.4</ele>
        <time>2022-10-19T14:21:07Z</time>
      </trkpt>
      <trkpt lat="43.57485" lon="6.39246">
        <ele>604.4</ele>
        <time>2022-10-19T14:21:10Z</time>
      </trkpt>
      <trkpt lat="43.57479" lon="6.39246">
        <ele>604.7</ele>
        <time>2022-10-19T14:21:13Z</time>
      </trkpt>
      <trkpt lat="43.57474" lon="6.39247">
        <ele>604.2</ele>
        <time>2022-10-19T14:21:19Z</time>
      </trkpt>
      <trkpt lat="43.57469" lon="6.39247">
        <ele>604.4</ele>
        <time>2022-10-19T14:21:25Z</time>
      </trkpt>
      <trkpt lat="43.57463" lon="6.39249">
        <ele>604.2</ele>
        <time>2022-10-19T14:21:29Z</time>
      </trkpt>
      <trkpt lat="43.57459" lon="6.39252">
        <ele>602.8</ele>
        <time>2022-10-19T14:21:33Z</time>
      </trkpt>
      <trkpt lat="43.57453" lon="6.39257">
        <ele>604.1</ele>
        <time>2022-10-19T14:21:36Z</time>
      </trkpt>
      <trkpt lat="43.57448" lon="6.39258">
        <ele>604.9</ele>
        <time>2022-10-19T14:21:38Z</time>
      </trkpt>
      <trkpt lat="43.57442" lon="6.39263">
        <ele>605.5</ele>
        <time>2022-10-19T14:21:41Z</time>
      </trkpt>
      <trkpt lat="43.57437" lon="6.39267">
        <ele>606.1</ele>
        <time>2022-10-19T14:21:44Z</time>
      </trkpt>
      <trkpt lat="43.57433" lon="6.39271">
        <ele>606.6</ele>
        <time>2022-10-19T14:21:47Z</time>
      </trkpt>
      <trkpt lat="43.57429" lon="6.39275">
        <ele>607</ele>
        <time>2022-10-19T14:21:50Z</time>
      </trkpt>
      <trkpt lat="43.57426" lon="6.3928">
        <ele>607.4</ele>
        <time>2022-10-19T14:21:54Z</time>
      </trkpt>
      <trkpt lat="43.57421" lon="6.39284">
        <ele>607.6</ele>
        <time>2022-10-19T14:22:01Z</time>
      </trkpt>
      <trkpt lat="43.57418" lon="6.39289">
        <ele>607.8</ele>
        <time>2022-10-19T14:22:08Z</time>
      </trkpt>
      <trkpt lat="43.57417" lon="6.39296">
        <ele>607.9</ele>
        <time>2022-10-19T14:22:12Z</time>
      </trkpt>
      <trkpt lat="43.57414" lon="6.39301">
        <ele>608.5</ele>
        <time>2022-10-19T14:22:15Z</time>
      </trkpt>
      <trkpt lat="43.57411" lon="6.39307">
        <ele>609.2</ele>
        <time>2022-10-19T14:22:18Z</time>
      </trkpt>
      <trkpt lat="43.57407" lon="6.39313">
        <ele>609.8</ele>
        <time>2022-10-19T14:22:22Z</time>
      </trkpt>
      <trkpt lat="43.57403" lon="6.39319">
        <ele>610.1</ele>
        <time>2022-10-19T14:22:25Z</time>
      </trkpt>
      <trkpt lat="43.57398" lon="6.39324">
        <ele>610.3</ele>
        <time>2022-10-19T14:22:28Z</time>
      </trkpt>
      <trkpt lat="43.57394" lon="6.39327">
        <ele>610.5</ele>
        <time>2022-10-19T14:22:31Z</time>
      </trkpt>
      <trkpt lat="43.5739" lon="6.39331">
        <ele>610.5</ele>
        <time>2022-10-19T14:22:34Z</time>
      </trkpt>
      <trkpt lat="43.57387" lon="6.39336">
        <ele>610.4</ele>
        <time>2022-10-19T14:22:38Z</time>
      </trkpt>
      <trkpt lat="43.57384" lon="6.39341">
        <ele>609.9</ele>
        <time>2022-10-19T14:22:42Z</time>
      </trkpt>
      <trkpt lat="43.57381" lon="6.39347">
        <ele>609</ele>
        <time>2022-10-19T14:22:47Z</time>
      </trkpt>
      <trkpt lat="43.57377" lon="6.39349">
        <ele>607.8</ele>
        <time>2022-10-19T14:22:53Z</time>
      </trkpt>
      <trkpt lat="43.57373" lon="6.39353">
        <ele>607.1</ele>
        <time>2022-10-19T14:22:57Z</time>
      </trkpt>
      <trkpt lat="43.57369" lon="6.39357">
        <ele>606.3</ele>
        <time>2022-10-19T14:23:01Z</time>
      </trkpt>
      <trkpt lat="43.57365" lon="6.39361">
        <ele>605.6</ele>
        <time>2022-10-19T14:23:05Z</time>
      </trkpt>
      <trkpt lat="43.5736" lon="6.39365">
        <ele>604.8</ele>
        <time>2022-10-19T14:23:09Z</time>
      </trkpt>
      <trkpt lat="43.57356" lon="6.3937">
        <ele>604.2</ele>
        <time>2022-10-19T14:23:13Z</time>
      </trkpt>
      <trkpt lat="43.57353" lon="6.39374">
        <ele>603.6</ele>
        <time>2022-10-19T14:23:16Z</time>
      </trkpt>
      <trkpt lat="43.57349" lon="6.39379">
        <ele>603</ele>
        <time>2022-10-19T14:23:20Z</time>
      </trkpt>
      <trkpt lat="43.57344" lon="6.39383">
        <ele>602.2</ele>
        <time>2022-10-19T14:23:24Z</time>
      </trkpt>
      <trkpt lat="43.5734" lon="6.39385">
        <ele>601.1</ele>
        <time>2022-10-19T14:23:29Z</time>
      </trkpt>
      <trkpt lat="43.57336" lon="6.3939">
        <ele>600.1</ele>
        <time>2022-10-19T14:23:34Z</time>
      </trkpt>
      <trkpt lat="43.57331" lon="6.39395">
        <ele>599.5</ele>
        <time>2022-10-19T14:23:39Z</time>
      </trkpt>
      <trkpt lat="43.57328" lon="6.39401">
        <ele>599</ele>
        <time>2022-10-19T14:23:43Z</time>
      </trkpt>
      <trkpt lat="43.57323" lon="6.39405">
        <ele>598.4</ele>
        <time>2022-10-19T14:23:47Z</time>
      </trkpt>
      <trkpt lat="43.57318" lon="6.39409">
        <ele>598</ele>
        <time>2022-10-19T14:23:51Z</time>
      </trkpt>
      <trkpt lat="43.57315" lon="6.39414">
        <ele>597.4</ele>
        <time>2022-10-19T14:23:55Z</time>
      </trkpt>
      <trkpt lat="43.57313" lon="6.3942">
        <ele>597</ele>
        <time>2022-10-19T14:23:58Z</time>
      </trkpt>
      <trkpt lat="43.57309" lon="6.39424">
        <ele>596.6</ele>
        <time>2022-10-19T14:24:01Z</time>
      </trkpt>
      <trkpt lat="43.57304" lon="6.39428">
        <ele>596.3</ele>
        <time>2022-10-19T14:24:04Z</time>
      </trkpt>
      <trkpt lat="43.57299" lon="6.39432">
        <ele>596</ele>
        <time>2022-10-19T14:24:07Z</time>
      </trkpt>
      <trkpt lat="43.57294" lon="6.39437">
        <ele>595.7</ele>
        <time>2022-10-19T14:24:10Z</time>
      </trkpt>
      <trkpt lat="43.5729" lon="6.39441">
        <ele>595.4</ele>
        <time>2022-10-19T14:24:13Z</time>
      </trkpt>
      <trkpt lat="43.57286" lon="6.39444">
        <ele>595.1</ele>
        <time>2022-10-19T14:24:16Z</time>
      </trkpt>
      <trkpt lat="43.57281" lon="6.39448">
        <ele>594.6</ele>
        <time>2022-10-19T14:24:20Z</time>
      </trkpt>
      <trkpt lat="43.57278" lon="6.39452">
        <ele>594</ele>
        <time>2022-10-19T14:24:25Z</time>
      </trkpt>
      <trkpt lat="43.57275" lon="6.39458">
        <ele>593.6</ele>
        <time>2022-10-19T14:24:31Z</time>
      </trkpt>
      <trkpt lat="43.5727" lon="6.39462">
        <ele>593.3</ele>
        <time>2022-10-19T14:24:35Z</time>
      </trkpt>
      <trkpt lat="43.57265" lon="6.39463">
        <ele>593.2</ele>
        <time>2022-10-19T14:24:38Z</time>
      </trkpt>
      <trkpt lat="43.57261" lon="6.39465">
        <ele>593.1</ele>
        <time>2022-10-19T14:24:41Z</time>
      </trkpt>
      <trkpt lat="43.57255" lon="6.39468">
        <ele>593</ele>
        <time>2022-10-19T14:24:45Z</time>
      </trkpt>
      <trkpt lat="43.5725" lon="6.39471">
        <ele>592.8</ele>
        <time>2022-10-19T14:24:51Z</time>
      </trkpt>
      <trkpt lat="43.57245" lon="6.39474">
        <ele>592.6</ele>
        <time>2022-10-19T14:24:56Z</time>
      </trkpt>
      <trkpt lat="43.57241" lon="6.39475">
        <ele>592.6</ele>
        <time>2022-10-19T14:25:00Z</time>
      </trkpt>
      <trkpt lat="43.57237" lon="6.39479">
        <ele>592.5</ele>
        <time>2022-10-19T14:25:03Z</time>
      </trkpt>
      <trkpt lat="43.57232" lon="6.39483">
        <ele>592.6</ele>
        <time>2022-10-19T14:25:06Z</time>
      </trkpt>
      <trkpt lat="43.5723" lon="6.39488">
        <ele>592.7</ele>
        <time>2022-10-19T14:25:15Z</time>
      </trkpt>
      <trkpt lat="43.57225" lon="6.39491">
        <ele>592.8</ele>
        <time>2022-10-19T14:25:20Z</time>
      </trkpt>
      <trkpt lat="43.5722" lon="6.39494">
        <ele>592.9</ele>
        <time>2022-10-19T14:25:24Z</time>
      </trkpt>
      <trkpt lat="43.57215" lon="6.39497">
        <ele>592.8</ele>
        <time>2022-10-19T14:25:27Z</time>
      </trkpt>
      <trkpt lat="43.5721" lon="6.39501">
        <ele>592.6</ele>
        <time>2022-10-19T14:25:31Z</time>
      </trkpt>
      <trkpt lat="43.57206" lon="6.39504">
        <ele>592.5</ele>
        <time>2022-10-19T14:25:34Z</time>
      </trkpt>
      <trkpt lat="43.57202" lon="6.39507">
        <ele>592.3</ele>
        <time>2022-10-19T14:25:37Z</time>
      </trkpt>
      <trkpt lat="43.57197" lon="6.3951">
        <ele>592.1</ele>
        <time>2022-10-19T14:25:40Z</time>
      </trkpt>
      <trkpt lat="43.57192" lon="6.39512">
        <ele>591.9</ele>
        <time>2022-10-19T14:25:44Z</time>
      </trkpt>
      <trkpt lat="43.57188" lon="6.39515">
        <ele>591.5</ele>
        <time>2022-10-19T14:25:50Z</time>
      </trkpt>
      <trkpt lat="43.57183" lon="6.39517">
        <ele>591.1</ele>
        <time>2022-10-19T14:25:55Z</time>
      </trkpt>
      <trkpt lat="43.57178" lon="6.39521">
        <ele>590.8</ele>
        <time>2022-10-19T14:25:59Z</time>
      </trkpt>
      <trkpt lat="43.57173" lon="6.39524">
        <ele>590.6</ele>
        <time>2022-10-19T14:26:03Z</time>
      </trkpt>
      <trkpt lat="43.57169" lon="6.39526">
        <ele>590.4</ele>
        <time>2022-10-19T14:26:08Z</time>
      </trkpt>
      <trkpt lat="43.57164" lon="6.39528">
        <ele>590.1</ele>
        <time>2022-10-19T14:26:12Z</time>
      </trkpt>
      <trkpt lat="43.57159" lon="6.39532">
        <ele>590</ele>
        <time>2022-10-19T14:26:16Z</time>
      </trkpt>
      <trkpt lat="43.57154" lon="6.39534">
        <ele>589.5</ele>
        <time>2022-10-19T14:26:22Z</time>
      </trkpt>
      <trkpt lat="43.5715" lon="6.39535">
        <ele>589</ele>
        <time>2022-10-19T14:26:27Z</time>
      </trkpt>
      <trkpt lat="43.57145" lon="6.39537">
        <ele>588.4</ele>
        <time>2022-10-19T14:26:32Z</time>
      </trkpt>
      <trkpt lat="43.5714" lon="6.39541">
        <ele>587.6</ele>
        <time>2022-10-19T14:26:38Z</time>
      </trkpt>
      <trkpt lat="43.57136" lon="6.39544">
        <ele>587.3</ele>
        <time>2022-10-19T14:26:41Z</time>
      </trkpt>
      <trkpt lat="43.5713" lon="6.39546">
        <ele>586.8</ele>
        <time>2022-10-19T14:26:45Z</time>
      </trkpt>
      <trkpt lat="43.57126" lon="6.39549">
        <ele>586.4</ele>
        <time>2022-10-19T14:26:49Z</time>
      </trkpt>
      <trkpt lat="43.57121" lon="6.39553">
        <ele>585.9</ele>
        <time>2022-10-19T14:26:53Z</time>
      </trkpt>
      <trkpt lat="43.57117" lon="6.39556">
        <ele>585.7</ele>
        <time>2022-10-19T14:26:56Z</time>
      </trkpt>
      <trkpt lat="43.57112" lon="6.39559">
        <ele>585.4</ele>
        <time>2022-10-19T14:26:59Z</time>
      </trkpt>
      <trkpt lat="43.57108" lon="6.39562">
        <ele>584.9</ele>
        <time>2022-10-19T14:27:04Z</time>
      </trkpt>
      <trkpt lat="43.57104" lon="6.39565">
        <ele>584.1</ele>
        <time>2022-10-19T14:27:10Z</time>
      </trkpt>
      <trkpt lat="43.57099" lon="6.39568">
        <ele>583.1</ele>
        <time>2022-10-19T14:27:16Z</time>
      </trkpt>
      <trkpt lat="43.57095" lon="6.39571">
        <ele>582.3</ele>
        <time>2022-10-19T14:27:21Z</time>
      </trkpt>
      <trkpt lat="43.57091" lon="6.39574">
        <ele>581.4</ele>
        <time>2022-10-19T14:27:26Z</time>
      </trkpt>
      <trkpt lat="43.57087" lon="6.39578">
        <ele>580.6</ele>
        <time>2022-10-19T14:27:30Z</time>
      </trkpt>
      <trkpt lat="43.57084" lon="6.39583">
        <ele>580</ele>
        <time>2022-10-19T14:27:33Z</time>
      </trkpt>
      <trkpt lat="43.57079" lon="6.39587">
        <ele>579.4</ele>
        <time>2022-10-19T14:27:37Z</time>
      </trkpt>
      <trkpt lat="43.57074" lon="6.39592">
        <ele>578.7</ele>
        <time>2022-10-19T14:27:41Z</time>
      </trkpt>
      <trkpt lat="43.5707" lon="6.39596">
        <ele>578.1</ele>
        <time>2022-10-19T14:27:44Z</time>
      </trkpt>
      <trkpt lat="43.57066" lon="6.39601">
        <ele>577.3</ele>
        <time>2022-10-19T14:27:49Z</time>
      </trkpt>
      <trkpt lat="43.57062" lon="6.39602">
        <ele>576.4</ele>
        <time>2022-10-19T14:27:54Z</time>
      </trkpt>
      <trkpt lat="43.57057" lon="6.39603">
        <ele>575.7</ele>
        <time>2022-10-19T14:27:59Z</time>
      </trkpt>
      <trkpt lat="43.57053" lon="6.39606">
        <ele>575.1</ele>
        <time>2022-10-19T14:28:10Z</time>
      </trkpt>
      <trkpt lat="43.57051" lon="6.39612">
        <ele>574.9</ele>
        <time>2022-10-19T14:28:47Z</time>
      </trkpt>
      <trkpt lat="43.57047" lon="6.39615">
        <ele>575.1</ele>
        <time>2022-10-19T14:29:25Z</time>
      </trkpt>
      <trkpt lat="43.57046" lon="6.39621">
        <ele>575.4</ele>
        <time>2022-10-19T14:32:18Z</time>
      </trkpt>
      <trkpt lat="43.57048" lon="6.39627">
        <ele>575.3</ele>
        <time>2022-10-19T14:32:25Z</time>
      </trkpt>
      <trkpt lat="43.57049" lon="6.39634">
        <ele>575.3</ele>
        <time>2022-10-19T14:32:29Z</time>
      </trkpt>
      <trkpt lat="43.57051" lon="6.39639">
        <ele>575.1</ele>
        <time>2022-10-19T14:32:36Z</time>
      </trkpt>
      <trkpt lat="43.57054" lon="6.39646">
        <ele>575.1</ele>
        <time>2022-10-19T14:32:40Z</time>
      </trkpt>
      <trkpt lat="43.57057" lon="6.39651">
        <ele>575.1</ele>
        <time>2022-10-19T14:32:43Z</time>
      </trkpt>
      <trkpt lat="43.57061" lon="6.39654">
        <ele>575.5</ele>
        <time>2022-10-19T14:32:48Z</time>
      </trkpt>
      <trkpt lat="43.57065" lon="6.39658">
        <ele>575.9</ele>
        <time>2022-10-19T14:32:53Z</time>
      </trkpt>
      <trkpt lat="43.57068" lon="6.39663">
        <ele>576.3</ele>
        <time>2022-10-19T14:33:00Z</time>
      </trkpt>
      <trkpt lat="43.57068" lon="6.3967">
        <ele>576.4</ele>
        <time>2022-10-19T14:33:05Z</time>
      </trkpt>
      <trkpt lat="43.57072" lon="6.39675">
        <ele>576.7</ele>
        <time>2022-10-19T14:33:08Z</time>
      </trkpt>
      <trkpt lat="43.57072" lon="6.39683">
        <ele>577.3</ele>
        <time>2022-10-19T14:33:14Z</time>
      </trkpt>
      <trkpt lat="43.57069" lon="6.39689">
        <ele>577.5</ele>
        <time>2022-10-19T14:33:18Z</time>
      </trkpt>
      <trkpt lat="43.57067" lon="6.39695">
        <ele>577.7</ele>
        <time>2022-10-19T14:33:22Z</time>
      </trkpt>
      <trkpt lat="43.57065" lon="6.39701">
        <ele>577.9</ele>
        <time>2022-10-19T14:33:25Z</time>
      </trkpt>
      <trkpt lat="43.57065" lon="6.39708">
        <ele>578.2</ele>
        <time>2022-10-19T14:33:32Z</time>
      </trkpt>
      <trkpt lat="43.57065" lon="6.39715">
        <ele>578.6</ele>
        <time>2022-10-19T14:33:35Z</time>
      </trkpt>
      <trkpt lat="43.57063" lon="6.39721">
        <ele>579.1</ele>
        <time>2022-10-19T14:33:39Z</time>
      </trkpt>
      <trkpt lat="43.57063" lon="6.39728">
        <ele>579.7</ele>
        <time>2022-10-19T14:33:45Z</time>
      </trkpt>
      <trkpt lat="43.57061" lon="6.39734">
        <ele>580</ele>
        <time>2022-10-19T14:33:49Z</time>
      </trkpt>
      <trkpt lat="43.5706" lon="6.39741">
        <ele>580.2</ele>
        <time>2022-10-19T14:33:52Z</time>
      </trkpt>
      <trkpt lat="43.57062" lon="6.39747">
        <ele>580.6</ele>
        <time>2022-10-19T14:33:57Z</time>
      </trkpt>
      <trkpt lat="43.57064" lon="6.39754">
        <ele>580.9</ele>
        <time>2022-10-19T14:34:00Z</time>
      </trkpt>
      <trkpt lat="43.57064" lon="6.3976">
        <ele>581.4</ele>
        <time>2022-10-19T14:34:04Z</time>
      </trkpt>
      <trkpt lat="43.57066" lon="6.39768">
        <ele>581.5</ele>
        <time>2022-10-19T14:34:07Z</time>
      </trkpt>
      <trkpt lat="43.57067" lon="6.39775">
        <ele>581.9</ele>
        <time>2022-10-19T14:34:10Z</time>
      </trkpt>
      <trkpt lat="43.57069" lon="6.39781">
        <ele>582.5</ele>
        <time>2022-10-19T14:34:16Z</time>
      </trkpt>
      <trkpt lat="43.57069" lon="6.39789">
        <ele>583</ele>
        <time>2022-10-19T14:34:20Z</time>
      </trkpt>
      <trkpt lat="43.57069" lon="6.39795">
        <ele>583.4</ele>
        <time>2022-10-19T14:34:25Z</time>
      </trkpt>
      <trkpt lat="43.57069" lon="6.39802">
        <ele>583.6</ele>
        <time>2022-10-19T14:34:30Z</time>
      </trkpt>
      <trkpt lat="43.57067" lon="6.39809">
        <ele>583.9</ele>
        <time>2022-10-19T14:34:35Z</time>
      </trkpt>
      <trkpt lat="43.57065" lon="6.39817">
        <ele>584</ele>
        <time>2022-10-19T14:34:40Z</time>
      </trkpt>
      <trkpt lat="43.57063" lon="6.39824">
        <ele>583.8</ele>
        <time>2022-10-19T14:34:47Z</time>
      </trkpt>
      <trkpt lat="43.57059" lon="6.3983">
        <ele>583.6</ele>
        <time>2022-10-19T14:34:51Z</time>
      </trkpt>
      <trkpt lat="43.57056" lon="6.39835">
        <ele>583.5</ele>
        <time>2022-10-19T14:34:54Z</time>
      </trkpt>
      <trkpt lat="43.57055" lon="6.39842">
        <ele>583.5</ele>
        <time>2022-10-19T14:35:00Z</time>
      </trkpt>
      <trkpt lat="43.57052" lon="6.39848">
        <ele>583.3</ele>
        <time>2022-10-19T14:35:04Z</time>
      </trkpt>
      <trkpt lat="43.57049" lon="6.39854">
        <ele>583.2</ele>
        <time>2022-10-19T14:35:07Z</time>
      </trkpt>
      <trkpt lat="43.57048" lon="6.3986">
        <ele>583</ele>
        <time>2022-10-19T14:35:12Z</time>
      </trkpt>
      <trkpt lat="43.57048" lon="6.39868">
        <ele>582.7</ele>
        <time>2022-10-19T14:35:16Z</time>
      </trkpt>
      <trkpt lat="43.57046" lon="6.39875">
        <ele>582.7</ele>
        <time>2022-10-19T14:35:20Z</time>
      </trkpt>
      <trkpt lat="43.57044" lon="6.39882">
        <ele>582.7</ele>
        <time>2022-10-19T14:35:23Z</time>
      </trkpt>
      <trkpt lat="43.57041" lon="6.3989">
        <ele>582.8</ele>
        <time>2022-10-19T14:35:26Z</time>
      </trkpt>
      <trkpt lat="43.57038" lon="6.39895">
        <ele>582.8</ele>
        <time>2022-10-19T14:35:30Z</time>
      </trkpt>
      <trkpt lat="43.57037" lon="6.39902">
        <ele>582.5</ele>
        <time>2022-10-19T14:35:35Z</time>
      </trkpt>
      <trkpt lat="43.57035" lon="6.39908">
        <ele>582.4</ele>
        <time>2022-10-19T14:35:38Z</time>
      </trkpt>
      <trkpt lat="43.57032" lon="6.39914">
        <ele>582.4</ele>
        <time>2022-10-19T14:35:41Z</time>
      </trkpt>
      <trkpt lat="43.5703" lon="6.3992">
        <ele>582.4</ele>
        <time>2022-10-19T14:35:45Z</time>
      </trkpt>
      <trkpt lat="43.5703" lon="6.39928">
        <ele>582.2</ele>
        <time>2022-10-19T14:35:50Z</time>
      </trkpt>
      <trkpt lat="43.57031" lon="6.39935">
        <ele>581.7</ele>
        <time>2022-10-19T14:35:54Z</time>
      </trkpt>
      <trkpt lat="43.5703" lon="6.39942">
        <ele>581.3</ele>
        <time>2022-10-19T14:35:58Z</time>
      </trkpt>
      <trkpt lat="43.57028" lon="6.39949">
        <ele>581.1</ele>
        <time>2022-10-19T14:36:01Z</time>
      </trkpt>
      <trkpt lat="43.57026" lon="6.39957">
        <ele>580.8</ele>
        <time>2022-10-19T14:36:04Z</time>
      </trkpt>
      <trkpt lat="43.57025" lon="6.39965">
        <ele>580.6</ele>
        <time>2022-10-19T14:36:09Z</time>
      </trkpt>
      <trkpt lat="43.57027" lon="6.39972">
        <ele>580.2</ele>
        <time>2022-10-19T14:36:14Z</time>
      </trkpt>
      <trkpt lat="43.57027" lon="6.39978">
        <ele>580.1</ele>
        <time>2022-10-19T14:36:18Z</time>
      </trkpt>
      <trkpt lat="43.57028" lon="6.39986">
        <ele>579.9</ele>
        <time>2022-10-19T14:36:23Z</time>
      </trkpt>
      <trkpt lat="43.57026" lon="6.39994">
        <ele>579.9</ele>
        <time>2022-10-19T14:36:26Z</time>
      </trkpt>
      <trkpt lat="43.57028" lon="6.4">
        <ele>579.8</ele>
        <time>2022-10-19T14:36:42Z</time>
      </trkpt>
      <trkpt lat="43.57029" lon="6.40006">
        <ele>579.7</ele>
        <time>2022-10-19T14:36:50Z</time>
      </trkpt>
      <trkpt lat="43.57032" lon="6.40011">
        <ele>579.6</ele>
        <time>2022-10-19T14:36:53Z</time>
      </trkpt>
      <trkpt lat="43.57033" lon="6.40018">
        <ele>579.7</ele>
        <time>2022-10-19T14:36:58Z</time>
      </trkpt>
      <trkpt lat="43.57034" lon="6.40025">
        <ele>579.7</ele>
        <time>2022-10-19T14:37:04Z</time>
      </trkpt>
      <trkpt lat="43.57036" lon="6.40032">
        <ele>579.7</ele>
        <time>2022-10-19T14:37:09Z</time>
      </trkpt>
      <trkpt lat="43.57038" lon="6.40037">
        <ele>579.6</ele>
        <time>2022-10-19T14:37:17Z</time>
      </trkpt>
      <trkpt lat="43.57043" lon="6.4004">
        <ele>579.6</ele>
        <time>2022-10-19T14:37:31Z</time>
      </trkpt>
      <trkpt lat="43.57047" lon="6.40038">
        <ele>579.7</ele>
        <time>2022-10-19T14:38:16Z</time>
      </trkpt>
      <trkpt lat="43.57044" lon="6.40043">
        <ele>579.7</ele>
        <time>2022-10-19T14:38:25Z</time>
      </trkpt>
      <trkpt lat="43.57041" lon="6.40049">
        <ele>579.3</ele>
        <time>2022-10-19T14:38:32Z</time>
      </trkpt>
      <trkpt lat="43.57039" lon="6.40055">
        <ele>579</ele>
        <time>2022-10-19T14:38:37Z</time>
      </trkpt>
      <trkpt lat="43.57037" lon="6.40062">
        <ele>578.6</ele>
        <time>2022-10-19T14:38:43Z</time>
      </trkpt>
      <trkpt lat="43.57038" lon="6.40068">
        <ele>578.2</ele>
        <time>2022-10-19T14:38:50Z</time>
      </trkpt>
      <trkpt lat="43.57036" lon="6.40074">
        <ele>578</ele>
        <time>2022-10-19T14:38:57Z</time>
      </trkpt>
      <trkpt lat="43.57035" lon="6.40081">
        <ele>577.5</ele>
        <time>2022-10-19T14:39:03Z</time>
      </trkpt>
      <trkpt lat="43.57033" lon="6.40087">
        <ele>577.1</ele>
        <time>2022-10-19T14:39:08Z</time>
      </trkpt>
      <trkpt lat="43.57031" lon="6.40092">
        <ele>576.6</ele>
        <time>2022-10-19T14:39:13Z</time>
      </trkpt>
      <trkpt lat="43.57029" lon="6.40099">
        <ele>576.3</ele>
        <time>2022-10-19T14:39:17Z</time>
      </trkpt>
      <trkpt lat="43.57027" lon="6.40104">
        <ele>575.8</ele>
        <time>2022-10-19T14:39:22Z</time>
      </trkpt>
      <trkpt lat="43.57023" lon="6.40109">
        <ele>575.6</ele>
        <time>2022-10-19T14:39:25Z</time>
      </trkpt>
      <trkpt lat="43.5702" lon="6.40114">
        <ele>574.7</ele>
        <time>2022-10-19T14:39:32Z</time>
      </trkpt>
      <trkpt lat="43.57018" lon="6.4012">
        <ele>574.1</ele>
        <time>2022-10-19T14:39:40Z</time>
      </trkpt>
      <trkpt lat="43.57016" lon="6.40126">
        <ele>573.3</ele>
        <time>2022-10-19T14:39:47Z</time>
      </trkpt>
      <trkpt lat="43.57012" lon="6.4013">
        <ele>572.8</ele>
        <time>2022-10-19T14:39:52Z</time>
      </trkpt>
      <trkpt lat="43.57011" lon="6.40136">
        <ele>572</ele>
        <time>2022-10-19T14:39:58Z</time>
      </trkpt>
      <trkpt lat="43.57008" lon="6.40142">
        <ele>571.2</ele>
        <time>2022-10-19T14:40:06Z</time>
      </trkpt>
      <trkpt lat="43.57003" lon="6.40146">
        <ele>570.5</ele>
        <time>2022-10-19T14:40:12Z</time>
      </trkpt>
      <trkpt lat="43.57" lon="6.40151">
        <ele>569.8</ele>
        <time>2022-10-19T14:40:18Z</time>
      </trkpt>
      <trkpt lat="43.56998" lon="6.40157">
        <ele>569</ele>
        <time>2022-10-19T14:40:23Z</time>
      </trkpt>
      <trkpt lat="43.56998" lon="6.40163">
        <ele>568.3</ele>
        <time>2022-10-19T14:40:29Z</time>
      </trkpt>
      <trkpt lat="43.56993" lon="6.40169">
        <ele>567.9</ele>
        <time>2022-10-19T14:40:33Z</time>
      </trkpt>
      <trkpt lat="43.56992" lon="6.40175">
        <ele>567.6</ele>
        <time>2022-10-19T14:40:37Z</time>
      </trkpt>
      <trkpt lat="43.5699" lon="6.40182">
        <ele>567.1</ele>
        <time>2022-10-19T14:40:41Z</time>
      </trkpt>
      <trkpt lat="43.56986" lon="6.40187">
        <ele>566.9</ele>
        <time>2022-10-19T14:40:44Z</time>
      </trkpt>
      <trkpt lat="43.56985" lon="6.40194">
        <ele>566.6</ele>
        <time>2022-10-19T14:40:48Z</time>
      </trkpt>
      <trkpt lat="43.56982" lon="6.402">
        <ele>565.8</ele>
        <time>2022-10-19T14:40:53Z</time>
      </trkpt>
      <trkpt lat="43.56981" lon="6.40206">
        <ele>565.3</ele>
        <time>2022-10-19T14:40:58Z</time>
      </trkpt>
      <trkpt lat="43.56978" lon="6.40211">
        <ele>564.8</ele>
        <time>2022-10-19T14:41:02Z</time>
      </trkpt>
      <trkpt lat="43.56975" lon="6.40217">
        <ele>564.2</ele>
        <time>2022-10-19T14:41:07Z</time>
      </trkpt>
      <trkpt lat="43.56972" lon="6.40221">
        <ele>563.7</ele>
        <time>2022-10-19T14:41:11Z</time>
      </trkpt>
      <trkpt lat="43.56968" lon="6.40229">
        <ele>562.9</ele>
        <time>2022-10-19T14:41:16Z</time>
      </trkpt>
      <trkpt lat="43.56967" lon="6.40235">
        <ele>562.4</ele>
        <time>2022-10-19T14:41:19Z</time>
      </trkpt>
      <trkpt lat="43.56964" lon="6.40239">
        <ele>561.4</ele>
        <time>2022-10-19T14:41:25Z</time>
      </trkpt>
      <trkpt lat="43.56961" lon="6.40244">
        <ele>560.7</ele>
        <time>2022-10-19T14:41:30Z</time>
      </trkpt>
      <trkpt lat="43.56958" lon="6.4025">
        <ele>560.2</ele>
        <time>2022-10-19T14:41:33Z</time>
      </trkpt>
      <trkpt lat="43.56957" lon="6.40256">
        <ele>559.4</ele>
        <time>2022-10-19T14:41:37Z</time>
      </trkpt>
      <trkpt lat="43.56956" lon="6.40263">
        <ele>558.6</ele>
        <time>2022-10-19T14:41:43Z</time>
      </trkpt>
      <trkpt lat="43.56952" lon="6.40269">
        <ele>557.7</ele>
        <time>2022-10-19T14:41:49Z</time>
      </trkpt>
      <trkpt lat="43.56952" lon="6.40277">
        <ele>556.8</ele>
        <time>2022-10-19T14:41:55Z</time>
      </trkpt>
      <trkpt lat="43.5695" lon="6.40284">
        <ele>556.4</ele>
        <time>2022-10-19T14:41:58Z</time>
      </trkpt>
      <trkpt lat="43.56953" lon="6.4029">
        <ele>555.9</ele>
        <time>2022-10-19T14:42:02Z</time>
      </trkpt>
      <trkpt lat="43.56951" lon="6.40296">
        <ele>555.3</ele>
        <time>2022-10-19T14:42:08Z</time>
      </trkpt>
      <trkpt lat="43.56951" lon="6.40304">
        <ele>554.8</ele>
        <time>2022-10-19T14:42:12Z</time>
      </trkpt>
      <trkpt lat="43.5695" lon="6.4031">
        <ele>554.3</ele>
        <time>2022-10-19T14:42:17Z</time>
      </trkpt>
      <trkpt lat="43.56952" lon="6.40316">
        <ele>553.7</ele>
        <time>2022-10-19T14:42:26Z</time>
      </trkpt>
      <trkpt lat="43.5695" lon="6.40323">
        <ele>553</ele>
        <time>2022-10-19T14:42:31Z</time>
      </trkpt>
      <trkpt lat="43.56947" lon="6.40329">
        <ele>552.6</ele>
        <time>2022-10-19T14:42:35Z</time>
      </trkpt>
      <trkpt lat="43.56945" lon="6.40335">
        <ele>552.3</ele>
        <time>2022-10-19T14:42:40Z</time>
      </trkpt>
      <trkpt lat="43.56944" lon="6.40342">
        <ele>552.1</ele>
        <time>2022-10-19T14:42:43Z</time>
      </trkpt>
      <trkpt lat="43.56945" lon="6.40348">
        <ele>552</ele>
        <time>2022-10-19T14:42:46Z</time>
      </trkpt>
      <trkpt lat="43.56948" lon="6.40354">
        <ele>551.8</ele>
        <time>2022-10-19T14:42:50Z</time>
      </trkpt>
      <trkpt lat="43.56949" lon="6.40362">
        <ele>551.6</ele>
        <time>2022-10-19T14:42:54Z</time>
      </trkpt>
      <trkpt lat="43.56949" lon="6.40369">
        <ele>551.7</ele>
        <time>2022-10-19T14:42:57Z</time>
      </trkpt>
      <trkpt lat="43.5695" lon="6.40376">
        <ele>551.8</ele>
        <time>2022-10-19T14:43:02Z</time>
      </trkpt>
      <trkpt lat="43.56949" lon="6.40383">
        <ele>551.8</ele>
        <time>2022-10-19T14:43:07Z</time>
      </trkpt>
      <trkpt lat="43.56952" lon="6.40388">
        <ele>551.8</ele>
        <time>2022-10-19T14:43:10Z</time>
      </trkpt>
      <trkpt lat="43.56953" lon="6.40395">
        <ele>551.7</ele>
        <time>2022-10-19T14:43:16Z</time>
      </trkpt>
      <trkpt lat="43.56952" lon="6.40402">
        <ele>551.6</ele>
        <time>2022-10-19T14:43:22Z</time>
      </trkpt>
      <trkpt lat="43.56953" lon="6.40409">
        <ele>551.6</ele>
        <time>2022-10-19T14:43:28Z</time>
      </trkpt>
      <trkpt lat="43.56954" lon="6.40415">
        <ele>551.5</ele>
        <time>2022-10-19T14:43:35Z</time>
      </trkpt>
      <trkpt lat="43.56958" lon="6.4042">
        <ele>551.6</ele>
        <time>2022-10-19T14:43:39Z</time>
      </trkpt>
      <trkpt lat="43.56962" lon="6.40424">
        <ele>551.6</ele>
        <time>2022-10-19T14:43:43Z</time>
      </trkpt>
      <trkpt lat="43.56966" lon="6.40428">
        <ele>551.7</ele>
        <time>2022-10-19T14:43:53Z</time>
      </trkpt>
      <trkpt lat="43.5697" lon="6.40426">
        <ele>551.8</ele>
        <time>2022-10-19T14:44:22Z</time>
      </trkpt>
      <trkpt lat="43.56969" lon="6.40433">
        <ele>551.6</ele>
        <time>2022-10-19T14:46:10Z</time>
      </trkpt>
      <trkpt lat="43.56964" lon="6.40433">
        <ele>551.5</ele>
        <time>2022-10-19T14:46:14Z</time>
      </trkpt>
      <trkpt lat="43.56961" lon="6.40438">
        <ele>551.4</ele>
        <time>2022-10-19T14:46:21Z</time>
      </trkpt>
      <trkpt lat="43.5696" lon="6.40445">
        <ele>551.3</ele>
        <time>2022-10-19T14:46:25Z</time>
      </trkpt>
      <trkpt lat="43.56956" lon="6.40451">
        <ele>551.3</ele>
        <time>2022-10-19T14:46:29Z</time>
      </trkpt>
      <trkpt lat="43.56953" lon="6.40457">
        <ele>551.2</ele>
        <time>2022-10-19T14:46:33Z</time>
      </trkpt>
      <trkpt lat="43.56952" lon="6.40463">
        <ele>551.2</ele>
        <time>2022-10-19T14:46:36Z</time>
      </trkpt>
      <trkpt lat="43.56949" lon="6.40468">
        <ele>551.1</ele>
        <time>2022-10-19T14:46:40Z</time>
      </trkpt>
      <trkpt lat="43.56948" lon="6.40475">
        <ele>551</ele>
        <time>2022-10-19T14:46:44Z</time>
      </trkpt>
      <trkpt lat="43.56945" lon="6.40482">
        <ele>551.1</ele>
        <time>2022-10-19T14:46:50Z</time>
      </trkpt>
      <trkpt lat="43.56944" lon="6.4049">
        <ele>551</ele>
        <time>2022-10-19T14:46:56Z</time>
      </trkpt>
      <trkpt lat="43.56942" lon="6.40496">
        <ele>551</ele>
        <time>2022-10-19T14:46:59Z</time>
      </trkpt>
      <trkpt lat="43.56939" lon="6.40502">
        <ele>550.9</ele>
        <time>2022-10-19T14:47:03Z</time>
      </trkpt>
      <trkpt lat="43.56938" lon="6.4051">
        <ele>550.9</ele>
        <time>2022-10-19T14:47:10Z</time>
      </trkpt>
      <trkpt lat="43.56936" lon="6.40516">
        <ele>550.9</ele>
        <time>2022-10-19T14:47:13Z</time>
      </trkpt>
      <trkpt lat="43.56937" lon="6.40523">
        <ele>550.9</ele>
        <time>2022-10-19T14:47:16Z</time>
      </trkpt>
      <trkpt lat="43.56934" lon="6.4053">
        <ele>551.2</ele>
        <time>2022-10-19T14:47:20Z</time>
      </trkpt>
      <trkpt lat="43.56931" lon="6.40535">
        <ele>551.2</ele>
        <time>2022-10-19T14:47:24Z</time>
      </trkpt>
      <trkpt lat="43.56928" lon="6.4054">
        <ele>551.3</ele>
        <time>2022-10-19T14:47:29Z</time>
      </trkpt>
      <trkpt lat="43.56923" lon="6.40544">
        <ele>551.4</ele>
        <time>2022-10-19T14:47:34Z</time>
      </trkpt>
      <trkpt lat="43.56918" lon="6.40548">
        <ele>551.7</ele>
        <time>2022-10-19T14:47:40Z</time>
      </trkpt>
      <trkpt lat="43.56915" lon="6.40553">
        <ele>552.1</ele>
        <time>2022-10-19T14:47:55Z</time>
      </trkpt>
      <trkpt lat="43.56911" lon="6.40557">
        <ele>552.7</ele>
        <time>2022-10-19T14:48:22Z</time>
      </trkpt>
      <trkpt lat="43.56906" lon="6.40554">
        <ele>552.7</ele>
        <time>2022-10-19T14:48:34Z</time>
      </trkpt>
      <trkpt lat="43.56902" lon="6.40558">
        <ele>553.7</ele>
        <time>2022-10-19T14:48:57Z</time>
      </trkpt>
      <trkpt lat="43.56899" lon="6.40563">
        <ele>553.8</ele>
        <time>2022-10-19T14:49:23Z</time>
      </trkpt>
      <trkpt lat="43.56895" lon="6.4056">
        <ele>553.9</ele>
        <time>2022-10-19T14:50:02Z</time>
      </trkpt>
      <trkpt lat="43.56897" lon="6.40555">
        <ele>554.2</ele>
        <time>2022-10-19T14:50:23Z</time>
      </trkpt>
      <trkpt lat="43.56901" lon="6.4055">
        <ele>554</ele>
        <time>2022-10-19T14:51:03Z</time>
      </trkpt>
      <trkpt lat="43.56906" lon="6.40547">
        <ele>552.8</ele>
        <time>2022-10-19T14:52:17Z</time>
      </trkpt>
      <trkpt lat="43.56906" lon="6.40554">
        <ele>553</ele>
        <time>2022-10-19T14:52:37Z</time>
      </trkpt>
      <trkpt lat="43.56907" lon="6.4056">
        <ele>553.3</ele>
        <time>2022-10-19T14:52:46Z</time>
      </trkpt>
      <trkpt lat="43.56912" lon="6.40559">
        <ele>553.4</ele>
        <time>2022-10-19T14:53:00Z</time>
      </trkpt>
      <trkpt lat="43.56917" lon="6.4056">
        <ele>553.3</ele>
        <time>2022-10-19T14:53:15Z</time>
      </trkpt>
      <trkpt lat="43.56914" lon="6.40555">
        <ele>553.6</ele>
        <time>2022-10-19T14:54:05Z</time>
      </trkpt>
      <trkpt lat="43.56912" lon="6.40561">
        <ele>553.6</ele>
        <time>2022-10-19T14:54:37Z</time>
      </trkpt>
      <trkpt lat="43.56909" lon="6.40566">
        <ele>553.5</ele>
        <time>2022-10-19T14:55:20Z</time>
      </trkpt>
      <trkpt lat="43.56907" lon="6.4056">
        <ele>553.6</ele>
        <time>2022-10-19T14:56:23Z</time>
      </trkpt>
      <trkpt lat="43.56911" lon="6.40556">
        <ele>553.2</ele>
        <time>2022-10-19T14:59:37Z</time>
      </trkpt>
      <trkpt lat="43.56914" lon="6.4056">
        <ele>553.2</ele>
        <time>2022-10-19T15:00:00Z</time>
      </trkpt>
      <trkpt lat="43.56909" lon="6.4056">
        <ele>553.3</ele>
        <time>2022-10-19T15:00:06Z</time>
      </trkpt>
      <trkpt lat="43.56912" lon="6.40564">
        <ele>553.2</ele>
        <time>2022-10-19T15:00:39Z</time>
      </trkpt>
      <trkpt lat="43.56917" lon="6.40566">
        <ele>553.2</ele>
        <time>2022-10-19T15:01:28Z</time>
      </trkpt>
      <trkpt lat="43.56922" lon="6.40564">
        <ele>553</ele>
        <time>2022-10-19T15:01:36Z</time>
      </trkpt>
      <trkpt lat="43.56927" lon="6.40562">
        <ele>552.8</ele>
        <time>2022-10-19T15:01:42Z</time>
      </trkpt>
      <trkpt lat="43.56931" lon="6.40562">
        <ele>552.7</ele>
        <time>2022-10-19T15:01:48Z</time>
      </trkpt>
      <trkpt lat="43.56935" lon="6.40558">
        <ele>552.7</ele>
        <time>2022-10-19T15:01:53Z</time>
      </trkpt>
      <trkpt lat="43.56939" lon="6.40553">
        <ele>552.6</ele>
        <time>2022-10-19T15:01:59Z</time>
      </trkpt>
      <trkpt lat="43.56942" lon="6.40547">
        <ele>552.5</ele>
        <time>2022-10-19T15:02:04Z</time>
      </trkpt>
      <trkpt lat="43.56943" lon="6.4054">
        <ele>552.3</ele>
        <time>2022-10-19T15:02:10Z</time>
      </trkpt>
      <trkpt lat="43.56946" lon="6.40534">
        <ele>552.3</ele>
        <time>2022-10-19T15:02:15Z</time>
      </trkpt>
      <trkpt lat="43.56949" lon="6.40527">
        <ele>552.3</ele>
        <time>2022-10-19T15:02:19Z</time>
      </trkpt>
      <trkpt lat="43.56952" lon="6.40521">
        <ele>552.2</ele>
        <time>2022-10-19T15:02:24Z</time>
      </trkpt>
      <trkpt lat="43.56955" lon="6.40515">
        <ele>552.3</ele>
        <time>2022-10-19T15:02:28Z</time>
      </trkpt>
      <trkpt lat="43.56956" lon="6.4051">
        <ele>552.3</ele>
        <time>2022-10-19T15:02:31Z</time>
      </trkpt>
      <trkpt lat="43.56953" lon="6.40505">
        <ele>552.4</ele>
        <time>2022-10-19T15:02:36Z</time>
      </trkpt>
      <trkpt lat="43.56955" lon="6.40498">
        <ele>552.4</ele>
        <time>2022-10-19T15:02:39Z</time>
      </trkpt>
      <trkpt lat="43.56953" lon="6.40493">
        <ele>552.5</ele>
        <time>2022-10-19T15:02:44Z</time>
      </trkpt>
      <trkpt lat="43.56954" lon="6.40486">
        <ele>552.5</ele>
        <time>2022-10-19T15:02:48Z</time>
      </trkpt>
      <trkpt lat="43.56956" lon="6.40481">
        <ele>552.5</ele>
        <time>2022-10-19T15:02:52Z</time>
      </trkpt>
      <trkpt lat="43.56958" lon="6.40474">
        <ele>552.5</ele>
        <time>2022-10-19T15:02:57Z</time>
      </trkpt>
      <trkpt lat="43.56961" lon="6.40469">
        <ele>552.5</ele>
        <time>2022-10-19T15:03:02Z</time>
      </trkpt>
      <trkpt lat="43.56964" lon="6.40464">
        <ele>552.6</ele>
        <time>2022-10-19T15:03:05Z</time>
      </trkpt>
      <trkpt lat="43.56968" lon="6.40458">
        <ele>552.8</ele>
        <time>2022-10-19T15:03:12Z</time>
      </trkpt>
      <trkpt lat="43.56969" lon="6.40451">
        <ele>553</ele>
        <time>2022-10-19T15:03:19Z</time>
      </trkpt>
      <trkpt lat="43.5697" lon="6.40442">
        <ele>553.1</ele>
        <time>2022-10-19T15:03:23Z</time>
      </trkpt>
      <trkpt lat="43.56971" lon="6.40435">
        <ele>553.2</ele>
        <time>2022-10-19T15:03:27Z</time>
      </trkpt>
      <trkpt lat="43.56969" lon="6.40429">
        <ele>553.2</ele>
        <time>2022-10-19T15:03:35Z</time>
      </trkpt>
      <trkpt lat="43.56967" lon="6.40424">
        <ele>553.1</ele>
        <time>2022-10-19T15:03:45Z</time>
      </trkpt>
      <trkpt lat="43.56965" lon="6.40417">
        <ele>553</ele>
        <time>2022-10-19T15:03:54Z</time>
      </trkpt>
      <trkpt lat="43.56965" lon="6.40411">
        <ele>553</ele>
        <time>2022-10-19T15:04:00Z</time>
      </trkpt>
      <trkpt lat="43.56964" lon="6.40405">
        <ele>553.1</ele>
        <time>2022-10-19T15:04:08Z</time>
      </trkpt>
      <trkpt lat="43.56964" lon="6.40398">
        <ele>553.2</ele>
        <time>2022-10-19T15:04:15Z</time>
      </trkpt>
      <trkpt lat="43.56962" lon="6.4039">
        <ele>553.2</ele>
        <time>2022-10-19T15:04:21Z</time>
      </trkpt>
      <trkpt lat="43.56963" lon="6.40384">
        <ele>553.2</ele>
        <time>2022-10-19T15:04:25Z</time>
      </trkpt>
      <trkpt lat="43.5696" lon="6.40378">
        <ele>553.1</ele>
        <time>2022-10-19T15:04:32Z</time>
      </trkpt>
      <trkpt lat="43.56959" lon="6.40371">
        <ele>553.1</ele>
        <time>2022-10-19T15:04:44Z</time>
      </trkpt>
      <trkpt lat="43.56958" lon="6.40364">
        <ele>553.2</ele>
        <time>2022-10-19T15:04:52Z</time>
      </trkpt>
      <trkpt lat="43.56958" lon="6.40358">
        <ele>553.2</ele>
        <time>2022-10-19T15:05:00Z</time>
      </trkpt>
      <trkpt lat="43.5696" lon="6.40352">
        <ele>553.5</ele>
        <time>2022-10-19T15:05:06Z</time>
      </trkpt>
      <trkpt lat="43.5696" lon="6.40345">
        <ele>553.8</ele>
        <time>2022-10-19T15:05:12Z</time>
      </trkpt>
      <trkpt lat="43.56961" lon="6.40338">
        <ele>554.5</ele>
        <time>2022-10-19T15:05:20Z</time>
      </trkpt>
      <trkpt lat="43.56959" lon="6.40332">
        <ele>555.1</ele>
        <time>2022-10-19T15:05:27Z</time>
      </trkpt>
      <trkpt lat="43.56959" lon="6.40325">
        <ele>555.6</ele>
        <time>2022-10-19T15:05:33Z</time>
      </trkpt>
      <trkpt lat="43.56962" lon="6.40316">
        <ele>556</ele>
        <time>2022-10-19T15:05:38Z</time>
      </trkpt>
      <trkpt lat="43.56964" lon="6.40309">
        <ele>556.8</ele>
        <time>2022-10-19T15:05:46Z</time>
      </trkpt>
      <trkpt lat="43.56965" lon="6.40302">
        <ele>557.4</ele>
        <time>2022-10-19T15:05:52Z</time>
      </trkpt>
      <trkpt lat="43.56963" lon="6.40296">
        <ele>558.4</ele>
        <time>2022-10-19T15:06:02Z</time>
      </trkpt>
      <trkpt lat="43.56965" lon="6.4029">
        <ele>559.3</ele>
        <time>2022-10-19T15:06:10Z</time>
      </trkpt>
      <trkpt lat="43.56966" lon="6.40283">
        <ele>559.9</ele>
        <time>2022-10-19T15:06:15Z</time>
      </trkpt>
      <trkpt lat="43.56968" lon="6.40276">
        <ele>560.6</ele>
        <time>2022-10-19T15:06:20Z</time>
      </trkpt>
      <trkpt lat="43.5697" lon="6.40269">
        <ele>561.2</ele>
        <time>2022-10-19T15:06:25Z</time>
      </trkpt>
      <trkpt lat="43.56972" lon="6.40263">
        <ele>562.2</ele>
        <time>2022-10-19T15:06:33Z</time>
      </trkpt>
      <trkpt lat="43.56974" lon="6.40258">
        <ele>562.9</ele>
        <time>2022-10-19T15:06:39Z</time>
      </trkpt>
      <trkpt lat="43.56978" lon="6.40252">
        <ele>563.3</ele>
        <time>2022-10-19T15:06:43Z</time>
      </trkpt>
      <trkpt lat="43.56982" lon="6.40248">
        <ele>564.4</ele>
        <time>2022-10-19T15:06:54Z</time>
      </trkpt>
      <trkpt lat="43.56985" lon="6.40243">
        <ele>565</ele>
        <time>2022-10-19T15:07:01Z</time>
      </trkpt>
      <trkpt lat="43.56985" lon="6.40237">
        <ele>566</ele>
        <time>2022-10-19T15:07:09Z</time>
      </trkpt>
      <trkpt lat="43.56986" lon="6.4023">
        <ele>566.6</ele>
        <time>2022-10-19T15:07:15Z</time>
      </trkpt>
      <trkpt lat="43.56988" lon="6.40223">
        <ele>567.2</ele>
        <time>2022-10-19T15:07:23Z</time>
      </trkpt>
      <trkpt lat="43.56991" lon="6.40218">
        <ele>567.6</ele>
        <time>2022-10-19T15:07:28Z</time>
      </trkpt>
      <trkpt lat="43.56993" lon="6.40211">
        <ele>568</ele>
        <time>2022-10-19T15:07:32Z</time>
      </trkpt>
      <trkpt lat="43.56997" lon="6.40206">
        <ele>568.4</ele>
        <time>2022-10-19T15:07:38Z</time>
      </trkpt>
      <trkpt lat="43.56999" lon="6.40201">
        <ele>569.1</ele>
        <time>2022-10-19T15:07:44Z</time>
      </trkpt>
      <trkpt lat="43.57001" lon="6.40194">
        <ele>569.7</ele>
        <time>2022-10-19T15:07:49Z</time>
      </trkpt>
      <trkpt lat="43.57002" lon="6.40187">
        <ele>570.4</ele>
        <time>2022-10-19T15:07:56Z</time>
      </trkpt>
      <trkpt lat="43.57005" lon="6.40183">
        <ele>571.1</ele>
        <time>2022-10-19T15:08:02Z</time>
      </trkpt>
      <trkpt lat="43.57007" lon="6.40177">
        <ele>571.5</ele>
        <time>2022-10-19T15:08:08Z</time>
      </trkpt>
      <trkpt lat="43.5701" lon="6.40172">
        <ele>572.3</ele>
        <time>2022-10-19T15:08:15Z</time>
      </trkpt>
      <trkpt lat="43.57012" lon="6.40166">
        <ele>573</ele>
        <time>2022-10-19T15:08:22Z</time>
      </trkpt>
      <trkpt lat="43.57014" lon="6.4016">
        <ele>573.4</ele>
        <time>2022-10-19T15:08:27Z</time>
      </trkpt>
      <trkpt lat="43.57017" lon="6.40155">
        <ele>574.2</ele>
        <time>2022-10-19T15:08:35Z</time>
      </trkpt>
      <trkpt lat="43.5702" lon="6.4015">
        <ele>574.6</ele>
        <time>2022-10-19T15:08:39Z</time>
      </trkpt>
      <trkpt lat="43.57022" lon="6.40144">
        <ele>575</ele>
        <time>2022-10-19T15:08:44Z</time>
      </trkpt>
      <trkpt lat="43.57024" lon="6.40138">
        <ele>575.3</ele>
        <time>2022-10-19T15:08:50Z</time>
      </trkpt>
      <trkpt lat="43.57028" lon="6.40132">
        <ele>575.8</ele>
        <time>2022-10-19T15:08:57Z</time>
      </trkpt>
      <trkpt lat="43.5703" lon="6.40126">
        <ele>576.7</ele>
        <time>2022-10-19T15:09:08Z</time>
      </trkpt>
      <trkpt lat="43.57032" lon="6.40119">
        <ele>577.5</ele>
        <time>2022-10-19T15:09:17Z</time>
      </trkpt>
      <trkpt lat="43.57036" lon="6.4011">
        <ele>577.9</ele>
        <time>2022-10-19T15:09:22Z</time>
      </trkpt>
      <trkpt lat="43.5704" lon="6.40104">
        <ele>578.2</ele>
        <time>2022-10-19T15:09:26Z</time>
      </trkpt>
      <trkpt lat="43.57043" lon="6.40099">
        <ele>578.6</ele>
        <time>2022-10-19T15:09:31Z</time>
      </trkpt>
      <trkpt lat="43.57044" lon="6.40093">
        <ele>579.4</ele>
        <time>2022-10-19T15:09:40Z</time>
      </trkpt>
      <trkpt lat="43.57042" lon="6.40085">
        <ele>579.7</ele>
        <time>2022-10-19T15:09:49Z</time>
      </trkpt>
      <trkpt lat="43.5704" lon="6.4008">
        <ele>579.8</ele>
        <time>2022-10-19T15:09:56Z</time>
      </trkpt>
      <trkpt lat="43.5704" lon="6.40073">
        <ele>580</ele>
        <time>2022-10-19T15:10:02Z</time>
      </trkpt>
      <trkpt lat="43.5704" lon="6.40067">
        <ele>580.4</ele>
        <time>2022-10-19T15:10:08Z</time>
      </trkpt>
      <trkpt lat="43.5704" lon="6.40059">
        <ele>580.7</ele>
        <time>2022-10-19T15:10:12Z</time>
      </trkpt>
      <trkpt lat="43.57042" lon="6.40052">
        <ele>581.1</ele>
        <time>2022-10-19T15:10:17Z</time>
      </trkpt>
      <trkpt lat="43.57042" lon="6.40045">
        <ele>581.3</ele>
        <time>2022-10-19T15:10:20Z</time>
      </trkpt>
      <trkpt lat="43.5704" lon="6.40037">
        <ele>581.5</ele>
        <time>2022-10-19T15:10:25Z</time>
      </trkpt>
      <trkpt lat="43.57038" lon="6.40031">
        <ele>581.6</ele>
        <time>2022-10-19T15:10:28Z</time>
      </trkpt>
      <trkpt lat="43.57036" lon="6.40024">
        <ele>581.7</ele>
        <time>2022-10-19T15:10:31Z</time>
      </trkpt>
      <trkpt lat="43.57036" lon="6.40015">
        <ele>581.9</ele>
        <time>2022-10-19T15:10:36Z</time>
      </trkpt>
      <trkpt lat="43.57034" lon="6.4001">
        <ele>581.9</ele>
        <time>2022-10-19T15:10:40Z</time>
      </trkpt>
      <trkpt lat="43.5703" lon="6.40006">
        <ele>581.9</ele>
        <time>2022-10-19T15:10:45Z</time>
      </trkpt>
      <trkpt lat="43.57026" lon="6.40003">
        <ele>581.6</ele>
        <time>2022-10-19T15:10:49Z</time>
      </trkpt>
      <trkpt lat="43.57021" lon="6.39998">
        <ele>581.4</ele>
        <time>2022-10-19T15:10:53Z</time>
      </trkpt>
      <trkpt lat="43.57017" lon="6.39994">
        <ele>580.9</ele>
        <time>2022-10-19T15:10:59Z</time>
      </trkpt>
      <trkpt lat="43.57014" lon="6.39988">
        <ele>580.7</ele>
        <time>2022-10-19T15:11:03Z</time>
      </trkpt>
      <trkpt lat="43.5701" lon="6.39984">
        <ele>580.4</ele>
        <time>2022-10-19T15:11:06Z</time>
      </trkpt>
      <trkpt lat="43.57007" lon="6.39978">
        <ele>579.5</ele>
        <time>2022-10-19T15:11:12Z</time>
      </trkpt>
      <trkpt lat="43.57004" lon="6.39974">
        <ele>579</ele>
        <time>2022-10-19T15:11:16Z</time>
      </trkpt>
      <trkpt lat="43.57" lon="6.3997">
        <ele>578.6</ele>
        <time>2022-10-19T15:11:19Z</time>
      </trkpt>
      <trkpt lat="43.56995" lon="6.39966">
        <ele>578.1</ele>
        <time>2022-10-19T15:11:23Z</time>
      </trkpt>
      <trkpt lat="43.5699" lon="6.39964">
        <ele>577.2</ele>
        <time>2022-10-19T15:11:28Z</time>
      </trkpt>
      <trkpt lat="43.56986" lon="6.3996">
        <ele>576.2</ele>
        <time>2022-10-19T15:11:33Z</time>
      </trkpt>
      <trkpt lat="43.56983" lon="6.39955">
        <ele>575.6</ele>
        <time>2022-10-19T15:11:36Z</time>
      </trkpt>
      <trkpt lat="43.56982" lon="6.39946">
        <ele>575.1</ele>
        <time>2022-10-19T15:11:40Z</time>
      </trkpt>
      <trkpt lat="43.56979" lon="6.39941">
        <ele>574.8</ele>
        <time>2022-10-19T15:11:43Z</time>
      </trkpt>
      <trkpt lat="43.56977" lon="6.39935">
        <ele>574.4</ele>
        <time>2022-10-19T15:11:49Z</time>
      </trkpt>
      <trkpt lat="43.56979" lon="6.39928">
        <ele>574</ele>
        <time>2022-10-19T15:11:54Z</time>
      </trkpt>
      <trkpt lat="43.56979" lon="6.39921">
        <ele>573.7</ele>
        <time>2022-10-19T15:11:58Z</time>
      </trkpt>
      <trkpt lat="43.56979" lon="6.39914">
        <ele>573.6</ele>
        <time>2022-10-19T15:12:03Z</time>
      </trkpt>
      <trkpt lat="43.56976" lon="6.3991">
        <ele>573.5</ele>
        <time>2022-10-19T15:12:06Z</time>
      </trkpt>
      <trkpt lat="43.56973" lon="6.39903">
        <ele>573.4</ele>
        <time>2022-10-19T15:12:11Z</time>
      </trkpt>
      <trkpt lat="43.56972" lon="6.39896">
        <ele>573.2</ele>
        <time>2022-10-19T15:12:15Z</time>
      </trkpt>
      <trkpt lat="43.56971" lon="6.39888">
        <ele>573</ele>
        <time>2022-10-19T15:12:18Z</time>
      </trkpt>
      <trkpt lat="43.56969" lon="6.39881">
        <ele>572.9</ele>
        <time>2022-10-19T15:12:22Z</time>
      </trkpt>
      <trkpt lat="43.56966" lon="6.39876">
        <ele>572.7</ele>
        <time>2022-10-19T15:12:25Z</time>
      </trkpt>
      <trkpt lat="43.56962" lon="6.39871">
        <ele>572.1</ele>
        <time>2022-10-19T15:12:31Z</time>
      </trkpt>
      <trkpt lat="43.56958" lon="6.39867">
        <ele>571.5</ele>
        <time>2022-10-19T15:12:35Z</time>
      </trkpt>
      <trkpt lat="43.56954" lon="6.39864">
        <ele>571.1</ele>
        <time>2022-10-19T15:12:38Z</time>
      </trkpt>
      <trkpt lat="43.56948" lon="6.39861">
        <ele>570.3</ele>
        <time>2022-10-19T15:12:42Z</time>
      </trkpt>
      <trkpt lat="43.56944" lon="6.39859">
        <ele>569.7</ele>
        <time>2022-10-19T15:12:46Z</time>
      </trkpt>
      <trkpt lat="43.56939" lon="6.39856">
        <ele>569</ele>
        <time>2022-10-19T15:12:50Z</time>
      </trkpt>
      <trkpt lat="43.56934" lon="6.39852">
        <ele>568.3</ele>
        <time>2022-10-19T15:12:54Z</time>
      </trkpt>
      <trkpt lat="43.5693" lon="6.39852">
        <ele>567.2</ele>
        <time>2022-10-19T15:13:00Z</time>
      </trkpt>
      <trkpt lat="43.56925" lon="6.39851">
        <ele>566.5</ele>
        <time>2022-10-19T15:13:04Z</time>
      </trkpt>
      <trkpt lat="43.5692" lon="6.39849">
        <ele>565.8</ele>
        <time>2022-10-19T15:13:08Z</time>
      </trkpt>
      <trkpt lat="43.56915" lon="6.39849">
        <ele>565.2</ele>
        <time>2022-10-19T15:13:11Z</time>
      </trkpt>
      <trkpt lat="43.5691" lon="6.39848">
        <ele>563.4</ele>
        <time>2022-10-19T15:13:20Z</time>
      </trkpt>
      <trkpt lat="43.56906" lon="6.39845">
        <ele>562.5</ele>
        <time>2022-10-19T15:13:25Z</time>
      </trkpt>
      <trkpt lat="43.56901" lon="6.39844">
        <ele>561.7</ele>
        <time>2022-10-19T15:13:30Z</time>
      </trkpt>
      <trkpt lat="43.56897" lon="6.39841">
        <ele>560.9</ele>
        <time>2022-10-19T15:13:34Z</time>
      </trkpt>
      <trkpt lat="43.56892" lon="6.39839">
        <ele>559.9</ele>
        <time>2022-10-19T15:13:39Z</time>
      </trkpt>
      <trkpt lat="43.56888" lon="6.39837">
        <ele>559.1</ele>
        <time>2022-10-19T15:13:43Z</time>
      </trkpt>
      <trkpt lat="43.56883" lon="6.39834">
        <ele>558.5</ele>
        <time>2022-10-19T15:13:47Z</time>
      </trkpt>
      <trkpt lat="43.56877" lon="6.3983">
        <ele>558</ele>
        <time>2022-10-19T15:13:51Z</time>
      </trkpt>
      <trkpt lat="43.56872" lon="6.39827">
        <ele>557.1</ele>
        <time>2022-10-19T15:13:56Z</time>
      </trkpt>
      <trkpt lat="43.56867" lon="6.39827">
        <ele>556</ele>
        <time>2022-10-19T15:14:02Z</time>
      </trkpt>
      <trkpt lat="43.56862" lon="6.39825">
        <ele>555.5</ele>
        <time>2022-10-19T15:14:06Z</time>
      </trkpt>
      <trkpt lat="43.56857" lon="6.39824">
        <ele>554.6</ele>
        <time>2022-10-19T15:14:11Z</time>
      </trkpt>
      <trkpt lat="43.56853" lon="6.39821">
        <ele>553.8</ele>
        <time>2022-10-19T15:14:16Z</time>
      </trkpt>
      <trkpt lat="43.56852" lon="6.39813">
        <ele>552.9</ele>
        <time>2022-10-19T15:14:22Z</time>
      </trkpt>
      <trkpt lat="43.56851" lon="6.39805">
        <ele>552.6</ele>
        <time>2022-10-19T15:14:27Z</time>
      </trkpt>
      <trkpt lat="43.56849" lon="6.39799">
        <ele>552.3</ele>
        <time>2022-10-19T15:14:32Z</time>
      </trkpt>
      <trkpt lat="43.5685" lon="6.39792">
        <ele>551.8</ele>
        <time>2022-10-19T15:14:37Z</time>
      </trkpt>
      <trkpt lat="43.56852" lon="6.39785">
        <ele>551.5</ele>
        <time>2022-10-19T15:14:40Z</time>
      </trkpt>
      <trkpt lat="43.56851" lon="6.39779">
        <ele>550.7</ele>
        <time>2022-10-19T15:14:45Z</time>
      </trkpt>
      <trkpt lat="43.56849" lon="6.39773">
        <ele>549.8</ele>
        <time>2022-10-19T15:14:50Z</time>
      </trkpt>
      <trkpt lat="43.5685" lon="6.39765">
        <ele>549.2</ele>
        <time>2022-10-19T15:14:54Z</time>
      </trkpt>
      <trkpt lat="43.56848" lon="6.39759">
        <ele>548.6</ele>
        <time>2022-10-19T15:14:58Z</time>
      </trkpt>
      <trkpt lat="43.56849" lon="6.39753">
        <ele>547.7</ele>
        <time>2022-10-19T15:15:04Z</time>
      </trkpt>
      <trkpt lat="43.56849" lon="6.39745">
        <ele>547.2</ele>
        <time>2022-10-19T15:15:08Z</time>
      </trkpt>
      <trkpt lat="43.56848" lon="6.39738">
        <ele>546.8</ele>
        <time>2022-10-19T15:15:11Z</time>
      </trkpt>
      <trkpt lat="43.56846" lon="6.39731">
        <ele>546.2</ele>
        <time>2022-10-19T15:15:15Z</time>
      </trkpt>
      <trkpt lat="43.56844" lon="6.39725">
        <ele>545.2</ele>
        <time>2022-10-19T15:15:21Z</time>
      </trkpt>
      <trkpt lat="43.5684" lon="6.39719">
        <ele>544.2</ele>
        <time>2022-10-19T15:15:27Z</time>
      </trkpt>
      <trkpt lat="43.56838" lon="6.39713">
        <ele>543.6</ele>
        <time>2022-10-19T15:15:30Z</time>
      </trkpt>
      <trkpt lat="43.56838" lon="6.39706">
        <ele>543</ele>
        <time>2022-10-19T15:15:34Z</time>
      </trkpt>
      <trkpt lat="43.56838" lon="6.39699">
        <ele>541.8</ele>
        <time>2022-10-19T15:15:40Z</time>
      </trkpt>
      <trkpt lat="43.56834" lon="6.39693">
        <ele>540.5</ele>
        <time>2022-10-19T15:15:47Z</time>
      </trkpt>
      <trkpt lat="43.56833" lon="6.39687">
        <ele>539.7</ele>
        <time>2022-10-19T15:15:52Z</time>
      </trkpt>
      <trkpt lat="43.5683" lon="6.39681">
        <ele>539.2</ele>
        <time>2022-10-19T15:15:56Z</time>
      </trkpt>
      <trkpt lat="43.56827" lon="6.39673">
        <ele>538.7</ele>
        <time>2022-10-19T15:16:00Z</time>
      </trkpt>
      <trkpt lat="43.56826" lon="6.39666">
        <ele>538.4</ele>
        <time>2022-10-19T15:16:03Z</time>
      </trkpt>
      <trkpt lat="43.56822" lon="6.39661">
        <ele>538</ele>
        <time>2022-10-19T15:16:07Z</time>
      </trkpt>
      <trkpt lat="43.56819" lon="6.39657">
        <ele>537.7</ele>
        <time>2022-10-19T15:16:10Z</time>
      </trkpt>
      <trkpt lat="43.56816" lon="6.3965">
        <ele>537.6</ele>
        <time>2022-10-19T15:16:14Z</time>
      </trkpt>
      <trkpt lat="43.56814" lon="6.39644">
        <ele>537.5</ele>
        <time>2022-10-19T15:16:19Z</time>
      </trkpt>
      <trkpt lat="43.56812" lon="6.39639">
        <ele>537.5</ele>
        <time>2022-10-19T15:16:22Z</time>
      </trkpt>
      <trkpt lat="43.56808" lon="6.39633">
        <ele>537.5</ele>
        <time>2022-10-19T15:16:25Z</time>
      </trkpt>
      <trkpt lat="43.56805" lon="6.39627">
        <ele>537.4</ele>
        <time>2022-10-19T15:16:30Z</time>
      </trkpt>
      <trkpt lat="43.56802" lon="6.3962">
        <ele>537.5</ele>
        <time>2022-10-19T15:16:35Z</time>
      </trkpt>
      <trkpt lat="43.568" lon="6.39614">
        <ele>537.6</ele>
        <time>2022-10-19T15:16:40Z</time>
      </trkpt>
      <trkpt lat="43.56799" lon="6.39608">
        <ele>537.8</ele>
        <time>2022-10-19T15:16:43Z</time>
      </trkpt>
      <trkpt lat="43.56798" lon="6.39601">
        <ele>537.9</ele>
        <time>2022-10-19T15:16:48Z</time>
      </trkpt>
      <trkpt lat="43.56798" lon="6.39595">
        <ele>538.2</ele>
        <time>2022-10-19T15:16:52Z</time>
      </trkpt>
      <trkpt lat="43.56797" lon="6.39587">
        <ele>538.4</ele>
        <time>2022-10-19T15:16:56Z</time>
      </trkpt>
      <trkpt lat="43.56796" lon="6.39581">
        <ele>538.5</ele>
        <time>2022-10-19T15:17:01Z</time>
      </trkpt>
      <trkpt lat="43.56795" lon="6.39574">
        <ele>538.6</ele>
        <time>2022-10-19T15:17:04Z</time>
      </trkpt>
      <trkpt lat="43.56793" lon="6.39568">
        <ele>538.8</ele>
        <time>2022-10-19T15:17:08Z</time>
      </trkpt>
      <trkpt lat="43.56792" lon="6.3956">
        <ele>539</ele>
        <time>2022-10-19T15:17:13Z</time>
      </trkpt>
      <trkpt lat="43.56791" lon="6.39552">
        <ele>539.1</ele>
        <time>2022-10-19T15:17:17Z</time>
      </trkpt>
      <trkpt lat="43.5679" lon="6.39545">
        <ele>539.2</ele>
        <time>2022-10-19T15:17:20Z</time>
      </trkpt>
      <trkpt lat="43.56788" lon="6.39539">
        <ele>539.2</ele>
        <time>2022-10-19T15:17:25Z</time>
      </trkpt>
      <trkpt lat="43.56789" lon="6.39531">
        <ele>539.3</ele>
        <time>2022-10-19T15:17:29Z</time>
      </trkpt>
      <trkpt lat="43.5679" lon="6.39524">
        <ele>539.4</ele>
        <time>2022-10-19T15:17:32Z</time>
      </trkpt>
      <trkpt lat="43.56788" lon="6.39518">
        <ele>539.4</ele>
        <time>2022-10-19T15:17:36Z</time>
      </trkpt>
      <trkpt lat="43.56785" lon="6.39513">
        <ele>539.4</ele>
        <time>2022-10-19T15:17:39Z</time>
      </trkpt>
      <trkpt lat="43.56785" lon="6.39505">
        <ele>539.4</ele>
        <time>2022-10-19T15:17:43Z</time>
      </trkpt>
      <trkpt lat="43.56783" lon="6.39499">
        <ele>539.3</ele>
        <time>2022-10-19T15:17:47Z</time>
      </trkpt>
      <trkpt lat="43.56781" lon="6.39493">
        <ele>539.3</ele>
        <time>2022-10-19T15:17:51Z</time>
      </trkpt>
      <trkpt lat="43.56779" lon="6.39486">
        <ele>539.3</ele>
        <time>2022-10-19T15:17:55Z</time>
      </trkpt>
      <trkpt lat="43.56778" lon="6.39479">
        <ele>539.2</ele>
        <time>2022-10-19T15:17:59Z</time>
      </trkpt>
      <trkpt lat="43.56775" lon="6.39474">
        <ele>538.8</ele>
        <time>2022-10-19T15:18:11Z</time>
      </trkpt>
      <trkpt lat="43.56771" lon="6.39474">
        <ele>539.6</ele>
        <time>2022-10-19T15:18:42Z</time>
      </trkpt>
      <trkpt lat="43.56767" lon="6.39471">
        <ele>539.2</ele>
        <time>2022-10-19T15:21:14Z</time>
      </trkpt>
      <trkpt lat="43.56763" lon="6.39474">
        <ele>538.7</ele>
        <time>2022-10-19T15:21:18Z</time>
      </trkpt>
      <trkpt lat="43.56758" lon="6.39479">
        <ele>538.4</ele>
        <time>2022-10-19T15:21:23Z</time>
      </trkpt>
      <trkpt lat="43.56754" lon="6.39481">
        <ele>538.1</ele>
        <time>2022-10-19T15:21:26Z</time>
      </trkpt>
      <trkpt lat="43.5675" lon="6.39485">
        <ele>537.7</ele>
        <time>2022-10-19T15:21:30Z</time>
      </trkpt>
      <trkpt lat="43.56746" lon="6.39489">
        <ele>537.4</ele>
        <time>2022-10-19T15:21:34Z</time>
      </trkpt>
      <trkpt lat="43.56741" lon="6.3949">
        <ele>537.1</ele>
        <time>2022-10-19T15:21:38Z</time>
      </trkpt>
      <trkpt lat="43.56736" lon="6.39493">
        <ele>536.8</ele>
        <time>2022-10-19T15:21:42Z</time>
      </trkpt>
      <trkpt lat="43.56731" lon="6.39498">
        <ele>536.2</ele>
        <time>2022-10-19T15:21:48Z</time>
      </trkpt>
      <trkpt lat="43.56727" lon="6.395">
        <ele>535.8</ele>
        <time>2022-10-19T15:21:52Z</time>
      </trkpt>
      <trkpt lat="43.56722" lon="6.39502">
        <ele>535.6</ele>
        <time>2022-10-19T15:21:56Z</time>
      </trkpt>
      <trkpt lat="43.56718" lon="6.39503">
        <ele>535.1</ele>
        <time>2022-10-19T15:22:01Z</time>
      </trkpt>
      <trkpt lat="43.56713" lon="6.39505">
        <ele>534.8</ele>
        <time>2022-10-19T15:22:04Z</time>
      </trkpt>
      <trkpt lat="43.56708" lon="6.39508">
        <ele>534.5</ele>
        <time>2022-10-19T15:22:07Z</time>
      </trkpt>
      <trkpt lat="43.56703" lon="6.39511">
        <ele>534.3</ele>
        <time>2022-10-19T15:22:10Z</time>
      </trkpt>
      <trkpt lat="43.56699" lon="6.39514">
        <ele>534</ele>
        <time>2022-10-19T15:22:15Z</time>
      </trkpt>
      <trkpt lat="43.56693" lon="6.39516">
        <ele>533.8</ele>
        <time>2022-10-19T15:22:19Z</time>
      </trkpt>
      <trkpt lat="43.56687" lon="6.39517">
        <ele>533.5</ele>
        <time>2022-10-19T15:22:22Z</time>
      </trkpt>
      <trkpt lat="43.56685" lon="6.39524">
        <ele>533.1</ele>
        <time>2022-10-19T15:22:27Z</time>
      </trkpt>
      <trkpt lat="43.56682" lon="6.3953">
        <ele>532.3</ele>
        <time>2022-10-19T15:22:32Z</time>
      </trkpt>
      <trkpt lat="43.56678" lon="6.39534">
        <ele>531.9</ele>
        <time>2022-10-19T15:22:35Z</time>
      </trkpt>
      <trkpt lat="43.56675" lon="6.39539">
        <ele>531.6</ele>
        <time>2022-10-19T15:22:39Z</time>
      </trkpt>
      <trkpt lat="43.56671" lon="6.39544">
        <ele>531.5</ele>
        <time>2022-10-19T15:22:42Z</time>
      </trkpt>
      <trkpt lat="43.56668" lon="6.3955">
        <ele>530.9</ele>
        <time>2022-10-19T15:22:46Z</time>
      </trkpt>
      <trkpt lat="43.56665" lon="6.39556">
        <ele>530.1</ele>
        <time>2022-10-19T15:22:51Z</time>
      </trkpt>
      <trkpt lat="43.56661" lon="6.3956">
        <ele>529.8</ele>
        <time>2022-10-19T15:22:55Z</time>
      </trkpt>
      <trkpt lat="43.5666" lon="6.39567">
        <ele>529.2</ele>
        <time>2022-10-19T15:23:00Z</time>
      </trkpt>
      <trkpt lat="43.56658" lon="6.39573">
        <ele>528.4</ele>
        <time>2022-10-19T15:23:04Z</time>
      </trkpt>
      <trkpt lat="43.56653" lon="6.39578">
        <ele>527.7</ele>
        <time>2022-10-19T15:23:08Z</time>
      </trkpt>
      <trkpt lat="43.56651" lon="6.39584">
        <ele>527.3</ele>
        <time>2022-10-19T15:23:12Z</time>
      </trkpt>
      <trkpt lat="43.5665" lon="6.39591">
        <ele>526.5</ele>
        <time>2022-10-19T15:23:17Z</time>
      </trkpt>
      <trkpt lat="43.56647" lon="6.39596">
        <ele>526.1</ele>
        <time>2022-10-19T15:23:21Z</time>
      </trkpt>
      <trkpt lat="43.56645" lon="6.39602">
        <ele>525.9</ele>
        <time>2022-10-19T15:23:24Z</time>
      </trkpt>
      <trkpt lat="43.5664" lon="6.39607">
        <ele>525.7</ele>
        <time>2022-10-19T15:23:29Z</time>
      </trkpt>
      <trkpt lat="43.56637" lon="6.39612">
        <ele>525</ele>
        <time>2022-10-19T15:23:35Z</time>
      </trkpt>
      <trkpt lat="43.56632" lon="6.39617">
        <ele>524.5</ele>
        <time>2022-10-19T15:23:39Z</time>
      </trkpt>
      <trkpt lat="43.56628" lon="6.39621">
        <ele>524.2</ele>
        <time>2022-10-19T15:23:42Z</time>
      </trkpt>
      <trkpt lat="43.56623" lon="6.39627">
        <ele>524</ele>
        <time>2022-10-19T15:23:45Z</time>
      </trkpt>
      <trkpt lat="43.56619" lon="6.39631">
        <ele>523.7</ele>
        <time>2022-10-19T15:23:48Z</time>
      </trkpt>
      <trkpt lat="43.56617" lon="6.39639">
        <ele>523.2</ele>
        <time>2022-10-19T15:23:54Z</time>
      </trkpt>
      <trkpt lat="43.56612" lon="6.39644">
        <ele>522.8</ele>
        <time>2022-10-19T15:23:58Z</time>
      </trkpt>
      <trkpt lat="43.56608" lon="6.39649">
        <ele>522.6</ele>
        <time>2022-10-19T15:24:03Z</time>
      </trkpt>
      <trkpt lat="43.56604" lon="6.39653">
        <ele>522.5</ele>
        <time>2022-10-19T15:24:06Z</time>
      </trkpt>
      <trkpt lat="43.56601" lon="6.39659">
        <ele>522.3</ele>
        <time>2022-10-19T15:24:10Z</time>
      </trkpt>
      <trkpt lat="43.56597" lon="6.39664">
        <ele>521.6</ele>
        <time>2022-10-19T15:24:16Z</time>
      </trkpt>
      <trkpt lat="43.56593" lon="6.39669">
        <ele>521.1</ele>
        <time>2022-10-19T15:24:20Z</time>
      </trkpt>
      <trkpt lat="43.56589" lon="6.39672">
        <ele>521.1</ele>
        <time>2022-10-19T15:24:22Z</time>
      </trkpt>
      <trkpt lat="43.56584" lon="6.39677">
        <ele>520.8</ele>
        <time>2022-10-19T15:24:27Z</time>
      </trkpt>
      <trkpt lat="43.56581" lon="6.39682">
        <ele>520</ele>
        <time>2022-10-19T15:24:32Z</time>
      </trkpt>
      <trkpt lat="43.56577" lon="6.39686">
        <ele>519.6</ele>
        <time>2022-10-19T15:24:35Z</time>
      </trkpt>
      <trkpt lat="43.56571" lon="6.3969">
        <ele>519.4</ele>
        <time>2022-10-19T15:24:38Z</time>
      </trkpt>
      <trkpt lat="43.56565" lon="6.39694">
        <ele>519.1</ele>
        <time>2022-10-19T15:24:41Z</time>
      </trkpt>
      <trkpt lat="43.56562" lon="6.39698">
        <ele>518.5</ele>
        <time>2022-10-19T15:24:47Z</time>
      </trkpt>
      <trkpt lat="43.56558" lon="6.39701">
        <ele>517.5</ele>
        <time>2022-10-19T15:24:53Z</time>
      </trkpt>
      <trkpt lat="43.56554" lon="6.39705">
        <ele>517</ele>
        <time>2022-10-19T15:24:57Z</time>
      </trkpt>
      <trkpt lat="43.56549" lon="6.3971">
        <ele>516.2</ele>
        <time>2022-10-19T15:25:02Z</time>
      </trkpt>
      <trkpt lat="43.56545" lon="6.39714">
        <ele>515.7</ele>
        <time>2022-10-19T15:25:06Z</time>
      </trkpt>
      <trkpt lat="43.56542" lon="6.39719">
        <ele>515.4</ele>
        <time>2022-10-19T15:25:09Z</time>
      </trkpt>
      <trkpt lat="43.56536" lon="6.39724">
        <ele>515.1</ele>
        <time>2022-10-19T15:25:12Z</time>
      </trkpt>
      <trkpt lat="43.56532" lon="6.39729">
        <ele>514.7</ele>
        <time>2022-10-19T15:25:17Z</time>
      </trkpt>
      <trkpt lat="43.56527" lon="6.39731">
        <ele>514.3</ele>
        <time>2022-10-19T15:25:21Z</time>
      </trkpt>
      <trkpt lat="43.56521" lon="6.39735">
        <ele>513.8</ele>
        <time>2022-10-19T15:25:25Z</time>
      </trkpt>
      <trkpt lat="43.56517" lon="6.39738">
        <ele>513.4</ele>
        <time>2022-10-19T15:25:30Z</time>
      </trkpt>
      <trkpt lat="43.56513" lon="6.39742">
        <ele>513.2</ele>
        <time>2022-10-19T15:25:33Z</time>
      </trkpt>
      <trkpt lat="43.56508" lon="6.39743">
        <ele>512.8</ele>
        <time>2022-10-19T15:25:37Z</time>
      </trkpt>
      <trkpt lat="43.56504" lon="6.39747">
        <ele>512.3</ele>
        <time>2022-10-19T15:25:42Z</time>
      </trkpt>
      <trkpt lat="43.56499" lon="6.3975">
        <ele>511</ele>
        <time>2022-10-19T15:25:48Z</time>
      </trkpt>
      <trkpt lat="43.56494" lon="6.39752">
        <ele>510.7</ele>
        <time>2022-10-19T15:25:51Z</time>
      </trkpt>
      <trkpt lat="43.56489" lon="6.39754">
        <ele>510.5</ele>
        <time>2022-10-19T15:25:53Z</time>
      </trkpt>
      <trkpt lat="43.56485" lon="6.39759">
        <ele>510.1</ele>
        <time>2022-10-19T15:25:57Z</time>
      </trkpt>
      <trkpt lat="43.56482" lon="6.39765">
        <ele>509.5</ele>
        <time>2022-10-19T15:26:01Z</time>
      </trkpt>
      <trkpt lat="43.56478" lon="6.39769">
        <ele>508.5</ele>
        <time>2022-10-19T15:26:09Z</time>
      </trkpt>
      <trkpt lat="43.56472" lon="6.39774">
        <ele>508.2</ele>
        <time>2022-10-19T15:26:13Z</time>
      </trkpt>
      <trkpt lat="43.56466" lon="6.39777">
        <ele>507.7</ele>
        <time>2022-10-19T15:26:18Z</time>
      </trkpt>
      <trkpt lat="43.56463" lon="6.39782">
        <ele>507.3</ele>
        <time>2022-10-19T15:26:22Z</time>
      </trkpt>
      <trkpt lat="43.56459" lon="6.39787">
        <ele>506.9</ele>
        <time>2022-10-19T15:26:27Z</time>
      </trkpt>
      <trkpt lat="43.56453" lon="6.39789">
        <ele>506.7</ele>
        <time>2022-10-19T15:26:30Z</time>
      </trkpt>
      <trkpt lat="43.56449" lon="6.39792">
        <ele>506.4</ele>
        <time>2022-10-19T15:26:33Z</time>
      </trkpt>
      <trkpt lat="43.56445" lon="6.39796">
        <ele>506.1</ele>
        <time>2022-10-19T15:26:36Z</time>
      </trkpt>
      <trkpt lat="43.56441" lon="6.39802">
        <ele>505.7</ele>
        <time>2022-10-19T15:26:42Z</time>
      </trkpt>
      <trkpt lat="43.56437" lon="6.39806">
        <ele>505.5</ele>
        <time>2022-10-19T15:26:45Z</time>
      </trkpt>
      <trkpt lat="43.56435" lon="6.39812">
        <ele>505.4</ele>
        <time>2022-10-19T15:26:47Z</time>
      </trkpt>
      <trkpt lat="43.56431" lon="6.39816">
        <ele>505.3</ele>
        <time>2022-10-19T15:26:50Z</time>
      </trkpt>
      <trkpt lat="43.56429" lon="6.39822">
        <ele>504.9</ele>
        <time>2022-10-19T15:26:56Z</time>
      </trkpt>
      <trkpt lat="43.56428" lon="6.39829">
        <ele>504.5</ele>
        <time>2022-10-19T15:27:00Z</time>
      </trkpt>
      <trkpt lat="43.56423" lon="6.39834">
        <ele>504.4</ele>
        <time>2022-10-19T15:27:04Z</time>
      </trkpt>
      <trkpt lat="43.56421" lon="6.39841">
        <ele>504.2</ele>
        <time>2022-10-19T15:27:08Z</time>
      </trkpt>
      <trkpt lat="43.56418" lon="6.39847">
        <ele>504</ele>
        <time>2022-10-19T15:27:11Z</time>
      </trkpt>
      <trkpt lat="43.56418" lon="6.39855">
        <ele>503.5</ele>
        <time>2022-10-19T15:27:17Z</time>
      </trkpt>
      <trkpt lat="43.56416" lon="6.39861">
        <ele>503.4</ele>
        <time>2022-10-19T15:27:21Z</time>
      </trkpt>
      <trkpt lat="43.56415" lon="6.39869">
        <ele>503.2</ele>
        <time>2022-10-19T15:27:26Z</time>
      </trkpt>
      <trkpt lat="43.56413" lon="6.39876">
        <ele>502.8</ele>
        <time>2022-10-19T15:27:30Z</time>
      </trkpt>
      <trkpt lat="43.56411" lon="6.39882">
        <ele>502.3</ele>
        <time>2022-10-19T15:27:34Z</time>
      </trkpt>
      <trkpt lat="43.56407" lon="6.39889">
        <ele>502</ele>
        <time>2022-10-19T15:27:37Z</time>
      </trkpt>
      <trkpt lat="43.56404" lon="6.39894">
        <ele>501.9</ele>
        <time>2022-10-19T15:27:39Z</time>
      </trkpt>
      <trkpt lat="43.56402" lon="6.399">
        <ele>501.8</ele>
        <time>2022-10-19T15:27:43Z</time>
      </trkpt>
      <trkpt lat="43.564" lon="6.39907">
        <ele>501.6</ele>
        <time>2022-10-19T15:27:48Z</time>
      </trkpt>
      <trkpt lat="43.56401" lon="6.39914">
        <ele>501.4</ele>
        <time>2022-10-19T15:27:51Z</time>
      </trkpt>
      <trkpt lat="43.56398" lon="6.3992">
        <ele>500.6</ele>
        <time>2022-10-19T15:27:57Z</time>
      </trkpt>
      <trkpt lat="43.56394" lon="6.39925">
        <ele>500.4</ele>
        <time>2022-10-19T15:28:01Z</time>
      </trkpt>
      <trkpt lat="43.5639" lon="6.39929">
        <ele>500.2</ele>
        <time>2022-10-19T15:28:06Z</time>
      </trkpt>
      <trkpt lat="43.56385" lon="6.39934">
        <ele>499.9</ele>
        <time>2022-10-19T15:28:09Z</time>
      </trkpt>
      <trkpt lat="43.56381" lon="6.39938">
        <ele>499.6</ele>
        <time>2022-10-19T15:28:13Z</time>
      </trkpt>
      <trkpt lat="43.56378" lon="6.39944">
        <ele>499.2</ele>
        <time>2022-10-19T15:28:18Z</time>
      </trkpt>
      <trkpt lat="43.56375" lon="6.39949">
        <ele>498.7</ele>
        <time>2022-10-19T15:28:22Z</time>
      </trkpt>
      <trkpt lat="43.5637" lon="6.39953">
        <ele>498.4</ele>
        <time>2022-10-19T15:28:25Z</time>
      </trkpt>
      <trkpt lat="43.56365" lon="6.39957">
        <ele>498.1</ele>
        <time>2022-10-19T15:28:28Z</time>
      </trkpt>
      <trkpt lat="43.56361" lon="6.39961">
        <ele>497.8</ele>
        <time>2022-10-19T15:28:31Z</time>
      </trkpt>
      <trkpt lat="43.56355" lon="6.39964">
        <ele>497.5</ele>
        <time>2022-10-19T15:28:34Z</time>
      </trkpt>
      <trkpt lat="43.56349" lon="6.39969">
        <ele>496.9</ele>
        <time>2022-10-19T15:28:39Z</time>
      </trkpt>
      <trkpt lat="43.56346" lon="6.39974">
        <ele>496.3</ele>
        <time>2022-10-19T15:28:43Z</time>
      </trkpt>
      <trkpt lat="43.56342" lon="6.39979">
        <ele>495.3</ele>
        <time>2022-10-19T15:28:50Z</time>
      </trkpt>
      <trkpt lat="43.56337" lon="6.39983">
        <ele>494.4</ele>
        <time>2022-10-19T15:28:56Z</time>
      </trkpt>
      <trkpt lat="43.56333" lon="6.39988">
        <ele>493.7</ele>
        <time>2022-10-19T15:29:00Z</time>
      </trkpt>
      <trkpt lat="43.56328" lon="6.39992">
        <ele>493.3</ele>
        <time>2022-10-19T15:29:04Z</time>
      </trkpt>
      <trkpt lat="43.56323" lon="6.39994">
        <ele>492.9</ele>
        <time>2022-10-19T15:29:07Z</time>
      </trkpt>
      <trkpt lat="43.56319" lon="6.39997">
        <ele>492.6</ele>
        <time>2022-10-19T15:29:10Z</time>
      </trkpt>
      <trkpt lat="43.56315" lon="6.39999">
        <ele>492.3</ele>
        <time>2022-10-19T15:29:15Z</time>
      </trkpt>
      <trkpt lat="43.56308" lon="6.40003">
        <ele>492</ele>
        <time>2022-10-19T15:29:19Z</time>
      </trkpt>
      <trkpt lat="43.56303" lon="6.40007">
        <ele>491.6</ele>
        <time>2022-10-19T15:29:22Z</time>
      </trkpt>
      <trkpt lat="43.56298" lon="6.40008">
        <ele>491.2</ele>
        <time>2022-10-19T15:29:26Z</time>
      </trkpt>
      <trkpt lat="43.56293" lon="6.40012">
        <ele>490.8</ele>
        <time>2022-10-19T15:29:30Z</time>
      </trkpt>
      <trkpt lat="43.56288" lon="6.40012">
        <ele>490.4</ele>
        <time>2022-10-19T15:29:33Z</time>
      </trkpt>
      <trkpt lat="43.56284" lon="6.40016">
        <ele>490</ele>
        <time>2022-10-19T15:29:36Z</time>
      </trkpt>
      <trkpt lat="43.56279" lon="6.40018">
        <ele>489.6</ele>
        <time>2022-10-19T15:29:38Z</time>
      </trkpt>
      <trkpt lat="43.56273" lon="6.40021">
        <ele>489.2</ele>
        <time>2022-10-19T15:29:41Z</time>
      </trkpt>
      <trkpt lat="43.56269" lon="6.40025">
        <ele>488.5</ele>
        <time>2022-10-19T15:29:46Z</time>
      </trkpt>
      <trkpt lat="43.56265" lon="6.40026">
        <ele>487.8</ele>
        <time>2022-10-19T15:29:50Z</time>
      </trkpt>
      <trkpt lat="43.56259" lon="6.40027">
        <ele>487</ele>
        <time>2022-10-19T15:29:56Z</time>
      </trkpt>
      <trkpt lat="43.56254" lon="6.40026">
        <ele>486.4</ele>
        <time>2022-10-19T15:30:00Z</time>
      </trkpt>
      <trkpt lat="43.5625" lon="6.40027">
        <ele>485.7</ele>
        <time>2022-10-19T15:30:05Z</time>
      </trkpt>
      <trkpt lat="43.56244" lon="6.40028">
        <ele>484.4</ele>
        <time>2022-10-19T15:30:13Z</time>
      </trkpt>
      <trkpt lat="43.56239" lon="6.40028">
        <ele>483.8</ele>
        <time>2022-10-19T15:30:17Z</time>
      </trkpt>
      <trkpt lat="43.56235" lon="6.40025">
        <ele>482.5</ele>
        <time>2022-10-19T15:30:24Z</time>
      </trkpt>
      <trkpt lat="43.5623" lon="6.40022">
        <ele>482</ele>
        <time>2022-10-19T15:30:28Z</time>
      </trkpt>
      <trkpt lat="43.56225" lon="6.4002">
        <ele>481.5</ele>
        <time>2022-10-19T15:30:32Z</time>
      </trkpt>
      <trkpt lat="43.56222" lon="6.40016">
        <ele>480.7</ele>
        <time>2022-10-19T15:30:37Z</time>
      </trkpt>
      <trkpt lat="43.56215" lon="6.40016">
        <ele>480.4</ele>
        <time>2022-10-19T15:30:40Z</time>
      </trkpt>
      <trkpt lat="43.56212" lon="6.40011">
        <ele>479.5</ele>
        <time>2022-10-19T15:30:46Z</time>
      </trkpt>
      <trkpt lat="43.56208" lon="6.40007">
        <ele>478.7</ele>
        <time>2022-10-19T15:30:52Z</time>
      </trkpt>
      <trkpt lat="43.56203" lon="6.40005">
        <ele>478.2</ele>
        <time>2022-10-19T15:30:55Z</time>
      </trkpt>
      <trkpt lat="43.56199" lon="6.40002">
        <ele>477.5</ele>
        <time>2022-10-19T15:31:00Z</time>
      </trkpt>
      <trkpt lat="43.56196" lon="6.39997">
        <ele>476.7</ele>
        <time>2022-10-19T15:31:05Z</time>
      </trkpt>
      <trkpt lat="43.56192" lon="6.39995">
        <ele>476</ele>
        <time>2022-10-19T15:31:09Z</time>
      </trkpt>
      <trkpt lat="43.56187" lon="6.39993">
        <ele>475.4</ele>
        <time>2022-10-19T15:31:13Z</time>
      </trkpt>
      <trkpt lat="43.56182" lon="6.39989">
        <ele>474.7</ele>
        <time>2022-10-19T15:31:18Z</time>
      </trkpt>
      <trkpt lat="43.56178" lon="6.39987">
        <ele>474.1</ele>
        <time>2022-10-19T15:31:21Z</time>
      </trkpt>
      <trkpt lat="43.56173" lon="6.39984">
        <ele>473.7</ele>
        <time>2022-10-19T15:31:24Z</time>
      </trkpt>
      <trkpt lat="43.56168" lon="6.39981">
        <ele>473.1</ele>
        <time>2022-10-19T15:31:28Z</time>
      </trkpt>
      <trkpt lat="43.56163" lon="6.39984">
        <ele>472.3</ele>
        <time>2022-10-19T15:31:33Z</time>
      </trkpt>
      <trkpt lat="43.56158" lon="6.39982">
        <ele>471.8</ele>
        <time>2022-10-19T15:31:37Z</time>
      </trkpt>
      <trkpt lat="43.56154" lon="6.39979">
        <ele>471.1</ele>
        <time>2022-10-19T15:31:42Z</time>
      </trkpt>
      <trkpt lat="43.56148" lon="6.39979">
        <ele>470.4</ele>
        <time>2022-10-19T15:31:47Z</time>
      </trkpt>
      <trkpt lat="43.56142" lon="6.39977">
        <ele>470</ele>
        <time>2022-10-19T15:31:51Z</time>
      </trkpt>
      <trkpt lat="43.56137" lon="6.39976">
        <ele>469.8</ele>
        <time>2022-10-19T15:31:53Z</time>
      </trkpt>
      <trkpt lat="43.56133" lon="6.39974">
        <ele>469.6</ele>
        <time>2022-10-19T15:31:55Z</time>
      </trkpt>
      <trkpt lat="43.56127" lon="6.39971">
        <ele>469.3</ele>
        <time>2022-10-19T15:31:58Z</time>
      </trkpt>
      <trkpt lat="43.56121" lon="6.39971">
        <ele>468.9</ele>
        <time>2022-10-19T15:32:01Z</time>
      </trkpt>
      <trkpt lat="43.56115" lon="6.39968">
        <ele>468.6</ele>
        <time>2022-10-19T15:32:04Z</time>
      </trkpt>
      <trkpt lat="43.5611" lon="6.39966">
        <ele>468.2</ele>
        <time>2022-10-19T15:32:07Z</time>
      </trkpt>
      <trkpt lat="43.56105" lon="6.39965">
        <ele>467.2</ele>
        <time>2022-10-19T15:32:13Z</time>
      </trkpt>
      <trkpt lat="43.561" lon="6.39965">
        <ele>466.2</ele>
        <time>2022-10-19T15:32:19Z</time>
      </trkpt>
      <trkpt lat="43.56095" lon="6.39964">
        <ele>465.4</ele>
        <time>2022-10-19T15:32:24Z</time>
      </trkpt>
      <trkpt lat="43.5609" lon="6.39963">
        <ele>463.9</ele>
        <time>2022-10-19T15:32:32Z</time>
      </trkpt>
      <trkpt lat="43.56084" lon="6.39964">
        <ele>463.1</ele>
        <time>2022-10-19T15:32:36Z</time>
      </trkpt>
      <trkpt lat="43.5608" lon="6.39965">
        <ele>462.2</ele>
        <time>2022-10-19T15:32:40Z</time>
      </trkpt>
      <trkpt lat="43.56075" lon="6.39968">
        <ele>461.5</ele>
        <time>2022-10-19T15:32:44Z</time>
      </trkpt>
      <trkpt lat="43.5607" lon="6.3997">
        <ele>460.9</ele>
        <time>2022-10-19T15:32:47Z</time>
      </trkpt>
      <trkpt lat="43.56066" lon="6.39973">
        <ele>459.8</ele>
        <time>2022-10-19T15:32:52Z</time>
      </trkpt>
      <trkpt lat="43.5606" lon="6.39974">
        <ele>459.1</ele>
        <time>2022-10-19T15:32:55Z</time>
      </trkpt>
      <trkpt lat="43.56055" lon="6.39977">
        <ele>458.4</ele>
        <time>2022-10-19T15:32:59Z</time>
      </trkpt>
      <trkpt lat="43.56051" lon="6.3998">
        <ele>458.1</ele>
        <time>2022-10-19T15:33:01Z</time>
      </trkpt>
      <trkpt lat="43.56047" lon="6.39984">
        <ele>457.6</ele>
        <time>2022-10-19T15:33:04Z</time>
      </trkpt>
      <trkpt lat="43.56043" lon="6.39987">
        <ele>457.1</ele>
        <time>2022-10-19T15:33:08Z</time>
      </trkpt>
      <trkpt lat="43.56039" lon="6.39991">
        <ele>456.5</ele>
        <time>2022-10-19T15:33:13Z</time>
      </trkpt>
      <trkpt lat="43.56036" lon="6.39998">
        <ele>456.2</ele>
        <time>2022-10-19T15:33:17Z</time>
      </trkpt>
      <trkpt lat="43.56038" lon="6.40005">
        <ele>456.4</ele>
        <time>2022-10-19T15:33:19Z</time>
      </trkpt>
      <trkpt lat="43.56039" lon="6.40014">
        <ele>456.5</ele>
        <time>2022-10-19T15:33:21Z</time>
      </trkpt>
      <trkpt lat="43.56042" lon="6.40018">
        <ele>456.5</ele>
        <time>2022-10-19T15:33:24Z</time>
      </trkpt>
      <trkpt lat="43.56042" lon="6.40024">
        <ele>456.6</ele>
        <time>2022-10-19T15:33:37Z</time>
      </trkpt>
      <trkpt lat="43.56044" lon="6.40018">
        <ele>456.7</ele>
        <time>2022-10-19T15:34:15Z</time>
      </trkpt>
      <trkpt lat="43.56042" lon="6.40013">
        <ele>456.6</ele>
        <time>2022-10-19T15:35:50Z</time>
      </trkpt>
      <trkpt lat="43.56037" lon="6.40011">
        <ele>455.9</ele>
        <time>2022-10-19T15:36:21Z</time>
      </trkpt>
      <trkpt lat="43.56039" lon="6.40005">
        <ele>455.9</ele>
        <time>2022-10-19T15:36:52Z</time>
      </trkpt>
      <trkpt lat="43.56039" lon="6.40012">
        <ele>455.8</ele>
        <time>2022-10-19T15:38:11Z</time>
      </trkpt>
      <trkpt lat="43.56036" lon="6.40017">
        <ele>456</ele>
        <time>2022-10-19T15:38:26Z</time>
      </trkpt>
      <trkpt lat="43.56039" lon="6.40022">
        <ele>456.5</ele>
        <time>2022-10-19T15:38:47Z</time>
      </trkpt>
      <trkpt lat="43.56044" lon="6.40022">
        <ele>456.7</ele>
        <time>2022-10-19T15:39:49Z</time>
      </trkpt>
      <trkpt lat="43.56048" lon="6.40022">
        <ele>456.8</ele>
        <time>2022-10-19T15:40:11Z</time>
      </trkpt>
      <trkpt lat="43.56053" lon="6.40023">
        <ele>457</ele>
        <time>2022-10-19T15:40:46Z</time>
      </trkpt>
      <trkpt lat="43.5605" lon="6.40018">
        <ele>456.8</ele>
        <time>2022-10-19T15:41:21Z</time>
      </trkpt>
      <trkpt lat="43.56046" lon="6.40016">
        <ele>456.8</ele>
        <time>2022-10-19T15:41:40Z</time>
      </trkpt>
      <trkpt lat="43.56049" lon="6.40011">
        <ele>457</ele>
        <time>2022-10-19T15:42:01Z</time>
      </trkpt>
      <trkpt lat="43.56045" lon="6.40016">
        <ele>457</ele>
        <time>2022-10-19T15:42:18Z</time>
      </trkpt>
      <trkpt lat="43.5605" lon="6.40017">
        <ele>457</ele>
        <time>2022-10-19T15:42:36Z</time>
      </trkpt>
      <trkpt lat="43.56055" lon="6.40016">
        <ele>457</ele>
        <time>2022-10-19T15:42:44Z</time>
      </trkpt>
      <trkpt lat="43.5605" lon="6.40019">
        <ele>457</ele>
        <time>2022-10-19T15:43:18Z</time>
      </trkpt>
      <trkpt lat="43.56055" lon="6.40017">
        <ele>457</ele>
        <time>2022-10-19T15:44:42Z</time>
      </trkpt>
      <trkpt lat="43.5605" lon="6.40018">
        <ele>457</ele>
        <time>2022-10-19T15:45:05Z</time>
      </trkpt>
      <trkpt lat="43.56044" lon="6.40016">
        <ele>457</ele>
        <time>2022-10-19T15:45:15Z</time>
      </trkpt>
      <trkpt lat="43.5604" lon="6.40015">
        <ele>457</ele>
        <time>2022-10-19T15:45:22Z</time>
      </trkpt>
      <trkpt lat="43.56039" lon="6.40009">
        <ele>456.5</ele>
        <time>2022-10-19T15:45:29Z</time>
      </trkpt>
      <trkpt lat="43.56035" lon="6.40003">
        <ele>455.7</ele>
        <time>2022-10-19T15:45:39Z</time>
      </trkpt>
      <trkpt lat="43.56033" lon="6.39996">
        <ele>455.1</ele>
        <time>2022-10-19T15:45:46Z</time>
      </trkpt>
      <trkpt lat="43.5603" lon="6.39991">
        <ele>454.4</ele>
        <time>2022-10-19T15:45:53Z</time>
      </trkpt>
      <trkpt lat="43.56027" lon="6.39986">
        <ele>454.1</ele>
        <time>2022-10-19T15:45:56Z</time>
      </trkpt>
      <trkpt lat="43.56023" lon="6.39984">
        <ele>453.5</ele>
        <time>2022-10-19T15:46:00Z</time>
      </trkpt>
      <trkpt lat="43.56019" lon="6.39977">
        <ele>452.9</ele>
        <time>2022-10-19T15:46:05Z</time>
      </trkpt>
      <trkpt lat="43.56012" lon="6.39973">
        <ele>452.4</ele>
        <time>2022-10-19T15:46:08Z</time>
      </trkpt>
      <trkpt lat="43.56007" lon="6.39973">
        <ele>452.1</ele>
        <time>2022-10-19T15:46:11Z</time>
      </trkpt>
      <trkpt lat="43.56003" lon="6.39977">
        <ele>451.4</ele>
        <time>2022-10-19T15:46:16Z</time>
      </trkpt>
      <trkpt lat="43.55999" lon="6.39982">
        <ele>450.8</ele>
        <time>2022-10-19T15:46:22Z</time>
      </trkpt>
      <trkpt lat="43.55996" lon="6.39987">
        <ele>450.4</ele>
        <time>2022-10-19T15:46:27Z</time>
      </trkpt>
      <trkpt lat="43.55992" lon="6.3999">
        <ele>449.6</ele>
        <time>2022-10-19T15:46:34Z</time>
      </trkpt>
      <trkpt lat="43.55988" lon="6.39996">
        <ele>448.6</ele>
        <time>2022-10-19T15:46:45Z</time>
      </trkpt>
      <trkpt lat="43.55983" lon="6.39999">
        <ele>448</ele>
        <time>2022-10-19T15:46:50Z</time>
      </trkpt>
      <trkpt lat="43.55978" lon="6.4">
        <ele>447.7</ele>
        <time>2022-10-19T15:46:54Z</time>
      </trkpt>
      <trkpt lat="43.55973" lon="6.40003">
        <ele>446.7</ele>
        <time>2022-10-19T15:47:02Z</time>
      </trkpt>
      <trkpt lat="43.55969" lon="6.40006">
        <ele>446.2</ele>
        <time>2022-10-19T15:47:06Z</time>
      </trkpt>
      <trkpt lat="43.55964" lon="6.40008">
        <ele>445.5</ele>
        <time>2022-10-19T15:47:12Z</time>
      </trkpt>
      <trkpt lat="43.5596" lon="6.40013">
        <ele>444.9</ele>
        <time>2022-10-19T15:47:18Z</time>
      </trkpt>
      <trkpt lat="43.55957" lon="6.4002">
        <ele>444.2</ele>
        <time>2022-10-19T15:47:27Z</time>
      </trkpt>
      <trkpt lat="43.55953" lon="6.40025">
        <ele>444.1</ele>
        <time>2022-10-19T15:47:31Z</time>
      </trkpt>
      <trkpt lat="43.5595" lon="6.4003">
        <ele>443.9</ele>
        <time>2022-10-19T15:47:34Z</time>
      </trkpt>
      <trkpt lat="43.55946" lon="6.40035">
        <ele>443.7</ele>
        <time>2022-10-19T15:47:37Z</time>
      </trkpt>
      <trkpt lat="43.55942" lon="6.40039">
        <ele>443.4</ele>
        <time>2022-10-19T15:47:42Z</time>
      </trkpt>
      <trkpt lat="43.55938" lon="6.40045">
        <ele>442.6</ele>
        <time>2022-10-19T15:47:53Z</time>
      </trkpt>
      <trkpt lat="43.55936" lon="6.40051">
        <ele>442.2</ele>
        <time>2022-10-19T15:47:58Z</time>
      </trkpt>
      <trkpt lat="43.55931" lon="6.40056">
        <ele>441.9</ele>
        <time>2022-10-19T15:48:01Z</time>
      </trkpt>
      <trkpt lat="43.55928" lon="6.40061">
        <ele>441.6</ele>
        <time>2022-10-19T15:48:05Z</time>
      </trkpt>
      <trkpt lat="43.55925" lon="6.40066">
        <ele>441.3</ele>
        <time>2022-10-19T15:48:10Z</time>
      </trkpt>
      <trkpt lat="43.55922" lon="6.40073">
        <ele>440.7</ele>
        <time>2022-10-19T15:48:17Z</time>
      </trkpt>
      <trkpt lat="43.55919" lon="6.40079">
        <ele>440.5</ele>
        <time>2022-10-19T15:48:21Z</time>
      </trkpt>
      <trkpt lat="43.55916" lon="6.40084">
        <ele>440.4</ele>
        <time>2022-10-19T15:48:26Z</time>
      </trkpt>
      <trkpt lat="43.55912" lon="6.4009">
        <ele>440.2</ele>
        <time>2022-10-19T15:48:31Z</time>
      </trkpt>
      <trkpt lat="43.55908" lon="6.40095">
        <ele>439.4</ele>
        <time>2022-10-19T15:48:42Z</time>
      </trkpt>
      <trkpt lat="43.55905" lon="6.40101">
        <ele>439.1</ele>
        <time>2022-10-19T15:48:46Z</time>
      </trkpt>
      <trkpt lat="43.55903" lon="6.40106">
        <ele>438.7</ele>
        <time>2022-10-19T15:48:51Z</time>
      </trkpt>
      <trkpt lat="43.559" lon="6.40111">
        <ele>438.3</ele>
        <time>2022-10-19T15:48:57Z</time>
      </trkpt>
      <trkpt lat="43.55895" lon="6.40118">
        <ele>437.8</ele>
        <time>2022-10-19T15:49:02Z</time>
      </trkpt>
      <trkpt lat="43.55893" lon="6.40124">
        <ele>437.2</ele>
        <time>2022-10-19T15:49:08Z</time>
      </trkpt>
      <trkpt lat="43.55889" lon="6.4013">
        <ele>436.5</ele>
        <time>2022-10-19T15:49:17Z</time>
      </trkpt>
      <trkpt lat="43.55887" lon="6.40135">
        <ele>435.9</ele>
        <time>2022-10-19T15:49:23Z</time>
      </trkpt>
      <trkpt lat="43.55882" lon="6.40138">
        <ele>435</ele>
        <time>2022-10-19T15:49:30Z</time>
      </trkpt>
      <trkpt lat="43.55879" lon="6.40143">
        <ele>434.7</ele>
        <time>2022-10-19T15:49:34Z</time>
      </trkpt>
      <trkpt lat="43.55875" lon="6.40148">
        <ele>434.4</ele>
        <time>2022-10-19T15:49:39Z</time>
      </trkpt>
      <trkpt lat="43.55872" lon="6.40153">
        <ele>433.8</ele>
        <time>2022-10-19T15:49:46Z</time>
      </trkpt>
      <trkpt lat="43.55868" lon="6.40159">
        <ele>433.5</ele>
        <time>2022-10-19T15:49:53Z</time>
      </trkpt>
      <trkpt lat="43.55865" lon="6.40165">
        <ele>433.3</ele>
        <time>2022-10-19T15:49:57Z</time>
      </trkpt>
      <trkpt lat="43.55863" lon="6.40172">
        <ele>433.1</ele>
        <time>2022-10-19T15:50:02Z</time>
      </trkpt>
      <trkpt lat="43.55861" lon="6.40178">
        <ele>432.8</ele>
        <time>2022-10-19T15:50:07Z</time>
      </trkpt>
      <trkpt lat="43.55857" lon="6.40184">
        <ele>432.5</ele>
        <time>2022-10-19T15:50:12Z</time>
      </trkpt>
      <trkpt lat="43.55855" lon="6.40191">
        <ele>432.2</ele>
        <time>2022-10-19T15:50:16Z</time>
      </trkpt>
      <trkpt lat="43.55855" lon="6.40198">
        <ele>431.7</ele>
        <time>2022-10-19T15:50:28Z</time>
      </trkpt>
      <trkpt lat="43.55856" lon="6.40204">
        <ele>431</ele>
        <time>2022-10-19T15:50:34Z</time>
      </trkpt>
      <trkpt lat="43.55854" lon="6.40211">
        <ele>430.6</ele>
        <time>2022-10-19T15:50:39Z</time>
      </trkpt>
      <trkpt lat="43.55851" lon="6.40218">
        <ele>429.8</ele>
        <time>2022-10-19T15:50:45Z</time>
      </trkpt>
      <trkpt lat="43.55847" lon="6.40223">
        <ele>429.1</ele>
        <time>2022-10-19T15:50:50Z</time>
      </trkpt>
      <trkpt lat="43.55843" lon="6.40226">
        <ele>428.5</ele>
        <time>2022-10-19T15:50:55Z</time>
      </trkpt>
      <trkpt lat="43.55839" lon="6.4023">
        <ele>427.5</ele>
        <time>2022-10-19T15:51:01Z</time>
      </trkpt>
      <trkpt lat="43.55835" lon="6.40234">
        <ele>427.1</ele>
        <time>2022-10-19T15:51:04Z</time>
      </trkpt>
      <trkpt lat="43.55831" lon="6.40239">
        <ele>426.6</ele>
        <time>2022-10-19T15:51:09Z</time>
      </trkpt>
      <trkpt lat="43.55831" lon="6.40246">
        <ele>425.9</ele>
        <time>2022-10-19T15:51:16Z</time>
      </trkpt>
      <trkpt lat="43.55826" lon="6.40245">
        <ele>425.2</ele>
        <time>2022-10-19T15:51:26Z</time>
      </trkpt>
      <trkpt lat="43.55821" lon="6.40243">
        <ele>424.3</ele>
        <time>2022-10-19T15:51:33Z</time>
      </trkpt>
      <trkpt lat="43.55817" lon="6.40245">
        <ele>423.3</ele>
        <time>2022-10-19T15:51:40Z</time>
      </trkpt>
      <trkpt lat="43.55811" lon="6.40245">
        <ele>422.8</ele>
        <time>2022-10-19T15:51:45Z</time>
      </trkpt>
      <trkpt lat="43.55806" lon="6.40247">
        <ele>422.7</ele>
        <time>2022-10-19T15:51:48Z</time>
      </trkpt>
      <trkpt lat="43.55803" lon="6.40253">
        <ele>421.9</ele>
        <time>2022-10-19T15:52:01Z</time>
      </trkpt>
      <trkpt lat="43.55801" lon="6.40258">
        <ele>421.6</ele>
        <time>2022-10-19T15:52:10Z</time>
      </trkpt>
      <trkpt lat="43.55796" lon="6.4026">
        <ele>421.4</ele>
        <time>2022-10-19T15:52:16Z</time>
      </trkpt>
      <trkpt lat="43.55791" lon="6.40259">
        <ele>421.2</ele>
        <time>2022-10-19T15:52:21Z</time>
      </trkpt>
      <trkpt lat="43.55788" lon="6.40265">
        <ele>420.9</ele>
        <time>2022-10-19T15:52:38Z</time>
      </trkpt>
      <trkpt lat="43.55784" lon="6.4027">
        <ele>420.9</ele>
        <time>2022-10-19T15:52:55Z</time>
      </trkpt>
      <trkpt lat="43.55789" lon="6.40267">
        <ele>420.7</ele>
        <time>2022-10-19T15:53:16Z</time>
      </trkpt>
      <trkpt lat="43.55791" lon="6.40262">
        <ele>420.8</ele>
        <time>2022-10-19T15:53:43Z</time>
      </trkpt>
      <trkpt lat="43.55789" lon="6.40267">
        <ele>420.8</ele>
        <time>2022-10-19T15:54:03Z</time>
      </trkpt>
      <trkpt lat="43.55785" lon="6.40271">
        <ele>420.8</ele>
        <time>2022-10-19T15:54:33Z</time>
      </trkpt>
      <trkpt lat="43.5579" lon="6.4027">
        <ele>420.6</ele>
        <time>2022-10-19T15:55:05Z</time>
      </trkpt>
      <trkpt lat="43.55787" lon="6.40266">
        <ele>420.8</ele>
        <time>2022-10-19T15:55:35Z</time>
      </trkpt>
      <trkpt lat="43.55791" lon="6.40264">
        <ele>420.4</ele>
        <time>2022-10-19T15:57:04Z</time>
      </trkpt>
      <trkpt lat="43.55787" lon="6.40265">
        <ele>420.8</ele>
        <time>2022-10-19T15:57:22Z</time>
      </trkpt>
      <trkpt lat="43.55791" lon="6.40261">
        <ele>420.3</ele>
        <time>2022-10-19T15:59:22Z</time>
      </trkpt>
      <trkpt lat="43.55788" lon="6.40267">
        <ele>420.7</ele>
        <time>2022-10-19T15:59:43Z</time>
      </trkpt>
      <trkpt lat="43.55785" lon="6.40272">
        <ele>420.1</ele>
        <time>2022-10-19T16:00:18Z</time>
      </trkpt>
      <trkpt lat="43.55785" lon="6.40272">
        <ele>420.3</ele>
        <time>2022-10-19T16:00:22Z</time>
      </trkpt>
    </trkseg>
  </trk>
</gpx>